Wetterdaten: Donnerstag, 11.07.2024
Datum Zeit Temp. I. Temp. A. Feuchte I. Feuchte A. Luftdruck Regen Wind Richtung Richtung Sonnenschein Solar Taupunkt Windchill Windböen
11.07.2024 00:00 24,2 °C 19,2 °C 69 % 92 % 1016,0 hPa 0,0 l/m² 0,0 km/h (0 Bft) S 172 ° 0 min 0 W/m² 17,9 °C 19,2 °C 0,0 km/h (0 Bft)
11.07.2024 00:02 24,2 °C 19,2 °C 69 % 92 % 1016,1 hPa 0,0 l/m² 0,3 km/h (0 Bft) S 172 ° 0 min 0 W/m² 17,9 °C 19,2 °C 3,2 km/h (1 Bft)
11.07.2024 00:03 24,2 °C 19,2 °C 69 % 92 % 1016,1 hPa 0,0 l/m² 0,2 km/h (0 Bft) S 172 ° 0 min 0 W/m² 17,9 °C 19,2 °C 1,6 km/h (1 Bft)
11.07.2024 00:05 24,2 °C 19,2 °C 69 % 92 % 1016,1 hPa 0,0 l/m² 1,2 km/h (1 Bft) S 172 ° 0 min 0 W/m² 17,9 °C 19,2 °C 3,2 km/h (1 Bft)
11.07.2024 00:07 24,2 °C 19,2 °C 69 % 92 % 1016,1 hPa 0,0 l/m² 0,6 km/h (0 Bft) S 182 ° 0 min 0 W/m² 17,9 °C 19,2 °C 3,2 km/h (1 Bft)
11.07.2024 00:09 24,2 °C 19,2 °C 69 % 92 % 1016,1 hPa 0,0 l/m² 0,4 km/h (0 Bft) S 182 ° 0 min 0 W/m² 17,9 °C 19,2 °C 1,6 km/h (1 Bft)
11.07.2024 00:10 24,2 °C 19,2 °C 69 % 92 % 1016,0 hPa 0,0 l/m² 0,4 km/h (0 Bft) S 182 ° 0 min 0 W/m² 17,9 °C 19,2 °C 1,6 km/h (1 Bft)
11.07.2024 00:12 24,2 °C 19,2 °C 69 % 92 % 1016,1 hPa 0,0 l/m² 0,0 km/h (0 Bft) S 182 ° 0 min 0 W/m² 17,9 °C 19,2 °C 1,6 km/h (1 Bft)
11.07.2024 00:14 24,2 °C 19,2 °C 69 % 92 % 1016,1 hPa 0,0 l/m² 0,0 km/h (0 Bft) S 182 ° 0 min 0 W/m² 17,9 °C 19,2 °C 0,0 km/h (0 Bft)
11.07.2024 00:16 24,2 °C 19,2 °C 69 % 92 % 1016,0 hPa 0,0 l/m² 0,0 km/h (0 Bft) S 182 ° 0 min 0 W/m² 17,9 °C 19,2 °C 0,0 km/h (0 Bft)
11.07.2024 00:18 24,1 °C 19,2 °C 69 % 92 % 1015,9 hPa 0,0 l/m² 0,0 km/h (0 Bft) S 182 ° 0 min 0 W/m² 17,9 °C 19,2 °C 0,0 km/h (0 Bft)
11.07.2024 00:20 24,1 °C 19,1 °C 69 % 92 % 1015,9 hPa 0,0 l/m² 0,0 km/h (0 Bft) S 182 ° 0 min 0 W/m² 17,8 °C 19,1 °C 0,0 km/h (0 Bft)
11.07.2024 00:21 24,1 °C 19,1 °C 68 % 92 % 1015,8 hPa 0,0 l/m² 0,2 km/h (0 Bft) S 182 ° 0 min 0 W/m² 17,8 °C 19,1 °C 1,6 km/h (1 Bft)
11.07.2024 00:23 24,1 °C 19,1 °C 69 % 92 % 1015,8 hPa 0,0 l/m² 1,7 km/h (1 Bft) S 182 ° 0 min 0 W/m² 17,8 °C 19,1 °C 3,2 km/h (1 Bft)
11.07.2024 00:25 24,1 °C 19,1 °C 69 % 92 % 1015,8 hPa 0,0 l/m² 0,5 km/h (0 Bft) S 182 ° 0 min 0 W/m² 17,8 °C 19,1 °C 1,6 km/h (1 Bft)
11.07.2024 00:27 24,1 °C 19,1 °C 69 % 92 % 1015,8 hPa 0,0 l/m² 0,2 km/h (0 Bft) S 182 ° 0 min 0 W/m² 17,8 °C 19,1 °C 1,6 km/h (1 Bft)
11.07.2024 00:29 24,1 °C 19,1 °C 68 % 92 % 1015,7 hPa 0,0 l/m² 0,7 km/h (0 Bft) S 173 ° 0 min 0 W/m² 17,8 °C 19,1 °C 3,2 km/h (1 Bft)
11.07.2024 00:31 24,1 °C 19,2 °C 68 % 92 % 1015,7 hPa 0,0 l/m² 1,9 km/h (1 Bft) S 173 ° 0 min 0 W/m² 17,9 °C 19,2 °C 4,8 km/h (1 Bft)
11.07.2024 00:32 24,1 °C 19,2 °C 68 % 92 % 1015,7 hPa 0,0 l/m² 4,3 km/h (1 Bft) SO 131 ° 0 min 0 W/m² 17,9 °C 19,2 °C 6,4 km/h (2 Bft)
11.07.2024 00:34 24,1 °C 19,2 °C 68 % 92 % 1015,8 hPa 0,0 l/m² 3,4 km/h (1 Bft) SO 128 ° 0 min 0 W/m² 17,9 °C 19,2 °C 4,8 km/h (1 Bft)
11.07.2024 00:36 24,1 °C 19,2 °C 68 % 92 % 1015,7 hPa 0,0 l/m² 0,9 km/h (0 Bft) SO 128 ° 0 min 0 W/m² 17,9 °C 19,2 °C 4,8 km/h (1 Bft)
11.07.2024 00:38 24,1 °C 19,2 °C 68 % 92 % 1015,7 hPa 0,0 l/m² 0,3 km/h (0 Bft) SO 128 ° 0 min 0 W/m² 17,9 °C 19,2 °C 3,2 km/h (1 Bft)
11.07.2024 00:40 24,1 °C 19,2 °C 68 % 92 % 1015,8 hPa 0,0 l/m² 0,0 km/h (0 Bft) SO 128 ° 0 min 0 W/m² 17,9 °C 19,2 °C 1,6 km/h (1 Bft)
11.07.2024 00:41 24,1 °C 19,2 °C 68 % 92 % 1015,8 hPa 0,0 l/m² 0,5 km/h (0 Bft) SO 128 ° 0 min 0 W/m² 17,9 °C 19,2 °C 1,6 km/h (1 Bft)
11.07.2024 00:43 24,1 °C 19,2 °C 68 % 93 % 1015,7 hPa 0,0 l/m² 0,1 km/h (0 Bft) SO 128 ° 0 min 0 W/m² 18,0 °C 19,2 °C 1,6 km/h (1 Bft)
11.07.2024 00:45 24,1 °C 19,2 °C 68 % 93 % 1015,7 hPa 0,0 l/m² 0,1 km/h (0 Bft) SO 128 ° 0 min 0 W/m² 18,0 °C 19,2 °C 1,6 km/h (1 Bft)
11.07.2024 00:47 24,1 °C 19,2 °C 68 % 93 % 1015,8 hPa 0,0 l/m² 0,4 km/h (0 Bft) SO 128 ° 0 min 0 W/m² 18,0 °C 19,2 °C 1,6 km/h (1 Bft)
11.07.2024 00:49 24,1 °C 19,2 °C 68 % 93 % 1015,6 hPa 0,0 l/m² 0,2 km/h (0 Bft) SO 128 ° 0 min 0 W/m² 18,0 °C 19,2 °C 1,6 km/h (1 Bft)
11.07.2024 00:51 24,1 °C 19,2 °C 68 % 93 % 1015,7 hPa 0,0 l/m² 0,3 km/h (0 Bft) SO 128 ° 0 min 0 W/m² 18,0 °C 19,2 °C 1,6 km/h (1 Bft)
11.07.2024 00:53 24,1 °C 19,3 °C 68 % 93 % 1015,7 hPa 0,0 l/m² 0,0 km/h (0 Bft) SO 128 ° 0 min 0 W/m² 18,1 °C 19,3 °C 0,0 km/h (0 Bft)
11.07.2024 00:55 24,1 °C 19,2 °C 68 % 93 % 1015,8 hPa 0,0 l/m² 0,0 km/h (0 Bft) SO 128 ° 0 min 0 W/m² 18,0 °C 19,2 °C 0,0 km/h (0 Bft)
11.07.2024 00:57 24,1 °C 19,3 °C 68 % 93 % 1015,8 hPa 0,0 l/m² 0,0 km/h (0 Bft) SO 128 ° 0 min 0 W/m² 18,1 °C 19,3 °C 0,0 km/h (0 Bft)
11.07.2024 00:59 24,1 °C 19,3 °C 68 % 93 % 1015,8 hPa 0,0 l/m² 0,0 km/h (0 Bft) SO 128 ° 0 min 0 W/m² 18,1 °C 19,3 °C 0,0 km/h (0 Bft)
11.07.2024 01:01 24,1 °C 19,3 °C 68 % 93 % 1015,7 hPa 0,0 l/m² 0,0 km/h (0 Bft) SO 128 ° 0 min 0 W/m² 18,1 °C 19,3 °C 0,0 km/h (0 Bft)
11.07.2024 01:03 24,1 °C 19,3 °C 68 % 93 % 1015,7 hPa 0,0 l/m² 0,0 km/h (0 Bft) SO 128 ° 0 min 0 W/m² 18,1 °C 19,3 °C 0,0 km/h (0 Bft)
11.07.2024 01:05 24,1 °C 19,3 °C 68 % 93 % 1015,7 hPa 0,0 l/m² 0,1 km/h (0 Bft) SO 128 ° 0 min 0 W/m² 18,1 °C 19,3 °C 1,6 km/h (1 Bft)
11.07.2024 01:07 24,1 °C 19,4 °C 68 % 93 % 1015,6 hPa 0,0 l/m² 2,5 km/h (1 Bft) SO 129 ° 0 min 0 W/m² 18,2 °C 19,4 °C 3,2 km/h (1 Bft)
11.07.2024 01:09 24,1 °C 19,4 °C 68 % 93 % 1015,7 hPa 0,2 l/m² 0,8 km/h (0 Bft) SO 128 ° 0 min 0 W/m² 18,2 °C 19,4 °C 3,2 km/h (1 Bft)
11.07.2024 01:11 24,1 °C 19,4 °C 68 % 93 % 1015,6 hPa 0,0 l/m² 0,0 km/h (0 Bft) SO 128 ° 0 min 0 W/m² 18,2 °C 19,4 °C 0,0 km/h (0 Bft)
11.07.2024 01:13 24,1 °C 19,4 °C 68 % 93 % 1015,6 hPa 0,0 l/m² 0,0 km/h (0 Bft) SO 128 ° 0 min 0 W/m² 18,2 °C 19,4 °C 0,0 km/h (0 Bft)
11.07.2024 01:15 24,1 °C 19,4 °C 68 % 93 % 1015,6 hPa 0,0 l/m² 0,0 km/h (0 Bft) SO 128 ° 0 min 0 W/m² 18,2 °C 19,4 °C 0,0 km/h (0 Bft)
11.07.2024 01:17 24,1 °C 19,4 °C 68 % 93 % 1015,6 hPa 0,0 l/m² 0,0 km/h (0 Bft) SO 128 ° 0 min 0 W/m² 18,2 °C 19,4 °C 0,0 km/h (0 Bft)
11.07.2024 01:19 24,1 °C 19,4 °C 68 % 93 % 1015,6 hPa 0,0 l/m² 0,0 km/h (0 Bft) SO 128 ° 0 min 0 W/m² 18,2 °C 19,4 °C 0,0 km/h (0 Bft)
11.07.2024 01:21 24,1 °C 19,5 °C 68 % 93 % 1015,6 hPa 0,0 l/m² 0,0 km/h (0 Bft) SO 128 ° 0 min 0 W/m² 18,3 °C 19,5 °C 1,6 km/h (1 Bft)
11.07.2024 01:22 24,1 °C 19,5 °C 68 % 93 % 1015,6 hPa 0,0 l/m² 2,0 km/h (1 Bft) SO 128 ° 0 min 0 W/m² 18,3 °C 19,5 °C 3,2 km/h (1 Bft)
11.07.2024 01:23 24,1 °C 19,5 °C 68 % 93 % 1015,7 hPa 0,0 l/m² 2,5 km/h (1 Bft) SO 128 ° 0 min 0 W/m² 18,3 °C 19,5 °C 4,8 km/h (1 Bft)
11.07.2024 01:24 24,1 °C 19,5 °C 68 % 93 % 1015,8 hPa 0,0 l/m² 0,5 km/h (0 Bft) SO 128 ° 0 min 0 W/m² 18,3 °C 19,5 °C 3,2 km/h (1 Bft)
11.07.2024 01:26 24,1 °C 19,6 °C 68 % 93 % 1015,8 hPa 0,0 l/m² 0,1 km/h (0 Bft) SO 128 ° 0 min 0 W/m² 18,4 °C 19,6 °C 3,2 km/h (1 Bft)
11.07.2024 01:27 24,1 °C 19,6 °C 68 % 93 % 1015,7 hPa 0,0 l/m² 0,0 km/h (0 Bft) SO 128 ° 0 min 0 W/m² 18,4 °C 19,6 °C 0,0 km/h (0 Bft)
11.07.2024 01:28 24,1 °C 19,6 °C 68 % 93 % 1015,7 hPa 0,0 l/m² 0,0 km/h (0 Bft) SO 128 ° 0 min 0 W/m² 18,4 °C 19,6 °C 0,0 km/h (0 Bft)
11.07.2024 01:29 24,1 °C 19,6 °C 68 % 93 % 1015,8 hPa 0,0 l/m² 0,0 km/h (0 Bft) SO 128 ° 0 min 0 W/m² 18,4 °C 19,6 °C 0,0 km/h (0 Bft)
11.07.2024 01:31 24,1 °C 19,6 °C 68 % 93 % 1015,8 hPa 0,0 l/m² 0,0 km/h (0 Bft) SO 128 ° 0 min 0 W/m² 18,4 °C 19,6 °C 0,0 km/h (0 Bft)
11.07.2024 01:32 24,1 °C 19,6 °C 68 % 93 % 1015,8 hPa 0,0 l/m² 0,0 km/h (0 Bft) SO 128 ° 0 min 0 W/m² 18,4 °C 19,6 °C 0,0 km/h (0 Bft)
11.07.2024 01:33 24,1 °C 19,6 °C 68 % 93 % 1015,8 hPa 0,0 l/m² 0,0 km/h (0 Bft) SO 128 ° 0 min 0 W/m² 18,4 °C 19,6 °C 0,0 km/h (0 Bft)
11.07.2024 01:34 24,0 °C 19,6 °C 68 % 93 % 1015,8 hPa 0,0 l/m² 0,0 km/h (0 Bft) SO 128 ° 0 min 0 W/m² 18,4 °C 19,6 °C 0,0 km/h (0 Bft)
11.07.2024 01:36 24,1 °C 19,5 °C 68 % 93 % 1015,8 hPa 0,0 l/m² 0,0 km/h (0 Bft) SO 128 ° 0 min 0 W/m² 18,3 °C 19,5 °C 0,0 km/h (0 Bft)
11.07.2024 01:37 24,1 °C 19,6 °C 68 % 93 % 1015,8 hPa 0,0 l/m² 0,0 km/h (0 Bft) SO 128 ° 0 min 0 W/m² 18,4 °C 19,6 °C 0,0 km/h (0 Bft)
11.07.2024 01:38 24,1 °C 19,6 °C 68 % 93 % 1015,8 hPa 0,0 l/m² 0,0 km/h (0 Bft) SO 128 ° 0 min 0 W/m² 18,4 °C 19,6 °C 0,0 km/h (0 Bft)
11.07.2024 01:39 24,1 °C 19,6 °C 68 % 93 % 1015,8 hPa 0,0 l/m² 0,5 km/h (0 Bft) SO 132 ° 0 min 0 W/m² 18,4 °C 19,6 °C 1,6 km/h (1 Bft)
11.07.2024 01:40 24,1 °C 19,6 °C 68 % 93 % 1015,8 hPa 0,0 l/m² 2,1 km/h (1 Bft) SW 232 ° 0 min 0 W/m² 18,4 °C 19,6 °C 3,2 km/h (1 Bft)
11.07.2024 01:41 24,1 °C 19,5 °C 68 % 93 % 1015,8 hPa 0,0 l/m² 3,5 km/h (1 Bft) W-SW 250 ° 0 min 0 W/m² 18,3 °C 19,5 °C 4,8 km/h (1 Bft)
11.07.2024 01:42 24,1 °C 19,5 °C 68 % 93 % 1015,9 hPa 0,0 l/m² 0,9 km/h (0 Bft) W-SW 250 ° 0 min 0 W/m² 18,3 °C 19,5 °C 3,2 km/h (1 Bft)
11.07.2024 01:43 24,1 °C 19,5 °C 68 % 93 % 1015,8 hPa 0,0 l/m² 1,1 km/h (1 Bft) W-SW 250 ° 0 min 0 W/m² 18,3 °C 19,5 °C 3,2 km/h (1 Bft)
11.07.2024 01:44 24,1 °C 19,5 °C 68 % 93 % 1015,8 hPa 0,0 l/m² 1,4 km/h (1 Bft) W-SW 252 ° 0 min 0 W/m² 18,3 °C 19,5 °C 3,2 km/h (1 Bft)
11.07.2024 01:45 24,1 °C 19,5 °C 68 % 93 % 1015,8 hPa 0,0 l/m² 2,0 km/h (1 Bft) W-SW 252 ° 0 min 0 W/m² 18,3 °C 19,5 °C 4,8 km/h (1 Bft)
11.07.2024 01:46 24,1 °C 19,6 °C 68 % 93 % 1015,9 hPa 0,0 l/m² 2,5 km/h (1 Bft) W-SW 253 ° 0 min 0 W/m² 18,4 °C 19,6 °C 6,4 km/h (2 Bft)
11.07.2024 01:47 24,1 °C 19,6 °C 68 % 93 % 1015,9 hPa 0,0 l/m² 1,1 km/h (1 Bft) W-SW 253 ° 0 min 0 W/m² 18,4 °C 19,6 °C 3,2 km/h (1 Bft)
11.07.2024 01:48 24,1 °C 19,5 °C 68 % 93 % 1015,8 hPa 0,0 l/m² 1,7 km/h (1 Bft) W-SW 256 ° 0 min 0 W/m² 18,3 °C 19,5 °C 6,4 km/h (2 Bft)
11.07.2024 01:49 24,1 °C 19,5 °C 68 % 93 % 1015,8 hPa 0,0 l/m² 0,3 km/h (0 Bft) W-SW 256 ° 0 min 0 W/m² 18,3 °C 19,5 °C 3,2 km/h (1 Bft)
11.07.2024 01:50 24,0 °C 19,5 °C 68 % 93 % 1015,8 hPa 0,0 l/m² 1,3 km/h (1 Bft) W-SW 256 ° 0 min 0 W/m² 18,3 °C 19,5 °C 3,2 km/h (1 Bft)
11.07.2024 01:51 24,1 °C 19,5 °C 68 % 93 % 1015,9 hPa 0,0 l/m² 0,2 km/h (0 Bft) W-SW 256 ° 0 min 0 W/m² 18,3 °C 19,5 °C 1,6 km/h (1 Bft)
11.07.2024 01:52 24,0 °C 19,6 °C 68 % 93 % 1015,8 hPa 0,0 l/m² 0,1 km/h (0 Bft) W-SW 256 ° 0 min 0 W/m² 18,4 °C 19,6 °C 1,6 km/h (1 Bft)
11.07.2024 01:53 24,0 °C 19,5 °C 68 % 93 % 1015,8 hPa 0,0 l/m² 0,1 km/h (0 Bft) W-SW 256 ° 0 min 0 W/m² 18,3 °C 19,5 °C 1,6 km/h (1 Bft)
11.07.2024 01:54 24,0 °C 19,5 °C 68 % 93 % 1015,7 hPa 0,0 l/m² 0,0 km/h (0 Bft) W-SW 256 ° 0 min 0 W/m² 18,3 °C 19,5 °C 0,0 km/h (0 Bft)
11.07.2024 01:55 24,0 °C 19,5 °C 68 % 93 % 1015,7 hPa 0,0 l/m² 0,0 km/h (0 Bft) W-SW 256 ° 0 min 0 W/m² 18,3 °C 19,5 °C 0,0 km/h (0 Bft)
11.07.2024 01:56 24,1 °C 19,5 °C 68 % 93 % 1015,8 hPa 0,0 l/m² 0,0 km/h (0 Bft) W-SW 256 ° 0 min 0 W/m² 18,3 °C 19,5 °C 0,0 km/h (0 Bft)
11.07.2024 01:57 24,1 °C 19,5 °C 68 % 93 % 1015,8 hPa 0,0 l/m² 0,0 km/h (0 Bft) W-SW 256 ° 0 min 0 W/m² 18,3 °C 19,5 °C 0,0 km/h (0 Bft)
11.07.2024 01:58 24,1 °C 19,6 °C 68 % 93 % 1015,8 hPa 0,0 l/m² 0,0 km/h (0 Bft) W-SW 256 ° 0 min 0 W/m² 18,4 °C 19,6 °C 0,0 km/h (0 Bft)
11.07.2024 01:59 24,1 °C 19,5 °C 68 % 93 % 1015,8 hPa 0,0 l/m² 0,0 km/h (0 Bft) W-SW 256 ° 0 min 0 W/m² 18,3 °C 19,5 °C 0,0 km/h (0 Bft)
11.07.2024 02:00 24,1 °C 19,5 °C 68 % 93 % 1015,8 hPa 0,0 l/m² 0,0 km/h (0 Bft) W-SW 256 ° 0 min 0 W/m² 18,3 °C 19,5 °C 0,0 km/h (0 Bft)
11.07.2024 02:01 24,1 °C 19,5 °C 68 % 93 % 1015,8 hPa 0,0 l/m² 0,0 km/h (0 Bft) W-SW 256 ° 0 min 0 W/m² 18,3 °C 19,5 °C 0,0 km/h (0 Bft)
11.07.2024 02:02 24,1 °C 19,5 °C 68 % 93 % 1015,8 hPa 0,0 l/m² 0,0 km/h (0 Bft) W-SW 256 ° 0 min 0 W/m² 18,3 °C 19,5 °C 0,0 km/h (0 Bft)
11.07.2024 02:03 24,0 °C 19,5 °C 68 % 93 % 1015,8 hPa 0,0 l/m² 0,0 km/h (0 Bft) W-SW 256 ° 0 min 0 W/m² 18,3 °C 19,5 °C 0,0 km/h (0 Bft)
11.07.2024 02:04 24,1 °C 19,5 °C 68 % 93 % 1015,7 hPa 0,0 l/m² 0,0 km/h (0 Bft) W-SW 256 ° 0 min 0 W/m² 18,3 °C 19,5 °C 0,0 km/h (0 Bft)
11.07.2024 02:05 24,1 °C 19,5 °C 68 % 93 % 1015,7 hPa 0,0 l/m² 0,0 km/h (0 Bft) W-SW 256 ° 0 min 0 W/m² 18,3 °C 19,5 °C 0,0 km/h (0 Bft)
11.07.2024 02:06 24,0 °C 19,5 °C 68 % 93 % 1015,8 hPa 0,0 l/m² 0,4 km/h (0 Bft) W-SW 256 ° 0 min 0 W/m² 18,3 °C 19,5 °C 1,6 km/h (1 Bft)
11.07.2024 02:07 24,1 °C 19,5 °C 68 % 93 % 1015,8 hPa 0,0 l/m² 2,1 km/h (1 Bft) W-SW 256 ° 0 min 0 W/m² 18,3 °C 19,5 °C 3,2 km/h (1 Bft)
11.07.2024 02:08 24,1 °C 19,5 °C 68 % 93 % 1015,8 hPa 0,0 l/m² 1,7 km/h (1 Bft) W-SW 256 ° 0 min 0 W/m² 18,3 °C 19,5 °C 3,2 km/h (1 Bft)
11.07.2024 02:09 24,1 °C 19,5 °C 68 % 93 % 1015,8 hPa 0,0 l/m² 0,2 km/h (0 Bft) W-SW 256 ° 0 min 0 W/m² 18,3 °C 19,5 °C 1,6 km/h (1 Bft)
11.07.2024 02:10 24,1 °C 19,5 °C 68 % 93 % 1015,8 hPa 0,0 l/m² 0,0 km/h (0 Bft) W-SW 256 ° 0 min 0 W/m² 18,3 °C 19,5 °C 0,0 km/h (0 Bft)
11.07.2024 02:11 24,1 °C 19,5 °C 68 % 93 % 1015,8 hPa 0,0 l/m² 0,0 km/h (0 Bft) W-SW 256 ° 0 min 0 W/m² 18,3 °C 19,5 °C 0,0 km/h (0 Bft)
11.07.2024 02:12 24,1 °C 19,5 °C 68 % 93 % 1015,8 hPa 0,0 l/m² 0,0 km/h (0 Bft) W-SW 256 ° 0 min 0 W/m² 18,3 °C 19,5 °C 0,0 km/h (0 Bft)
11.07.2024 02:13 24,1 °C 19,5 °C 68 % 93 % 1015,8 hPa 0,0 l/m² 0,0 km/h (0 Bft) W-SW 256 ° 0 min 0 W/m² 18,3 °C 19,5 °C 0,0 km/h (0 Bft)
11.07.2024 02:14 24,0 °C 19,5 °C 68 % 93 % 1015,7 hPa 0,0 l/m² 0,0 km/h (0 Bft) W-SW 256 ° 0 min 0 W/m² 18,3 °C 19,5 °C 0,0 km/h (0 Bft)
11.07.2024 02:15 24,1 °C 19,5 °C 68 % 93 % 1015,8 hPa 0,0 l/m² 0,0 km/h (0 Bft) W-SW 256 ° 0 min 0 W/m² 18,3 °C 19,5 °C 0,0 km/h (0 Bft)
11.07.2024 02:16 24,1 °C 19,5 °C 68 % 94 % 1015,7 hPa 0,0 l/m² 0,0 km/h (0 Bft) W-SW 256 ° 0 min 0 W/m² 18,5 °C 19,5 °C 0,0 km/h (0 Bft)
11.07.2024 02:17 24,1 °C 19,5 °C 68 % 94 % 1015,7 hPa 0,0 l/m² 0,0 km/h (0 Bft) W-SW 256 ° 0 min 0 W/m² 18,5 °C 19,5 °C 0,0 km/h (0 Bft)
11.07.2024 02:18 24,1 °C 19,5 °C 68 % 93 % 1015,7 hPa 0,0 l/m² 0,0 km/h (0 Bft) W-SW 256 ° 0 min 0 W/m² 18,3 °C 19,5 °C 0,0 km/h (0 Bft)
11.07.2024 02:19 24,1 °C 19,5 °C 68 % 93 % 1015,7 hPa 0,0 l/m² 0,0 km/h (0 Bft) W-SW 256 ° 0 min 0 W/m² 18,3 °C 19,5 °C 0,0 km/h (0 Bft)
11.07.2024 02:20 24,1 °C 19,5 °C 68 % 93 % 1015,7 hPa 0,0 l/m² 0,0 km/h (0 Bft) W-SW 256 ° 0 min 0 W/m² 18,3 °C 19,5 °C 0,0 km/h (0 Bft)
11.07.2024 02:21 24,0 °C 19,5 °C 68 % 93 % 1015,7 hPa 0,0 l/m² 0,0 km/h (0 Bft) W-SW 256 ° 0 min 0 W/m² 18,3 °C 19,5 °C 0,0 km/h (0 Bft)
11.07.2024 02:22 24,1 °C 19,5 °C 68 % 93 % 1015,6 hPa 0,0 l/m² 0,0 km/h (0 Bft) W-SW 256 ° 0 min 0 W/m² 18,3 °C 19,5 °C 0,0 km/h (0 Bft)
11.07.2024 02:23 24,1 °C 19,5 °C 68 % 93 % 1015,6 hPa 0,0 l/m² 0,0 km/h (0 Bft) W-SW 256 ° 0 min 0 W/m² 18,3 °C 19,5 °C 0,0 km/h (0 Bft)
11.07.2024 02:24 24,1 °C 19,5 °C 68 % 93 % 1015,6 hPa 0,0 l/m² 0,0 km/h (0 Bft) W-SW 256 ° 0 min 0 W/m² 18,3 °C 19,5 °C 0,0 km/h (0 Bft)
11.07.2024 02:25 24,0 °C 19,5 °C 68 % 93 % 1015,6 hPa 0,0 l/m² 0,0 km/h (0 Bft) W-SW 256 ° 0 min 0 W/m² 18,3 °C 19,5 °C 0,0 km/h (0 Bft)
11.07.2024 02:26 24,1 °C 19,5 °C 68 % 93 % 1015,6 hPa 0,0 l/m² 0,0 km/h (0 Bft) W-SW 256 ° 0 min 0 W/m² 18,3 °C 19,5 °C 0,0 km/h (0 Bft)
11.07.2024 02:27 24,0 °C 19,5 °C 68 % 93 % 1015,7 hPa 0,0 l/m² 0,0 km/h (0 Bft) W-SW 256 ° 0 min 0 W/m² 18,3 °C 19,5 °C 0,0 km/h (0 Bft)
11.07.2024 02:28 24,1 °C 19,5 °C 68 % 93 % 1015,6 hPa 0,0 l/m² 0,0 km/h (0 Bft) W-SW 256 ° 0 min 0 W/m² 18,3 °C 19,5 °C 0,0 km/h (0 Bft)
11.07.2024 02:29 24,0 °C 19,4 °C 68 % 93 % 1015,6 hPa 0,0 l/m² 0,0 km/h (0 Bft) W-SW 256 ° 0 min 0 W/m² 18,2 °C 19,4 °C 0,0 km/h (0 Bft)
11.07.2024 02:30 24,0 °C 19,5 °C 68 % 93 % 1015,5 hPa 0,0 l/m² 0,0 km/h (0 Bft) W-SW 256 ° 0 min 0 W/m² 18,3 °C 19,5 °C 0,0 km/h (0 Bft)
11.07.2024 02:31 24,0 °C 19,4 °C 68 % 93 % 1015,5 hPa 0,0 l/m² 0,0 km/h (0 Bft) W-SW 256 ° 0 min 0 W/m² 18,2 °C 19,4 °C 0,0 km/h (0 Bft)
11.07.2024 02:32 24,1 °C 19,5 °C 68 % 93 % 1015,5 hPa 0,0 l/m² 0,0 km/h (0 Bft) W-SW 256 ° 0 min 0 W/m² 18,3 °C 19,5 °C 0,0 km/h (0 Bft)
11.07.2024 02:33 24,0 °C 19,4 °C 68 % 93 % 1015,5 hPa 0,0 l/m² 0,0 km/h (0 Bft) W-SW 256 ° 0 min 0 W/m² 18,2 °C 19,4 °C 0,0 km/h (0 Bft)
11.07.2024 02:34 24,1 °C 19,4 °C 68 % 94 % 1015,5 hPa 0,0 l/m² 0,0 km/h (0 Bft) W-SW 256 ° 0 min 0 W/m² 18,4 °C 19,4 °C 0,0 km/h (0 Bft)
11.07.2024 02:35 24,1 °C 19,4 °C 68 % 93 % 1015,5 hPa 0,0 l/m² 0,0 km/h (0 Bft) W-SW 256 ° 0 min 0 W/m² 18,2 °C 19,4 °C 0,0 km/h (0 Bft)
11.07.2024 02:36 24,1 °C 19,5 °C 68 % 93 % 1015,6 hPa 0,0 l/m² 0,0 km/h (0 Bft) W-SW 256 ° 0 min 0 W/m² 18,3 °C 19,5 °C 0,0 km/h (0 Bft)
11.07.2024 02:37 24,1 °C 19,4 °C 68 % 93 % 1015,5 hPa 0,0 l/m² 0,0 km/h (0 Bft) W-SW 256 ° 0 min 0 W/m² 18,2 °C 19,4 °C 0,0 km/h (0 Bft)
11.07.2024 02:38 24,1 °C 19,4 °C 68 % 93 % 1015,5 hPa 0,0 l/m² 0,0 km/h (0 Bft) W-SW 256 ° 0 min 0 W/m² 18,2 °C 19,4 °C 0,0 km/h (0 Bft)
11.07.2024 02:39 24,0 °C 19,4 °C 68 % 93 % 1015,5 hPa 0,0 l/m² 0,0 km/h (0 Bft) W-SW 256 ° 0 min 0 W/m² 18,2 °C 19,4 °C 0,0 km/h (0 Bft)
11.07.2024 02:40 24,1 °C 19,4 °C 68 % 93 % 1015,5 hPa 0,0 l/m² 0,0 km/h (0 Bft) W-SW 256 ° 0 min 0 W/m² 18,2 °C 19,4 °C 0,0 km/h (0 Bft)
11.07.2024 02:41 24,1 °C 19,4 °C 68 % 93 % 1015,5 hPa 0,0 l/m² 0,0 km/h (0 Bft) W-SW 256 ° 0 min 0 W/m² 18,2 °C 19,4 °C 0,0 km/h (0 Bft)
11.07.2024 02:42 24,0 °C 19,4 °C 68 % 94 % 1015,5 hPa 0,0 l/m² 0,0 km/h (0 Bft) W-SW 256 ° 0 min 0 W/m² 18,4 °C 19,4 °C 0,0 km/h (0 Bft)
11.07.2024 02:43 24,1 °C 19,4 °C 68 % 94 % 1015,6 hPa 0,0 l/m² 0,0 km/h (0 Bft) W-SW 256 ° 0 min 0 W/m² 18,4 °C 19,4 °C 0,0 km/h (0 Bft)
11.07.2024 02:44 24,1 °C 19,4 °C 68 % 94 % 1015,6 hPa 0,0 l/m² 0,0 km/h (0 Bft) W-SW 256 ° 0 min 0 W/m² 18,4 °C 19,4 °C 0,0 km/h (0 Bft)
11.07.2024 02:45 24,0 °C 19,4 °C 68 % 94 % 1015,6 hPa 0,0 l/m² 0,0 km/h (0 Bft) W-SW 256 ° 0 min 0 W/m² 18,4 °C 19,4 °C 0,0 km/h (0 Bft)
11.07.2024 02:46 24,1 °C 19,4 °C 68 % 94 % 1015,6 hPa 0,0 l/m² 0,0 km/h (0 Bft) W-SW 256 ° 0 min 0 W/m² 18,4 °C 19,4 °C 0,0 km/h (0 Bft)
11.07.2024 02:47 24,0 °C 19,4 °C 68 % 94 % 1015,6 hPa 0,0 l/m² 0,0 km/h (0 Bft) W-SW 256 ° 0 min 0 W/m² 18,4 °C 19,4 °C 0,0 km/h (0 Bft)
11.07.2024 02:48 24,0 °C 19,4 °C 68 % 94 % 1015,6 hPa 0,0 l/m² 0,0 km/h (0 Bft) W-SW 256 ° 0 min 0 W/m² 18,4 °C 19,4 °C 0,0 km/h (0 Bft)
11.07.2024 02:49 24,1 °C 19,4 °C 68 % 94 % 1015,5 hPa 0,0 l/m² 0,0 km/h (0 Bft) W-SW 256 ° 0 min 0 W/m² 18,4 °C 19,4 °C 0,0 km/h (0 Bft)
11.07.2024 02:50 24,0 °C 19,4 °C 68 % 94 % 1015,6 hPa 0,0 l/m² 0,0 km/h (0 Bft) W-SW 256 ° 0 min 0 W/m² 18,4 °C 19,4 °C 0,0 km/h (0 Bft)
11.07.2024 02:51 24,1 °C 19,4 °C 68 % 94 % 1015,5 hPa 0,0 l/m² 0,0 km/h (0 Bft) W-SW 256 ° 0 min 0 W/m² 18,4 °C 19,4 °C 0,0 km/h (0 Bft)
11.07.2024 02:52 24,0 °C 19,4 °C 68 % 94 % 1015,5 hPa 0,0 l/m² 0,0 km/h (0 Bft) W-SW 256 ° 0 min 0 W/m² 18,4 °C 19,4 °C 0,0 km/h (0 Bft)
11.07.2024 02:53 24,0 °C 19,4 °C 68 % 94 % 1015,5 hPa 0,0 l/m² 0,0 km/h (0 Bft) W-SW 256 ° 0 min 0 W/m² 18,4 °C 19,4 °C 0,0 km/h (0 Bft)
11.07.2024 02:54 24,1 °C 19,4 °C 68 % 94 % 1015,5 hPa 0,0 l/m² 0,0 km/h (0 Bft) W-SW 256 ° 0 min 0 W/m² 18,4 °C 19,4 °C 0,0 km/h (0 Bft)
11.07.2024 02:55 24,0 °C 19,4 °C 68 % 94 % 1015,5 hPa 0,0 l/m² 0,0 km/h (0 Bft) W-SW 256 ° 0 min 0 W/m² 18,4 °C 19,4 °C 0,0 km/h (0 Bft)
11.07.2024 02:56 24,0 °C 19,4 °C 68 % 94 % 1015,5 hPa 0,0 l/m² 0,0 km/h (0 Bft) W-SW 256 ° 0 min 0 W/m² 18,4 °C 19,4 °C 0,0 km/h (0 Bft)
11.07.2024 02:57 24,1 °C 19,4 °C 68 % 94 % 1015,5 hPa 0,0 l/m² 0,0 km/h (0 Bft) W-SW 256 ° 0 min 0 W/m² 18,4 °C 19,4 °C 0,0 km/h (0 Bft)
11.07.2024 02:58 24,0 °C 19,4 °C 68 % 94 % 1015,5 hPa 0,0 l/m² 0,0 km/h (0 Bft) W-SW 256 ° 0 min 0 W/m² 18,4 °C 19,4 °C 0,0 km/h (0 Bft)
11.07.2024 02:59 24,0 °C 19,4 °C 68 % 94 % 1015,5 hPa 0,0 l/m² 0,0 km/h (0 Bft) W-SW 256 ° 0 min 0 W/m² 18,4 °C 19,4 °C 0,0 km/h (0 Bft)
11.07.2024 03:00 24,0 °C 19,4 °C 68 % 94 % 1015,6 hPa 0,0 l/m² 0,0 km/h (0 Bft) W-SW 256 ° 0 min 0 W/m² 18,4 °C 19,4 °C 0,0 km/h (0 Bft)
11.07.2024 03:03 24,1 °C 19,4 °C 68 % 94 % 1015,6 hPa 0,0 l/m² 0,0 km/h (0 Bft) W-SW 256 ° 0 min 0 W/m² 18,4 °C 19,4 °C 0,0 km/h (0 Bft)
11.07.2024 03:04 24,1 °C 19,4 °C 68 % 94 % 1015,6 hPa 0,0 l/m² 0,0 km/h (0 Bft) W-SW 256 ° 0 min 0 W/m² 18,4 °C 19,4 °C 0,0 km/h (0 Bft)
11.07.2024 03:05 24,0 °C 19,4 °C 68 % 94 % 1015,5 hPa 0,0 l/m² 0,0 km/h (0 Bft) W-SW 256 ° 0 min 0 W/m² 18,4 °C 19,4 °C 0,0 km/h (0 Bft)
11.07.2024 03:06 24,1 °C 19,4 °C 68 % 94 % 1015,5 hPa 0,0 l/m² 0,0 km/h (0 Bft) W-SW 256 ° 0 min 0 W/m² 18,4 °C 19,4 °C 0,0 km/h (0 Bft)
11.07.2024 03:07 24,1 °C 19,4 °C 68 % 94 % 1015,5 hPa 0,0 l/m² 0,0 km/h (0 Bft) W-SW 256 ° 0 min 0 W/m² 18,4 °C 19,4 °C 0,0 km/h (0 Bft)
11.07.2024 03:08 24,0 °C 19,4 °C 68 % 94 % 1015,5 hPa 0,0 l/m² 0,0 km/h (0 Bft) W-SW 256 ° 0 min 0 W/m² 18,4 °C 19,4 °C 0,0 km/h (0 Bft)
11.07.2024 03:09 24,1 °C 19,4 °C 68 % 94 % 1015,4 hPa 0,0 l/m² 0,0 km/h (0 Bft) W-SW 256 ° 0 min 0 W/m² 18,4 °C 19,4 °C 0,0 km/h (0 Bft)
11.07.2024 03:11 24,0 °C 19,4 °C 68 % 94 % 1015,4 hPa 0,0 l/m² 0,0 km/h (0 Bft) W-SW 256 ° 0 min 0 W/m² 18,4 °C 19,4 °C 0,0 km/h (0 Bft)
11.07.2024 03:12 24,0 °C 19,4 °C 68 % 94 % 1015,4 hPa 0,0 l/m² 0,0 km/h (0 Bft) W-SW 256 ° 0 min 0 W/m² 18,4 °C 19,4 °C 0,0 km/h (0 Bft)
11.07.2024 03:14 24,1 °C 19,4 °C 68 % 94 % 1015,4 hPa 0,0 l/m² 0,0 km/h (0 Bft) W-SW 256 ° 0 min 0 W/m² 18,4 °C 19,4 °C 0,0 km/h (0 Bft)
11.07.2024 03:16 24,0 °C 19,4 °C 68 % 94 % 1015,4 hPa 0,2 l/m² 0,0 km/h (0 Bft) W-SW 256 ° 0 min 0 W/m² 18,4 °C 19,4 °C 0,0 km/h (0 Bft)
11.07.2024 03:18 24,0 °C 19,4 °C 68 % 94 % 1015,4 hPa 0,0 l/m² 0,0 km/h (0 Bft) W-SW 256 ° 0 min 0 W/m² 18,4 °C 19,4 °C 0,0 km/h (0 Bft)
11.07.2024 03:20 24,0 °C 19,4 °C 68 % 94 % 1015,4 hPa 0,0 l/m² 0,0 km/h (0 Bft) W-SW 256 ° 0 min 0 W/m² 18,4 °C 19,4 °C 0,0 km/h (0 Bft)
11.07.2024 03:21 24,0 °C 19,4 °C 68 % 94 % 1015,3 hPa 0,0 l/m² 0,0 km/h (0 Bft) W-SW 256 ° 0 min 0 W/m² 18,4 °C 19,4 °C 0,0 km/h (0 Bft)
11.07.2024 03:22 24,1 °C 19,4 °C 68 % 94 % 1015,3 hPa 0,0 l/m² 0,0 km/h (0 Bft) W-SW 256 ° 0 min 0 W/m² 18,4 °C 19,4 °C 0,0 km/h (0 Bft)
11.07.2024 03:24 24,0 °C 19,4 °C 68 % 94 % 1015,3 hPa 0,0 l/m² 0,0 km/h (0 Bft) W-SW 256 ° 0 min 0 W/m² 18,4 °C 19,4 °C 0,0 km/h (0 Bft)
11.07.2024 03:26 24,1 °C 19,4 °C 68 % 94 % 1015,4 hPa 0,0 l/m² 0,0 km/h (0 Bft) W-SW 256 ° 0 min 0 W/m² 18,4 °C 19,4 °C 0,0 km/h (0 Bft)
11.07.2024 03:28 24,1 °C 19,3 °C 68 % 94 % 1015,4 hPa 0,0 l/m² 0,0 km/h (0 Bft) W-SW 256 ° 0 min 0 W/m² 18,3 °C 19,3 °C 0,0 km/h (0 Bft)
11.07.2024 03:30 24,1 °C 19,4 °C 68 % 94 % 1015,4 hPa 0,0 l/m² 0,0 km/h (0 Bft) W-SW 256 ° 0 min 0 W/m² 18,4 °C 19,4 °C 0,0 km/h (0 Bft)
11.07.2024 03:31 24,0 °C 19,3 °C 68 % 94 % 1015,4 hPa 0,0 l/m² 0,0 km/h (0 Bft) W-SW 256 ° 0 min 0 W/m² 18,3 °C 19,3 °C 0,0 km/h (0 Bft)
11.07.2024 03:32 24,1 °C 19,3 °C 68 % 94 % 1015,4 hPa 0,0 l/m² 0,0 km/h (0 Bft) W-SW 256 ° 0 min 0 W/m² 18,3 °C 19,3 °C 0,0 km/h (0 Bft)
11.07.2024 03:34 24,0 °C 19,3 °C 68 % 94 % 1015,4 hPa 0,0 l/m² 0,0 km/h (0 Bft) W-SW 256 ° 0 min 0 W/m² 18,3 °C 19,3 °C 0,0 km/h (0 Bft)
11.07.2024 03:36 24,1 °C 19,3 °C 67 % 94 % 1015,3 hPa 0,0 l/m² 0,0 km/h (0 Bft) W-SW 256 ° 0 min 0 W/m² 18,3 °C 19,3 °C 0,0 km/h (0 Bft)
11.07.2024 03:38 24,0 °C 19,3 °C 67 % 94 % 1015,3 hPa 0,0 l/m² 0,0 km/h (0 Bft) W-SW 256 ° 0 min 0 W/m² 18,3 °C 19,3 °C 0,0 km/h (0 Bft)
11.07.2024 03:40 24,1 °C 19,3 °C 67 % 94 % 1015,3 hPa 0,0 l/m² 0,0 km/h (0 Bft) W-SW 256 ° 0 min 0 W/m² 18,3 °C 19,3 °C 0,0 km/h (0 Bft)
11.07.2024 03:41 24,0 °C 19,3 °C 67 % 94 % 1015,3 hPa 0,0 l/m² 0,0 km/h (0 Bft) W-SW 256 ° 0 min 0 W/m² 18,3 °C 19,3 °C 0,0 km/h (0 Bft)
11.07.2024 03:42 24,0 °C 19,3 °C 67 % 94 % 1015,3 hPa 0,0 l/m² 0,0 km/h (0 Bft) W-SW 256 ° 0 min 0 W/m² 18,3 °C 19,3 °C 0,0 km/h (0 Bft)
11.07.2024 03:44 24,0 °C 19,3 °C 67 % 94 % 1015,3 hPa 0,0 l/m² 0,0 km/h (0 Bft) W-SW 256 ° 0 min 0 W/m² 18,3 °C 19,3 °C 0,0 km/h (0 Bft)
11.07.2024 03:46 24,0 °C 19,3 °C 67 % 94 % 1015,3 hPa 0,0 l/m² 0,0 km/h (0 Bft) W-SW 256 ° 0 min 0 W/m² 18,3 °C 19,3 °C 0,0 km/h (0 Bft)
11.07.2024 03:47 24,0 °C 19,3 °C 67 % 94 % 1015,3 hPa 0,0 l/m² 0,0 km/h (0 Bft) W-SW 256 ° 0 min 0 W/m² 18,3 °C 19,3 °C 0,0 km/h (0 Bft)
11.07.2024 03:49 24,0 °C 19,3 °C 67 % 94 % 1015,2 hPa 0,0 l/m² 0,0 km/h (0 Bft) W-SW 256 ° 0 min 0 W/m² 18,3 °C 19,3 °C 0,0 km/h (0 Bft)
11.07.2024 03:50 24,0 °C 19,3 °C 67 % 94 % 1015,1 hPa 0,0 l/m² 0,0 km/h (0 Bft) W-SW 256 ° 0 min 0 W/m² 18,3 °C 19,3 °C 0,0 km/h (0 Bft)
11.07.2024 03:52 24,0 °C 19,3 °C 67 % 94 % 1015,1 hPa 0,0 l/m² 0,0 km/h (0 Bft) W-SW 256 ° 0 min 0 W/m² 18,3 °C 19,3 °C 0,0 km/h (0 Bft)
11.07.2024 03:53 24,1 °C 19,3 °C 67 % 94 % 1015,0 hPa 0,0 l/m² 0,0 km/h (0 Bft) W-SW 256 ° 0 min 0 W/m² 18,3 °C 19,3 °C 0,0 km/h (0 Bft)
11.07.2024 03:55 24,1 °C 19,3 °C 67 % 94 % 1015,1 hPa 0,0 l/m² 0,0 km/h (0 Bft) W-SW 256 ° 0 min 0 W/m² 18,3 °C 19,3 °C 0,0 km/h (0 Bft)
11.07.2024 03:57 24,1 °C 19,3 °C 67 % 94 % 1015,1 hPa 0,0 l/m² 1,6 km/h (1 Bft) W-SW 256 ° 0 min 0 W/m² 18,3 °C 19,3 °C 4,8 km/h (1 Bft)
11.07.2024 03:59 24,1 °C 19,3 °C 67 % 94 % 1015,2 hPa 0,0 l/m² 3,9 km/h (1 Bft) SW 232 ° 0 min 0 W/m² 18,3 °C 19,3 °C 4,8 km/h (1 Bft)
11.07.2024 04:00 24,1 °C 19,3 °C 67 % 94 % 1015,3 hPa 0,0 l/m² 4,3 km/h (1 Bft) SW 220 ° 0 min 0 W/m² 18,3 °C 19,3 °C 4,8 km/h (1 Bft)
11.07.2024 04:02 24,0 °C 19,3 °C 67 % 94 % 1015,4 hPa 0,0 l/m² 4,7 km/h (1 Bft) S-SW 204 ° 0 min 0 W/m² 18,3 °C 19,3 °C 6,4 km/h (2 Bft)
11.07.2024 04:03 24,1 °C 19,3 °C 67 % 94 % 1015,3 hPa 0,0 l/m² 2,1 km/h (1 Bft) S-SW 205 ° 0 min 0 W/m² 18,3 °C 19,3 °C 3,2 km/h (1 Bft)
11.07.2024 04:05 24,1 °C 19,3 °C 67 % 94 % 1015,3 hPa 0,0 l/m² 0,7 km/h (0 Bft) S-SW 205 ° 0 min 0 W/m² 18,3 °C 19,3 °C 3,2 km/h (1 Bft)
11.07.2024 04:07 24,1 °C 19,3 °C 67 % 94 % 1015,2 hPa 0,0 l/m² 0,0 km/h (0 Bft) S-SW 205 ° 0 min 0 W/m² 18,3 °C 19,3 °C 0,0 km/h (0 Bft)
11.07.2024 04:09 24,1 °C 19,3 °C 67 % 94 % 1015,2 hPa 0,0 l/m² 0,0 km/h (0 Bft) S-SW 205 ° 0 min 0 W/m² 18,3 °C 19,3 °C 0,0 km/h (0 Bft)
11.07.2024 04:10 24,0 °C 19,3 °C 67 % 94 % 1015,2 hPa 0,0 l/m² 0,0 km/h (0 Bft) S-SW 205 ° 0 min 0 W/m² 18,3 °C 19,3 °C 0,0 km/h (0 Bft)
11.07.2024 04:12 24,1 °C 19,3 °C 67 % 94 % 1015,2 hPa 0,0 l/m² 0,0 km/h (0 Bft) S-SW 205 ° 0 min 0 W/m² 18,3 °C 19,3 °C 0,0 km/h (0 Bft)
11.07.2024 04:13 24,1 °C 19,3 °C 67 % 94 % 1015,2 hPa 0,0 l/m² 0,0 km/h (0 Bft) S-SW 205 ° 0 min 0 W/m² 18,3 °C 19,3 °C 0,0 km/h (0 Bft)
11.07.2024 04:15 24,1 °C 19,3 °C 67 % 94 % 1015,2 hPa 0,0 l/m² 0,0 km/h (0 Bft) S-SW 205 ° 0 min 0 W/m² 18,3 °C 19,3 °C 0,0 km/h (0 Bft)
11.07.2024 04:16 24,1 °C 19,2 °C 67 % 94 % 1015,2 hPa 0,0 l/m² 0,0 km/h (0 Bft) S-SW 205 ° 0 min 0 W/m² 18,2 °C 19,2 °C 0,0 km/h (0 Bft)
11.07.2024 04:18 24,1 °C 19,2 °C 67 % 94 % 1015,2 hPa 0,0 l/m² 0,0 km/h (0 Bft) S-SW 205 ° 0 min 0 W/m² 18,2 °C 19,2 °C 0,0 km/h (0 Bft)
11.07.2024 04:20 24,1 °C 19,2 °C 67 % 94 % 1015,3 hPa 0,0 l/m² 0,0 km/h (0 Bft) S-SW 205 ° 0 min 0 W/m² 18,2 °C 19,2 °C 0,0 km/h (0 Bft)
11.07.2024 04:21 24,0 °C 19,2 °C 67 % 94 % 1015,3 hPa 0,0 l/m² 0,0 km/h (0 Bft) S-SW 205 ° 0 min 0 W/m² 18,2 °C 19,2 °C 0,0 km/h (0 Bft)
11.07.2024 04:22 24,1 °C 19,2 °C 67 % 94 % 1015,3 hPa 0,0 l/m² 0,0 km/h (0 Bft) S-SW 205 ° 0 min 0 W/m² 18,2 °C 19,2 °C 0,0 km/h (0 Bft)
11.07.2024 04:24 24,1 °C 19,2 °C 67 % 94 % 1015,3 hPa 0,0 l/m² 0,0 km/h (0 Bft) S-SW 205 ° 0 min 0 W/m² 18,2 °C 19,2 °C 0,0 km/h (0 Bft)
11.07.2024 04:26 24,0 °C 19,2 °C 67 % 94 % 1015,2 hPa 0,0 l/m² 0,0 km/h (0 Bft) S-SW 205 ° 0 min 0 W/m² 18,2 °C 19,2 °C 0,0 km/h (0 Bft)
11.07.2024 04:28 24,1 °C 19,2 °C 67 % 94 % 1015,2 hPa 0,0 l/m² 0,0 km/h (0 Bft) S-SW 205 ° 0 min 0 W/m² 18,2 °C 19,2 °C 0,0 km/h (0 Bft)
11.07.2024 04:30 24,1 °C 19,2 °C 67 % 94 % 1015,2 hPa 0,0 l/m² 0,0 km/h (0 Bft) S-SW 205 ° 0 min 0 W/m² 18,2 °C 19,2 °C 0,0 km/h (0 Bft)
11.07.2024 04:31 24,1 °C 19,2 °C 67 % 94 % 1015,2 hPa 0,0 l/m² 0,0 km/h (0 Bft) S-SW 205 ° 0 min 0 W/m² 18,2 °C 19,2 °C 0,0 km/h (0 Bft)
11.07.2024 04:32 24,1 °C 19,2 °C 67 % 94 % 1015,3 hPa 0,0 l/m² 0,0 km/h (0 Bft) S-SW 205 ° 0 min 0 W/m² 18,2 °C 19,2 °C 0,0 km/h (0 Bft)
11.07.2024 04:34 24,1 °C 19,2 °C 67 % 94 % 1015,3 hPa 0,0 l/m² 0,0 km/h (0 Bft) S-SW 205 ° 0 min 0 W/m² 18,2 °C 19,2 °C 0,0 km/h (0 Bft)
11.07.2024 04:36 24,1 °C 19,2 °C 67 % 94 % 1015,2 hPa 0,0 l/m² 0,0 km/h (0 Bft) S-SW 205 ° 0 min 0 W/m² 18,2 °C 19,2 °C 0,0 km/h (0 Bft)
11.07.2024 04:38 24,1 °C 19,2 °C 67 % 94 % 1015,2 hPa 0,0 l/m² 0,0 km/h (0 Bft) S-SW 205 ° 0 min 0 W/m² 18,2 °C 19,2 °C 0,0 km/h (0 Bft)
11.07.2024 04:40 24,1 °C 19,1 °C 67 % 94 % 1015,2 hPa 0,0 l/m² 0,0 km/h (0 Bft) S-SW 205 ° 0 min 0 W/m² 18,1 °C 19,1 °C 0,0 km/h (0 Bft)
11.07.2024 04:41 24,1 °C 19,1 °C 67 % 94 % 1015,2 hPa 0,0 l/m² 0,0 km/h (0 Bft) S-SW 205 ° 0 min 0 W/m² 18,1 °C 19,1 °C 0,0 km/h (0 Bft)
11.07.2024 04:42 24,1 °C 19,1 °C 67 % 94 % 1015,3 hPa 0,0 l/m² 0,0 km/h (0 Bft) S-SW 205 ° 0 min 0 W/m² 18,1 °C 19,1 °C 0,0 km/h (0 Bft)
11.07.2024 04:44 24,1 °C 19,1 °C 67 % 94 % 1015,3 hPa 0,0 l/m² 0,0 km/h (0 Bft) S-SW 205 ° 0 min 0 W/m² 18,1 °C 19,1 °C 0,0 km/h (0 Bft)
11.07.2024 04:46 24,1 °C 19,1 °C 67 % 94 % 1015,3 hPa 0,0 l/m² 0,0 km/h (0 Bft) S-SW 205 ° 0 min 0 W/m² 18,1 °C 19,1 °C 0,0 km/h (0 Bft)
11.07.2024 04:48 24,1 °C 19,1 °C 67 % 94 % 1015,5 hPa 0,0 l/m² 0,0 km/h (0 Bft) S-SW 205 ° 0 min 0 W/m² 18,1 °C 19,1 °C 0,0 km/h (0 Bft)
11.07.2024 04:50 24,1 °C 19,1 °C 67 % 94 % 1015,5 hPa 0,0 l/m² 0,0 km/h (0 Bft) S-SW 205 ° 0 min 0 W/m² 18,1 °C 19,1 °C 0,0 km/h (0 Bft)
11.07.2024 04:51 24,1 °C 19,1 °C 67 % 94 % 1015,5 hPa 0,0 l/m² 0,0 km/h (0 Bft) S-SW 205 ° 0 min 0 W/m² 18,1 °C 19,1 °C 0,0 km/h (0 Bft)
11.07.2024 04:52 24,1 °C 19,1 °C 67 % 94 % 1015,5 hPa 0,0 l/m² 0,0 km/h (0 Bft) S-SW 205 ° 0 min 0 W/m² 18,1 °C 19,1 °C 0,0 km/h (0 Bft)
11.07.2024 04:54 24,1 °C 19,1 °C 67 % 94 % 1015,5 hPa 0,0 l/m² 0,0 km/h (0 Bft) S-SW 205 ° 0 min 0 W/m² 18,1 °C 19,1 °C 0,0 km/h (0 Bft)
11.07.2024 04:56 24,1 °C 19,1 °C 67 % 94 % 1015,5 hPa 0,0 l/m² 0,0 km/h (0 Bft) S-SW 205 ° 0 min 0 W/m² 18,1 °C 19,1 °C 0,0 km/h (0 Bft)
11.07.2024 04:58 24,1 °C 19,1 °C 67 % 94 % 1015,5 hPa 0,0 l/m² 0,0 km/h (0 Bft) S-SW 205 ° 0 min 0 W/m² 18,1 °C 19,1 °C 0,0 km/h (0 Bft)
11.07.2024 05:00 24,1 °C 19,1 °C 67 % 94 % 1015,5 hPa 0,0 l/m² 0,0 km/h (0 Bft) S-SW 205 ° 0 min 0 W/m² 18,1 °C 19,1 °C 0,0 km/h (0 Bft)
11.07.2024 05:01 24,1 °C 19,0 °C 67 % 94 % 1015,5 hPa 0,0 l/m² 0,0 km/h (0 Bft) S-SW 205 ° 0 min 0 W/m² 18,0 °C 19,0 °C 0,0 km/h (0 Bft)
11.07.2024 05:02 24,1 °C 19,0 °C 67 % 94 % 1015,5 hPa 0,0 l/m² 0,0 km/h (0 Bft) S-SW 205 ° 0 min 0 W/m² 18,0 °C 19,0 °C 0,0 km/h (0 Bft)
11.07.2024 05:04 24,1 °C 19,0 °C 67 % 94 % 1015,5 hPa 0,0 l/m² 0,0 km/h (0 Bft) S-SW 205 ° 0 min 0 W/m² 18,0 °C 19,0 °C 0,0 km/h (0 Bft)
11.07.2024 05:06 24,1 °C 19,0 °C 67 % 94 % 1015,4 hPa 0,0 l/m² 0,0 km/h (0 Bft) S-SW 205 ° 0 min 0 W/m² 18,0 °C 19,0 °C 0,0 km/h (0 Bft)
11.07.2024 05:08 24,1 °C 19,0 °C 67 % 94 % 1015,5 hPa 0,0 l/m² 0,0 km/h (0 Bft) S-SW 205 ° 0 min 0 W/m² 18,0 °C 19,0 °C 0,0 km/h (0 Bft)
11.07.2024 05:10 24,1 °C 18,9 °C 67 % 94 % 1015,4 hPa 0,0 l/m² 0,0 km/h (0 Bft) S-SW 205 ° 0 min 0 W/m² 17,9 °C 18,9 °C 0,0 km/h (0 Bft)
11.07.2024 05:11 24,1 °C 18,9 °C 67 % 94 % 1015,5 hPa 0,0 l/m² 0,0 km/h (0 Bft) S-SW 205 ° 0 min 0 W/m² 17,9 °C 18,9 °C 0,0 km/h (0 Bft)
11.07.2024 05:12 24,1 °C 18,9 °C 67 % 94 % 1015,4 hPa 0,0 l/m² 0,0 km/h (0 Bft) S-SW 205 ° 0 min 0 W/m² 17,9 °C 18,9 °C 0,0 km/h (0 Bft)
11.07.2024 05:14 24,1 °C 18,9 °C 67 % 94 % 1015,5 hPa 0,0 l/m² 0,0 km/h (0 Bft) S-SW 205 ° 0 min 0 W/m² 17,9 °C 18,9 °C 0,0 km/h (0 Bft)
11.07.2024 05:16 24,1 °C 18,9 °C 67 % 94 % 1015,5 hPa 0,0 l/m² 1,1 km/h (1 Bft) S-SW 205 ° 0 min 0 W/m² 17,9 °C 18,9 °C 3,2 km/h (1 Bft)
11.07.2024 05:18 24,1 °C 18,9 °C 67 % 94 % 1015,6 hPa 0,0 l/m² 0,2 km/h (0 Bft) S-SW 205 ° 0 min 0 W/m² 17,9 °C 18,9 °C 1,6 km/h (1 Bft)
11.07.2024 05:20 24,1 °C 18,9 °C 67 % 94 % 1015,6 hPa 0,0 l/m² 0,1 km/h (0 Bft) S-SW 205 ° 0 min 0 W/m² 17,9 °C 18,9 °C 1,6 km/h (1 Bft)
11.07.2024 05:21 24,1 °C 18,9 °C 67 % 94 % 1015,6 hPa 0,0 l/m² 0,0 km/h (0 Bft) S-SW 205 ° 0 min 0 W/m² 17,9 °C 18,9 °C 0,0 km/h (0 Bft)
11.07.2024 05:22 24,1 °C 18,9 °C 67 % 94 % 1015,6 hPa 0,0 l/m² 0,0 km/h (0 Bft) S-SW 205 ° 0 min 0 W/m² 17,9 °C 18,9 °C 0,0 km/h (0 Bft)
11.07.2024 05:25 24,1 °C 18,9 °C 67 % 94 % 1015,6 hPa 0,0 l/m² 0,0 km/h (0 Bft) S-SW 205 ° 0 min 0 W/m² 17,9 °C 18,9 °C 0,0 km/h (0 Bft)
11.07.2024 05:27 24,1 °C 18,9 °C 67 % 94 % 1015,7 hPa 0,0 l/m² 0,0 km/h (0 Bft) S-SW 205 ° 0 min 0 W/m² 17,9 °C 18,9 °C 0,0 km/h (0 Bft)
11.07.2024 05:29 24,1 °C 18,9 °C 67 % 94 % 1015,6 hPa 0,0 l/m² 0,0 km/h (0 Bft) S-SW 205 ° 0 min 0 W/m² 17,9 °C 18,9 °C 0,0 km/h (0 Bft)
11.07.2024 05:31 24,1 °C 18,8 °C 67 % 94 % 1015,7 hPa 0,0 l/m² 0,0 km/h (0 Bft) S-SW 205 ° 0 min 0 W/m² 17,8 °C 18,8 °C 0,0 km/h (0 Bft)
11.07.2024 05:32 24,1 °C 18,8 °C 67 % 94 % 1015,7 hPa 0,0 l/m² 0,0 km/h (0 Bft) S-SW 205 ° 0 min 0 W/m² 17,8 °C 18,8 °C 0,0 km/h (0 Bft)
11.07.2024 05:33 24,1 °C 18,8 °C 67 % 94 % 1015,7 hPa 0,0 l/m² 0,0 km/h (0 Bft) NW 304 ° 0 min 0 W/m² 17,8 °C 18,8 °C 0,0 km/h (0 Bft)
11.07.2024 05:35 24,1 °C 18,8 °C 67 % 94 % 1015,7 hPa 0,0 l/m² 0,4 km/h (0 Bft) NW 304 ° 0 min 0 W/m² 17,8 °C 18,8 °C 3,2 km/h (1 Bft)
11.07.2024 05:37 24,1 °C 18,8 °C 67 % 94 % 1015,8 hPa 0,0 l/m² 0,5 km/h (0 Bft) NW 304 ° 0 min 0 W/m² 17,8 °C 18,8 °C 1,6 km/h (1 Bft)
11.07.2024 05:39 24,1 °C 18,9 °C 67 % 94 % 1015,8 hPa 0,0 l/m² 0,1 km/h (0 Bft) NW 304 ° 0 min 0 W/m² 17,9 °C 18,9 °C 1,6 km/h (1 Bft)
11.07.2024 05:41 24,1 °C 18,8 °C 67 % 94 % 1015,8 hPa 0,0 l/m² 0,0 km/h (0 Bft) NW 304 ° 0 min 0 W/m² 17,8 °C 18,8 °C 0,0 km/h (0 Bft)
11.07.2024 05:42 24,1 °C 18,9 °C 67 % 94 % 1015,9 hPa 0,0 l/m² 0,0 km/h (0 Bft) NW 304 ° 0 min 0 W/m² 17,9 °C 18,9 °C 0,0 km/h (0 Bft)
11.07.2024 05:43 24,1 °C 18,9 °C 67 % 94 % 1015,8 hPa 0,0 l/m² 0,0 km/h (0 Bft) NW 304 ° 0 min 0 W/m² 17,9 °C 18,9 °C 0,0 km/h (0 Bft)
11.07.2024 05:45 24,1 °C 18,9 °C 67 % 94 % 1015,8 hPa 0,0 l/m² 0,0 km/h (0 Bft) NW 304 ° 0 min 5 W/m² 17,9 °C 18,9 °C 0,0 km/h (0 Bft)
11.07.2024 05:47 24,1 °C 18,9 °C 67 % 94 % 1015,9 hPa 0,0 l/m² 0,0 km/h (0 Bft) NW 304 ° 0 min 5 W/m² 17,9 °C 18,9 °C 0,0 km/h (0 Bft)
11.07.2024 05:49 24,1 °C 18,9 °C 67 % 94 % 1015,8 hPa 0,0 l/m² 0,0 km/h (0 Bft) NW 304 ° 0 min 7 W/m² 17,9 °C 18,9 °C 0,0 km/h (0 Bft)
11.07.2024 05:51 24,1 °C 18,9 °C 67 % 94 % 1015,8 hPa 0,0 l/m² 0,0 km/h (0 Bft) NW 304 ° 0 min 9 W/m² 17,9 °C 18,9 °C 0,0 km/h (0 Bft)
11.07.2024 05:52 24,1 °C 18,9 °C 67 % 94 % 1015,8 hPa 0,0 l/m² 0,0 km/h (0 Bft) NW 304 ° 0 min 11 W/m² 17,9 °C 18,9 °C 0,0 km/h (0 Bft)
11.07.2024 05:53 24,1 °C 18,9 °C 67 % 94 % 1015,8 hPa 0,0 l/m² 0,0 km/h (0 Bft) NW 304 ° 0 min 11 W/m² 17,9 °C 18,9 °C 0,0 km/h (0 Bft)
11.07.2024 05:55 24,1 °C 18,9 °C 67 % 94 % 1015,8 hPa 0,0 l/m² 0,0 km/h (0 Bft) NW 304 ° 0 min 14 W/m² 17,9 °C 18,9 °C 0,0 km/h (0 Bft)
11.07.2024 05:57 24,0 °C 18,9 °C 67 % 94 % 1015,7 hPa 0,0 l/m² 0,0 km/h (0 Bft) NW 304 ° 0 min 14 W/m² 17,9 °C 18,9 °C 0,0 km/h (0 Bft)
11.07.2024 05:59 24,1 °C 19,0 °C 67 % 94 % 1015,8 hPa 0,0 l/m² 0,0 km/h (0 Bft) NW 304 ° 0 min 14 W/m² 18,0 °C 19,0 °C 1,6 km/h (1 Bft)
11.07.2024 06:00 24,0 °C 19,0 °C 67 % 94 % 1015,7 hPa 0,0 l/m² 0,0 km/h (0 Bft) NW 304 ° 0 min 14 W/m² 18,0 °C 19,0 °C 0,0 km/h (0 Bft)
11.07.2024 06:01 24,1 °C 19,0 °C 67 % 94 % 1015,8 hPa 0,0 l/m² 0,0 km/h (0 Bft) NW 304 ° 0 min 14 W/m² 18,0 °C 19,0 °C 0,0 km/h (0 Bft)
11.07.2024 06:02 24,1 °C 19,0 °C 67 % 94 % 1015,8 hPa 0,0 l/m² 0,0 km/h (0 Bft) NW 304 ° 0 min 16 W/m² 18,0 °C 19,0 °C 0,0 km/h (0 Bft)
11.07.2024 06:04 24,1 °C 19,0 °C 67 % 94 % 1015,7 hPa 0,0 l/m² 0,0 km/h (0 Bft) NW 304 ° 0 min 16 W/m² 18,0 °C 19,0 °C 0,0 km/h (0 Bft)
11.07.2024 06:06 24,1 °C 19,0 °C 67 % 94 % 1015,7 hPa 0,0 l/m² 0,0 km/h (0 Bft) NW 304 ° 0 min 18 W/m² 18,0 °C 19,0 °C 0,0 km/h (0 Bft)
11.07.2024 06:08 24,0 °C 19,1 °C 67 % 94 % 1015,7 hPa 0,0 l/m² 0,0 km/h (0 Bft) NW 304 ° 0 min 21 W/m² 18,1 °C 19,1 °C 0,0 km/h (0 Bft)
11.07.2024 06:10 24,1 °C 19,0 °C 67 % 94 % 1015,7 hPa 0,0 l/m² 0,0 km/h (0 Bft) NW 304 ° 0 min 23 W/m² 18,0 °C 19,0 °C 0,0 km/h (0 Bft)
11.07.2024 06:11 24,0 °C 19,0 °C 67 % 94 % 1015,7 hPa 0,0 l/m² 0,0 km/h (0 Bft) NW 304 ° 0 min 25 W/m² 18,0 °C 19,0 °C 0,0 km/h (0 Bft)
11.07.2024 06:13 24,0 °C 19,0 °C 67 % 94 % 1015,7 hPa 0,0 l/m² 0,0 km/h (0 Bft) NW 304 ° 0 min 26 W/m² 18,0 °C 19,0 °C 0,0 km/h (0 Bft)
11.07.2024 06:15 24,1 °C 19,0 °C 67 % 94 % 1015,7 hPa 0,0 l/m² 0,0 km/h (0 Bft) NW 304 ° 0 min 35 W/m² 18,0 °C 19,0 °C 0,0 km/h (0 Bft)
11.07.2024 06:17 24,0 °C 19,0 °C 67 % 94 % 1015,7 hPa 0,0 l/m² 0,0 km/h (0 Bft) S-SW 205 ° 0 min 39 W/m² 18,0 °C 19,0 °C 0,0 km/h (0 Bft)
11.07.2024 06:19 24,1 °C 19,0 °C 67 % 94 % 1015,7 hPa 0,0 l/m² 0,0 km/h (0 Bft) S-SW 205 ° 2 min 56 W/m² 18,0 °C 19,0 °C 0,0 km/h (0 Bft)
11.07.2024 06:21 24,0 °C 19,0 °C 67 % 94 % 1015,7 hPa 0,0 l/m² 0,0 km/h (0 Bft) S-SW 205 ° 2 min 65 W/m² 18,0 °C 19,0 °C 0,0 km/h (0 Bft)
11.07.2024 06:23 24,0 °C 19,0 °C 67 % 94 % 1015,7 hPa 0,0 l/m² 0,0 km/h (0 Bft) S-SW 205 ° 2 min 70 W/m² 18,0 °C 19,0 °C 0,0 km/h (0 Bft)
11.07.2024 06:25 24,0 °C 19,0 °C 67 % 94 % 1015,6 hPa 0,0 l/m² 0,0 km/h (0 Bft) S-SW 205 ° 2 min 77 W/m² 18,0 °C 19,0 °C 0,0 km/h (0 Bft)
11.07.2024 06:27 24,1 °C 19,1 °C 67 % 94 % 1015,7 hPa 0,0 l/m² 0,0 km/h (0 Bft) S-SW 205 ° 2 min 72 W/m² 18,1 °C 19,1 °C 0,0 km/h (0 Bft)
11.07.2024 06:29 24,0 °C 19,1 °C 67 % 94 % 1015,7 hPa 0,0 l/m² 0,0 km/h (0 Bft) S-SW 205 ° 2 min 63 W/m² 18,1 °C 19,1 °C 0,0 km/h (0 Bft)
11.07.2024 06:31 24,1 °C 19,1 °C 67 % 94 % 1015,7 hPa 0,0 l/m² 0,0 km/h (0 Bft) S-SW 205 ° 2 min 62 W/m² 18,1 °C 19,1 °C 0,0 km/h (0 Bft)
11.07.2024 06:33 24,0 °C 19,1 °C 67 % 94 % 1015,7 hPa 0,0 l/m² 0,0 km/h (0 Bft) S-SW 205 ° 2 min 67 W/m² 18,1 °C 19,1 °C 0,0 km/h (0 Bft)
11.07.2024 06:35 24,0 °C 19,2 °C 67 % 94 % 1015,7 hPa 0,0 l/m² 0,0 km/h (0 Bft) S-SW 205 ° 2 min 76 W/m² 18,2 °C 19,2 °C 0,0 km/h (0 Bft)
11.07.2024 06:37 24,0 °C 19,2 °C 67 % 94 % 1015,8 hPa 0,0 l/m² 0,0 km/h (0 Bft) S-SW 205 ° 2 min 84 W/m² 18,2 °C 19,2 °C 0,0 km/h (0 Bft)
11.07.2024 06:39 24,0 °C 19,2 °C 67 % 94 % 1015,8 hPa 0,0 l/m² 0,0 km/h (0 Bft) S-SW 205 ° 2 min 84 W/m² 18,2 °C 19,2 °C 0,0 km/h (0 Bft)
11.07.2024 06:41 24,0 °C 19,2 °C 67 % 94 % 1015,9 hPa 0,0 l/m² 0,0 km/h (0 Bft) S-SW 205 ° 2 min 77 W/m² 18,2 °C 19,2 °C 0,0 km/h (0 Bft)
11.07.2024 06:43 24,0 °C 19,3 °C 67 % 94 % 1015,9 hPa 0,0 l/m² 0,0 km/h (0 Bft) S-SW 205 ° 2 min 69 W/m² 18,3 °C 19,3 °C 0,0 km/h (0 Bft)
11.07.2024 06:45 24,0 °C 19,3 °C 67 % 95 % 1016,0 hPa 0,0 l/m² 0,0 km/h (0 Bft) S-SW 205 ° 2 min 65 W/m² 18,5 °C 19,3 °C 0,0 km/h (0 Bft)
11.07.2024 06:47 24,0 °C 19,3 °C 67 % 95 % 1015,9 hPa 0,0 l/m² 0,0 km/h (0 Bft) S-SW 205 ° 2 min 60 W/m² 18,5 °C 19,3 °C 0,0 km/h (0 Bft)
11.07.2024 06:48 24,0 °C 19,3 °C 67 % 95 % 1015,9 hPa 0,0 l/m² 0,0 km/h (0 Bft) S-SW 205 ° 1 min 58 W/m² 18,5 °C 19,3 °C 0,0 km/h (0 Bft)
11.07.2024 06:50 24,0 °C 19,4 °C 67 % 95 % 1016,0 hPa 0,0 l/m² 0,0 km/h (0 Bft) S-SW 205 ° 2 min 56 W/m² 18,6 °C 19,4 °C 0,0 km/h (0 Bft)
11.07.2024 06:52 24,0 °C 19,4 °C 67 % 95 % 1015,9 hPa 0,0 l/m² 0,0 km/h (0 Bft) S-SW 205 ° 2 min 54 W/m² 18,6 °C 19,4 °C 0,0 km/h (0 Bft)
11.07.2024 06:54 24,0 °C 19,4 °C 67 % 95 % 1015,9 hPa 0,0 l/m² 0,0 km/h (0 Bft) S-SW 205 ° 0 min 51 W/m² 18,6 °C 19,4 °C 0,0 km/h (0 Bft)
11.07.2024 06:56 24,0 °C 19,5 °C 67 % 95 % 1016,0 hPa 0,0 l/m² 0,0 km/h (0 Bft) S-SW 205 ° 2 min 54 W/m² 18,7 °C 19,5 °C 0,0 km/h (0 Bft)
11.07.2024 06:57 24,0 °C 19,5 °C 67 % 95 % 1016,0 hPa 0,0 l/m² 0,0 km/h (0 Bft) S-SW 205 ° 1 min 56 W/m² 18,7 °C 19,5 °C 0,0 km/h (0 Bft)
11.07.2024 07:00 24,0 °C 19,6 °C 67 % 95 % 1015,9 hPa 0,0 l/m² 0,0 km/h (0 Bft) S-SW 205 ° 3 min 77 W/m² 18,8 °C 19,6 °C 1,6 km/h (1 Bft)
11.07.2024 07:02 24,0 °C 19,6 °C 67 % 95 % 1016,0 hPa 0,0 l/m² 0,3 km/h (0 Bft) S-SW 205 ° 2 min 90 W/m² 18,8 °C 19,6 °C 1,6 km/h (1 Bft)
11.07.2024 07:04 24,1 °C 19,7 °C 67 % 95 % 1016,0 hPa 0,0 l/m² 0,0 km/h (0 Bft) S-SW 205 ° 2 min 114 W/m² 18,9 °C 19,7 °C 0,0 km/h (0 Bft)
11.07.2024 07:06 24,0 °C 19,7 °C 67 % 95 % 1016,0 hPa 0,0 l/m² 0,0 km/h (0 Bft) S-SW 205 ° 2 min 207 W/m² 18,9 °C 19,7 °C 0,0 km/h (0 Bft)
11.07.2024 07:07 24,0 °C 19,7 °C 67 % 95 % 1015,9 hPa 0,0 l/m² 0,0 km/h (0 Bft) S-SW 205 ° 1 min 109 W/m² 18,9 °C 19,7 °C 0,0 km/h (0 Bft)
11.07.2024 07:08 24,0 °C 19,7 °C 67 % 95 % 1015,9 hPa 0,0 l/m² 0,5 km/h (0 Bft) S-SW 205 ° 1 min 109 W/m² 18,9 °C 19,7 °C 1,6 km/h (1 Bft)
11.07.2024 07:09 24,0 °C 19,8 °C 67 % 95 % 1015,9 hPa 0,0 l/m² 0,3 km/h (0 Bft) S-SW 205 ° 1 min 114 W/m² 19,0 °C 19,8 °C 3,2 km/h (1 Bft)
11.07.2024 07:11 24,0 °C 19,8 °C 67 % 95 % 1016,0 hPa 0,0 l/m² 0,2 km/h (0 Bft) S-SW 205 ° 2 min 98 W/m² 19,0 °C 19,8 °C 1,6 km/h (1 Bft)
11.07.2024 07:13 24,0 °C 19,8 °C 67 % 95 % 1015,9 hPa 0,0 l/m² 0,0 km/h (0 Bft) S-SW 205 ° 2 min 77 W/m² 19,0 °C 19,8 °C 0,0 km/h (0 Bft)
11.07.2024 07:15 24,0 °C 19,8 °C 67 % 95 % 1015,9 hPa 0,0 l/m² 0,0 km/h (0 Bft) S-SW 205 ° 2 min 74 W/m² 19,0 °C 19,8 °C 0,0 km/h (0 Bft)
11.07.2024 07:17 24,0 °C 19,9 °C 67 % 95 % 1015,9 hPa 0,0 l/m² 0,0 km/h (0 Bft) S-SW 205 ° 2 min 76 W/m² 19,1 °C 19,9 °C 0,0 km/h (0 Bft)
11.07.2024 07:19 24,0 °C 19,9 °C 67 % 95 % 1015,9 hPa 0,0 l/m² 0,0 km/h (0 Bft) S-SW 205 ° 2 min 84 W/m² 19,1 °C 19,9 °C 0,0 km/h (0 Bft)
11.07.2024 07:21 24,0 °C 19,9 °C 67 % 95 % 1015,9 hPa 0,0 l/m² 0,0 km/h (0 Bft) S-SW 205 ° 2 min 100 W/m² 19,1 °C 19,9 °C 0,0 km/h (0 Bft)
11.07.2024 07:23 24,0 °C 19,9 °C 67 % 95 % 1015,9 hPa 0,0 l/m² 0,0 km/h (0 Bft) S-SW 205 ° 2 min 111 W/m² 19,1 °C 19,9 °C 0,0 km/h (0 Bft)
11.07.2024 07:25 24,0 °C 19,9 °C 67 % 95 % 1015,9 hPa 0,0 l/m² 0,0 km/h (0 Bft) S-SW 205 ° 2 min 171 W/m² 19,1 °C 19,9 °C 0,0 km/h (0 Bft)
11.07.2024 07:26 24,0 °C 19,9 °C 67 % 95 % 1015,8 hPa 0,0 l/m² 0,0 km/h (0 Bft) S-SW 205 ° 1 min 128 W/m² 19,1 °C 19,9 °C 0,0 km/h (0 Bft)
11.07.2024 07:27 24,0 °C 19,9 °C 67 % 95 % 1015,8 hPa 0,0 l/m² 0,0 km/h (0 Bft) S-SW 205 ° 1 min 104 W/m² 19,1 °C 19,9 °C 0,0 km/h (0 Bft)
11.07.2024 07:29 24,0 °C 19,9 °C 67 % 95 % 1015,8 hPa 0,0 l/m² 0,0 km/h (0 Bft) S-SW 205 ° 2 min 90 W/m² 19,1 °C 19,9 °C 0,0 km/h (0 Bft)
11.07.2024 07:31 24,0 °C 19,9 °C 67 % 95 % 1015,9 hPa 0,0 l/m² 0,0 km/h (0 Bft) S-SW 205 ° 2 min 83 W/m² 19,1 °C 19,9 °C 0,0 km/h (0 Bft)
11.07.2024 07:33 24,0 °C 20,0 °C 67 % 95 % 1015,8 hPa 0,0 l/m² 0,0 km/h (0 Bft) S-SW 205 ° 2 min 107 W/m² 19,2 °C 20,0 °C 0,0 km/h (0 Bft)
11.07.2024 07:35 24,0 °C 20,0 °C 67 % 95 % 1015,9 hPa 0,0 l/m² 0,0 km/h (0 Bft) S-SW 205 ° 2 min 229 W/m² 19,2 °C 20,0 °C 0,0 km/h (0 Bft)
11.07.2024 07:37 24,0 °C 20,1 °C 67 % 95 % 1015,9 hPa 0,0 l/m² 0,0 km/h (0 Bft) S-SW 205 ° 2 min 258 W/m² 19,3 °C 20,1 °C 0,0 km/h (0 Bft)
11.07.2024 07:39 24,0 °C 20,1 °C 67 % 95 % 1015,9 hPa 0,0 l/m² 0,0 km/h (0 Bft) S-SW 205 ° 2 min 162 W/m² 19,3 °C 20,1 °C 0,0 km/h (0 Bft)
11.07.2024 07:41 24,0 °C 20,1 °C 67 % 95 % 1016,0 hPa 0,0 l/m² 0,5 km/h (0 Bft) S-SW 201 ° 2 min 271 W/m² 19,3 °C 20,1 °C 3,2 km/h (1 Bft)
11.07.2024 07:43 24,0 °C 20,2 °C 68 % 95 % 1016,0 hPa 0,0 l/m² 0,0 km/h (0 Bft) S-SW 201 ° 2 min 216 W/m² 19,4 °C 20,2 °C 0,0 km/h (0 Bft)
11.07.2024 07:45 24,0 °C 20,2 °C 67 % 95 % 1016,0 hPa 0,0 l/m² 0,0 km/h (0 Bft) S-SW 201 ° 2 min 158 W/m² 19,4 °C 20,2 °C 0,0 km/h (0 Bft)
11.07.2024 07:47 24,0 °C 20,2 °C 68 % 95 % 1015,9 hPa 0,0 l/m² 0,0 km/h (0 Bft) S-SW 201 ° 2 min 148 W/m² 19,4 °C 20,2 °C 0,0 km/h (0 Bft)
11.07.2024 07:49 24,0 °C 20,3 °C 68 % 95 % 1015,9 hPa 0,0 l/m² 0,0 km/h (0 Bft) S-SW 201 ° 2 min 125 W/m² 19,5 °C 20,3 °C 0,0 km/h (0 Bft)
11.07.2024 07:51 24,0 °C 20,3 °C 68 % 95 % 1016,0 hPa 0,0 l/m² 0,0 km/h (0 Bft) S-SW 201 ° 2 min 113 W/m² 19,5 °C 20,3 °C 0,0 km/h (0 Bft)
11.07.2024 07:53 24,0 °C 20,3 °C 68 % 95 % 1016,1 hPa 0,0 l/m² 0,0 km/h (0 Bft) S-SW 201 ° 2 min 102 W/m² 19,5 °C 20,3 °C 1,6 km/h (1 Bft)
11.07.2024 07:55 24,0 °C 20,3 °C 68 % 95 % 1015,9 hPa 0,0 l/m² 0,0 km/h (0 Bft) S-SW 201 ° 2 min 97 W/m² 19,5 °C 20,3 °C 0,0 km/h (0 Bft)
11.07.2024 07:57 24,1 °C 20,3 °C 68 % 95 % 1016,0 hPa 0,0 l/m² 0,0 km/h (0 Bft) S-SW 201 ° 2 min 98 W/m² 19,5 °C 20,3 °C 0,0 km/h (0 Bft)
11.07.2024 07:59 24,1 °C 20,3 °C 68 % 95 % 1015,9 hPa 0,0 l/m² 0,0 km/h (0 Bft) S-SW 201 ° 2 min 185 W/m² 19,5 °C 20,3 °C 0,0 km/h (0 Bft)
11.07.2024 08:01 24,0 °C 20,3 °C 68 % 95 % 1015,9 hPa 0,0 l/m² 0,0 km/h (0 Bft) S-SW 201 ° 2 min 127 W/m² 19,5 °C 20,3 °C 0,0 km/h (0 Bft)
11.07.2024 08:03 24,1 °C 20,3 °C 68 % 95 % 1016,1 hPa 0,0 l/m² 0,0 km/h (0 Bft) S-SW 201 ° 2 min 188 W/m² 19,5 °C 20,3 °C 0,0 km/h (0 Bft)
11.07.2024 08:05 24,1 °C 20,3 °C 68 % 95 % 1016,1 hPa 0,0 l/m² 0,0 km/h (0 Bft) S-SW 201 ° 2 min 116 W/m² 19,5 °C 20,3 °C 0,0 km/h (0 Bft)
11.07.2024 08:07 24,1 °C 20,3 °C 68 % 95 % 1016,2 hPa 0,0 l/m² 1,0 km/h (0 Bft) S-SW 201 ° 2 min 107 W/m² 19,5 °C 20,3 °C 3,2 km/h (1 Bft)
11.07.2024 08:09 24,1 °C 20,3 °C 68 % 94 % 1016,2 hPa 0,0 l/m² 2,4 km/h (1 Bft) S-SW 201 ° 2 min 121 W/m² 19,3 °C 20,3 °C 4,8 km/h (1 Bft)
11.07.2024 08:11 24,1 °C 20,3 °C 68 % 95 % 1016,2 hPa 0,0 l/m² 3,4 km/h (1 Bft) SW 219 ° 2 min 104 W/m² 19,5 °C 20,3 °C 6,4 km/h (2 Bft)
11.07.2024 08:13 24,1 °C 20,3 °C 68 % 94 % 1016,4 hPa 0,0 l/m² 3,6 km/h (1 Bft) SW 220 ° 2 min 116 W/m² 19,3 °C 20,3 °C 6,4 km/h (2 Bft)
11.07.2024 08:15 24,1 °C 20,3 °C 68 % 94 % 1016,3 hPa 0,0 l/m² 2,5 km/h (1 Bft) SW 220 ° 2 min 90 W/m² 19,3 °C 20,3 °C 4,8 km/h (1 Bft)
11.07.2024 08:17 24,1 °C 20,4 °C 68 % 94 % 1016,4 hPa 0,0 l/m² 1,4 km/h (1 Bft) SW 220 ° 2 min 241 W/m² 19,4 °C 20,4 °C 3,2 km/h (1 Bft)
11.07.2024 08:19 24,1 °C 20,4 °C 68 % 95 % 1016,4 hPa 0,0 l/m² 0,9 km/h (0 Bft) SW 220 ° 2 min 292 W/m² 19,6 °C 20,4 °C 3,2 km/h (1 Bft)
11.07.2024 08:21 24,1 °C 20,4 °C 68 % 95 % 1016,4 hPa 0,0 l/m² 0,0 km/h (0 Bft) SW 220 ° 2 min 348 W/m² 19,6 °C 20,4 °C 0,0 km/h (0 Bft)
11.07.2024 08:23 24,1 °C 20,4 °C 68 % 95 % 1016,4 hPa 0,0 l/m² 0,2 km/h (0 Bft) SW 220 ° 2 min 376 W/m² 19,6 °C 20,4 °C 3,2 km/h (1 Bft)
11.07.2024 08:25 24,1 °C 20,6 °C 68 % 95 % 1016,3 hPa 0,0 l/m² 2,7 km/h (1 Bft) SW 220 ° 2 min 413 W/m² 19,8 °C 20,6 °C 4,8 km/h (1 Bft)
11.07.2024 08:27 24,2 °C 20,6 °C 68 % 95 % 1016,2 hPa 0,0 l/m² 0,0 km/h (0 Bft) SW 220 ° 2 min 403 W/m² 19,8 °C 20,6 °C 0,0 km/h (0 Bft)
11.07.2024 08:29 24,2 °C 20,7 °C 68 % 95 % 1016,3 hPa 0,0 l/m² 0,0 km/h (0 Bft) SW 220 ° 2 min 403 W/m² 19,9 °C 20,7 °C 0,0 km/h (0 Bft)
11.07.2024 08:31 24,2 °C 20,8 °C 68 % 95 % 1016,4 hPa 0,0 l/m² 0,0 km/h (0 Bft) SW 220 ° 2 min 424 W/m² 20,0 °C 20,8 °C 0,0 km/h (0 Bft)
11.07.2024 08:33 24,2 °C 20,8 °C 68 % 95 % 1016,4 hPa 0,0 l/m² 0,0 km/h (0 Bft) SW 220 ° 2 min 439 W/m² 20,0 °C 20,8 °C 1,6 km/h (1 Bft)
11.07.2024 08:35 24,2 °C 21,0 °C 68 % 95 % 1016,4 hPa 0,0 l/m² 0,0 km/h (0 Bft) SW 220 ° 2 min 534 W/m² 20,2 °C 21,0 °C 1,6 km/h (1 Bft)
11.07.2024 08:37 24,2 °C 21,1 °C 68 % 95 % 1016,4 hPa 0,0 l/m² 1,0 km/h (0 Bft) SW 220 ° 2 min 401 W/m² 20,3 °C 21,1 °C 3,2 km/h (1 Bft)
11.07.2024 08:39 24,2 °C 21,2 °C 68 % 95 % 1016,4 hPa 0,0 l/m² 1,0 km/h (0 Bft) SW 220 ° 2 min 434 W/m² 20,4 °C 21,2 °C 3,2 km/h (1 Bft)
11.07.2024 08:41 24,2 °C 21,3 °C 68 % 95 % 1016,5 hPa 0,0 l/m² 0,8 km/h (0 Bft) W-SW 258 ° 2 min 262 W/m² 20,5 °C 21,3 °C 3,2 km/h (1 Bft)
11.07.2024 08:43 24,2 °C 21,4 °C 68 % 95 % 1016,4 hPa 0,0 l/m² 1,2 km/h (1 Bft) W 267 ° 2 min 229 W/m² 20,6 °C 21,4 °C 4,8 km/h (1 Bft)
11.07.2024 08:45 24,2 °C 21,4 °C 68 % 95 % 1016,4 hPa 0,0 l/m² 2,2 km/h (1 Bft) W 265 ° 2 min 216 W/m² 20,6 °C 21,4 °C 4,8 km/h (1 Bft)
11.07.2024 08:47 24,2 °C 21,5 °C 68 % 94 % 1016,5 hPa 0,0 l/m² 4,2 km/h (1 Bft) W-NW 286 ° 2 min 250 W/m² 20,5 °C 21,5 °C 6,4 km/h (2 Bft)
11.07.2024 08:49 24,2 °C 21,6 °C 68 % 94 % 1016,4 hPa 0,0 l/m² 2,4 km/h (1 Bft) W-NW 286 ° 2 min 287 W/m² 20,6 °C 21,6 °C 6,4 km/h (2 Bft)
11.07.2024 08:51 24,2 °C 21,6 °C 68 % 94 % 1016,5 hPa 0,0 l/m² 2,0 km/h (1 Bft) W-SW 242 ° 2 min 220 W/m² 20,6 °C 21,6 °C 6,4 km/h (2 Bft)
11.07.2024 08:53 24,2 °C 21,7 °C 68 % 94 % 1016,4 hPa 0,0 l/m² 4,8 km/h (1 Bft) W-SW 254 ° 2 min 200 W/m² 20,7 °C 21,7 °C 9,7 km/h (2 Bft)
11.07.2024 08:55 24,2 °C 21,7 °C 68 % 94 % 1016,4 hPa 0,0 l/m² 3,5 km/h (1 Bft) W 271 ° 2 min 197 W/m² 20,7 °C 21,7 °C 9,7 km/h (2 Bft)
11.07.2024 08:57 24,2 °C 21,7 °C 68 % 93 % 1016,5 hPa 0,0 l/m² 4,3 km/h (1 Bft) W 276 ° 2 min 213 W/m² 20,5 °C 21,7 °C 11,3 km/h (2 Bft)
11.07.2024 08:59 24,2 °C 21,6 °C 68 % 93 % 1016,5 hPa 0,0 l/m² 2,4 km/h (1 Bft) W 273 ° 2 min 234 W/m² 20,4 °C 21,6 °C 4,8 km/h (1 Bft)
11.07.2024 09:01 24,2 °C 21,7 °C 68 % 93 % 1016,5 hPa 0,0 l/m² 0,0 km/h (0 Bft) W 273 ° 2 min 304 W/m² 20,5 °C 21,7 °C 1,6 km/h (1 Bft)
11.07.2024 09:03 24,2 °C 21,7 °C 68 % 93 % 1016,4 hPa 0,0 l/m² 0,3 km/h (0 Bft) W 273 ° 2 min 378 W/m² 20,5 °C 21,7 °C 1,6 km/h (1 Bft)
11.07.2024 09:05 24,2 °C 21,8 °C 68 % 93 % 1016,6 hPa 0,0 l/m² 2,2 km/h (1 Bft) W-SW 254 ° 2 min 664 W/m² 20,6 °C 21,8 °C 6,4 km/h (2 Bft)
11.07.2024 09:07 24,2 °C 21,8 °C 68 % 93 % 1016,6 hPa 0,0 l/m² 3,7 km/h (1 Bft) W 271 ° 2 min 374 W/m² 20,6 °C 21,8 °C 9,7 km/h (2 Bft)
11.07.2024 09:09 24,2 °C 21,9 °C 68 % 92 % 1016,7 hPa 0,0 l/m² 4,2 km/h (1 Bft) W 276 ° 2 min 278 W/m² 20,5 °C 21,9 °C 9,7 km/h (2 Bft)
11.07.2024 09:11 24,2 °C 21,9 °C 68 % 92 % 1016,6 hPa 0,0 l/m² 2,8 km/h (1 Bft) W 276 ° 2 min 265 W/m² 20,5 °C 21,9 °C 6,4 km/h (2 Bft)
11.07.2024 09:13 24,2 °C 21,9 °C 68 % 91 % 1016,6 hPa 0,0 l/m² 5,3 km/h (1 Bft) W-NW 290 ° 2 min 257 W/m² 20,4 °C 21,9 °C 12,9 km/h (3 Bft)
11.07.2024 09:15 24,2 °C 21,9 °C 68 % 91 % 1016,6 hPa 0,0 l/m² 5,1 km/h (1 Bft) W-NW 284 ° 2 min 246 W/m² 20,4 °C 21,9 °C 9,7 km/h (2 Bft)
11.07.2024 09:17 24,2 °C 22,0 °C 68 % 90 % 1016,7 hPa 0,0 l/m² 3,8 km/h (1 Bft) W-NW 288 ° 2 min 258 W/m² 20,3 °C 22,0 °C 9,7 km/h (2 Bft)
11.07.2024 09:19 24,2 °C 22,1 °C 68 % 90 % 1016,6 hPa 0,0 l/m² 3,7 km/h (1 Bft) W-NW 298 ° 2 min 262 W/m² 20,4 °C 22,1 °C 8,0 km/h (2 Bft)
11.07.2024 09:21 24,2 °C 22,1 °C 68 % 89 % 1016,5 hPa 0,0 l/m² 3,2 km/h (1 Bft) W-NW 298 ° 2 min 338 W/m² 20,2 °C 22,1 °C 6,4 km/h (2 Bft)
11.07.2024 09:23 24,2 °C 22,2 °C 68 % 89 % 1016,6 hPa 0,0 l/m² 4,7 km/h (1 Bft) W-NW 287 ° 2 min 251 W/m² 20,3 °C 22,2 °C 9,7 km/h (2 Bft)
11.07.2024 09:25 24,2 °C 22,2 °C 68 % 89 % 1016,4 hPa 0,0 l/m² 4,9 km/h (1 Bft) NW 317 ° 2 min 227 W/m² 20,3 °C 22,2 °C 11,3 km/h (2 Bft)
11.07.2024 09:27 24,2 °C 22,3 °C 68 % 89 % 1016,5 hPa 0,0 l/m² 2,8 km/h (1 Bft) W-SW 238 ° 2 min 638 W/m² 20,4 °C 22,3 °C 6,4 km/h (2 Bft)
11.07.2024 09:29 24,2 °C 22,3 °C 68 % 88 % 1016,6 hPa 0,0 l/m² 6,0 km/h (2 Bft) NW 311 ° 2 min 636 W/m² 20,2 °C 22,3 °C 12,9 km/h (3 Bft)
11.07.2024 09:31 24,2 °C 22,4 °C 68 % 88 % 1016,5 hPa 0,0 l/m² 4,1 km/h (1 Bft) W 269 ° 2 min 601 W/m² 20,3 °C 22,4 °C 6,4 km/h (2 Bft)
11.07.2024 09:33 24,2 °C 22,5 °C 68 % 87 % 1016,5 hPa 0,0 l/m² 4,4 km/h (1 Bft) W 269 ° 2 min 287 W/m² 20,2 °C 22,5 °C 11,3 km/h (2 Bft)
11.07.2024 09:35 24,2 °C 22,6 °C 68 % 86 % 1016,5 hPa 0,0 l/m² 6,1 km/h (2 Bft) W 278 ° 2 min 519 W/m² 20,1 °C 22,6 °C 11,3 km/h (2 Bft)
11.07.2024 09:37 24,2 °C 22,7 °C 68 % 86 % 1016,5 hPa 0,0 l/m² 2,6 km/h (1 Bft) W-NW 303 ° 2 min 543 W/m² 20,2 °C 22,7 °C 8,0 km/h (2 Bft)
11.07.2024 09:39 24,2 °C 22,7 °C 68 % 86 % 1016,5 hPa 0,0 l/m² 3,5 km/h (1 Bft) NW 321 ° 2 min 605 W/m² 20,2 °C 22,7 °C 6,4 km/h (2 Bft)
11.07.2024 09:41 24,2 °C 22,9 °C 68 % 85 % 1016,5 hPa 0,0 l/m² 3,2 km/h (1 Bft) W-NW 301 ° 2 min 605 W/m² 20,2 °C 22,9 °C 6,4 km/h (2 Bft)
11.07.2024 09:43 24,2 °C 22,9 °C 68 % 85 % 1016,4 hPa 0,0 l/m² 2,6 km/h (1 Bft) W-SW 253 ° 2 min 262 W/m² 20,2 °C 22,9 °C 6,4 km/h (2 Bft)
11.07.2024 09:45 24,2 °C 23,0 °C 68 % 84 % 1016,5 hPa 0,0 l/m² 2,7 km/h (1 Bft) W-SW 253 ° 2 min 274 W/m² 20,1 °C 23,0 °C 6,4 km/h (2 Bft)
11.07.2024 09:47 24,2 °C 23,1 °C 68 % 83 % 1016,5 hPa 0,0 l/m² 3,5 km/h (1 Bft) W-NW 286 ° 2 min 290 W/m² 20,0 °C 23,1 °C 11,3 km/h (2 Bft)
11.07.2024 09:48 24,2 °C 23,1 °C 68 % 83 % 1016,5 hPa 0,0 l/m² 3,0 km/h (1 Bft) W 280 ° 1 min 295 W/m² 20,0 °C 23,1 °C 6,4 km/h (2 Bft)
11.07.2024 09:50 24,2 °C 23,2 °C 68 % 83 % 1016,5 hPa 0,0 l/m² 3,8 km/h (1 Bft) W-SW 250 ° 2 min 294 W/m² 20,1 °C 23,2 °C 6,4 km/h (2 Bft)
11.07.2024 09:52 24,2 °C 23,2 °C 68 % 83 % 1016,6 hPa 0,0 l/m² 3,6 km/h (1 Bft) W-NW 292 ° 2 min 294 W/m² 20,1 °C 23,2 °C 12,9 km/h (3 Bft)
11.07.2024 09:54 24,2 °C 23,2 °C 68 % 82 % 1016,6 hPa 0,0 l/m² 6,0 km/h (2 Bft) W 267 ° 2 min 308 W/m² 19,9 °C 23,2 °C 11,3 km/h (2 Bft)
11.07.2024 09:56 24,2 °C 23,3 °C 68 % 81 % 1016,6 hPa 0,0 l/m² 6,0 km/h (2 Bft) NW 323 ° 2 min 315 W/m² 19,8 °C 23,3 °C 12,9 km/h (3 Bft)
11.07.2024 09:58 24,1 °C 23,3 °C 68 % 80 % 1016,7 hPa 0,0 l/m² 5,5 km/h (2 Bft) N-NW 327 ° 2 min 316 W/m² 19,6 °C 23,3 °C 9,7 km/h (2 Bft)
11.07.2024 10:00 24,2 °C 23,3 °C 68 % 80 % 1016,7 hPa 0,0 l/m² 4,8 km/h (1 Bft) W 281 ° 2 min 334 W/m² 19,6 °C 23,3 °C 8,0 km/h (2 Bft)
11.07.2024 10:01 24,1 °C 23,3 °C 68 % 80 % 1016,8 hPa 0,0 l/m² 2,6 km/h (1 Bft) W 280 ° 1 min 355 W/m² 19,6 °C 23,3 °C 6,4 km/h (2 Bft)
11.07.2024 10:02 24,2 °C 23,3 °C 68 % 80 % 1016,8 hPa 0,0 l/m² 2,4 km/h (1 Bft) W-NW 294 ° 1 min 399 W/m² 19,6 °C 23,3 °C 6,4 km/h (2 Bft)
11.07.2024 10:03 24,2 °C 23,3 °C 68 % 80 % 1016,8 hPa 0,0 l/m² 2,9 km/h (1 Bft) W-NW 291 ° 1 min 350 W/m² 19,6 °C 23,3 °C 8,0 km/h (2 Bft)
11.07.2024 10:05 24,1 °C 23,3 °C 68 % 80 % 1016,8 hPa 0,0 l/m² 2,6 km/h (1 Bft) W-NW 298 ° 2 min 366 W/m² 19,6 °C 23,3 °C 6,4 km/h (2 Bft)
11.07.2024 10:07 24,1 °C 23,4 °C 68 % 80 % 1016,9 hPa 0,0 l/m² 3,0 km/h (1 Bft) W-NW 290 ° 2 min 392 W/m² 19,7 °C 23,4 °C 6,4 km/h (2 Bft)
11.07.2024 10:09 24,2 °C 23,4 °C 68 % 80 % 1016,8 hPa 0,0 l/m² 4,5 km/h (1 Bft) W-NW 287 ° 2 min 418 W/m² 19,7 °C 23,4 °C 9,7 km/h (2 Bft)
11.07.2024 10:11 24,1 °C 23,4 °C 68 % 80 % 1016,7 hPa 0,0 l/m² 6,8 km/h (2 Bft) W 273 ° 2 min 427 W/m² 19,7 °C 23,3 °C 12,9 km/h (3 Bft)
11.07.2024 10:13 24,2 °C 23,5 °C 68 % 80 % 1016,8 hPa 0,0 l/m² 4,1 km/h (1 Bft) NW 309 ° 2 min 424 W/m² 19,8 °C 23,5 °C 12,9 km/h (3 Bft)
11.07.2024 10:15 24,2 °C 23,6 °C 68 % 80 % 1016,8 hPa 0,0 l/m² 5,1 km/h (1 Bft) W-NW 296 ° 2 min 390 W/m² 19,9 °C 23,6 °C 9,7 km/h (2 Bft)
11.07.2024 10:17 24,1 °C 23,6 °C 68 % 79 % 1016,8 hPa 0,0 l/m² 3,8 km/h (1 Bft) W 280 ° 2 min 439 W/m² 19,7 °C 23,6 °C 9,7 km/h (2 Bft)
11.07.2024 10:19 24,1 °C 23,6 °C 68 % 79 % 1016,8 hPa 0,0 l/m² 3,5 km/h (1 Bft) W-NW 300 ° 2 min 693 W/m² 19,7 °C 23,6 °C 8,0 km/h (2 Bft)
11.07.2024 10:21 24,1 °C 23,7 °C 68 % 79 % 1016,8 hPa 0,0 l/m² 4,0 km/h (1 Bft) W-NW 288 ° 2 min 693 W/m² 19,8 °C 23,7 °C 6,4 km/h (2 Bft)
11.07.2024 10:23 24,1 °C 23,8 °C 68 % 78 % 1016,8 hPa 0,0 l/m² 3,5 km/h (1 Bft) W-NW 286 ° 2 min 693 W/m² 19,7 °C 23,8 °C 8,0 km/h (2 Bft)
11.07.2024 10:25 24,1 °C 23,8 °C 68 % 78 % 1016,8 hPa 0,0 l/m² 2,2 km/h (1 Bft) W-SW 255 ° 2 min 793 W/m² 19,7 °C 23,8 °C 4,8 km/h (1 Bft)
11.07.2024 10:27 24,1 °C 23,9 °C 68 % 78 % 1016,8 hPa 0,0 l/m² 3,6 km/h (1 Bft) W-NW 294 ° 2 min 376 W/m² 19,8 °C 23,9 °C 6,4 km/h (2 Bft)
11.07.2024 10:29 24,1 °C 24,0 °C 68 % 78 % 1016,8 hPa 0,0 l/m² 1,6 km/h (1 Bft) W-NW 294 ° 2 min 376 W/m² 19,9 °C 24,0 °C 6,4 km/h (2 Bft)
11.07.2024 10:31 24,1 °C 24,1 °C 68 % 78 % 1016,6 hPa 0,0 l/m² 4,1 km/h (1 Bft) NW 309 ° 2 min 388 W/m² 20,0 °C 24,1 °C 8,0 km/h (2 Bft)
11.07.2024 10:33 24,1 °C 24,1 °C 68 % 77 % 1016,7 hPa 0,0 l/m² 5,8 km/h (2 Bft) NW 306 ° 2 min 399 W/m² 19,8 °C 24,1 °C 9,7 km/h (2 Bft)
11.07.2024 10:35 24,1 °C 24,2 °C 68 % 77 % 1016,8 hPa 0,0 l/m² 5,5 km/h (2 Bft) NW 310 ° 2 min 397 W/m² 19,9 °C 24,2 °C 11,3 km/h (2 Bft)
11.07.2024 10:37 24,1 °C 24,2 °C 68 % 76 % 1016,6 hPa 0,0 l/m² 1,6 km/h (1 Bft) NW 307 ° 2 min 381 W/m² 19,7 °C 24,2 °C 4,8 km/h (1 Bft)
11.07.2024 10:39 24,1 °C 24,3 °C 68 % 76 % 1016,7 hPa 0,0 l/m² 2,0 km/h (1 Bft) W 272 ° 2 min 432 W/m² 19,8 °C 24,3 °C 11,3 km/h (2 Bft)
11.07.2024 10:41 24,1 °C 24,3 °C 68 % 76 % 1016,7 hPa 0,0 l/m² 4,9 km/h (1 Bft) W-NW 302 ° 2 min 508 W/m² 19,8 °C 24,3 °C 11,3 km/h (2 Bft)
11.07.2024 10:43 24,1 °C 24,4 °C 68 % 75 % 1016,7 hPa 0,0 l/m² 5,0 km/h (1 Bft) NW 321 ° 2 min 487 W/m² 19,7 °C 24,4 °C 8,0 km/h (2 Bft)
11.07.2024 10:45 24,1 °C 24,4 °C 68 % 75 % 1016,7 hPa 0,0 l/m² 2,8 km/h (1 Bft) NW 317 ° 2 min 429 W/m² 19,7 °C 24,4 °C 6,4 km/h (2 Bft)
11.07.2024 10:47 24,1 °C 24,4 °C 68 % 75 % 1016,7 hPa 0,0 l/m² 2,4 km/h (1 Bft) N-NW 342 ° 2 min 392 W/m² 19,7 °C 24,4 °C 9,7 km/h (2 Bft)
11.07.2024 10:49 24,1 °C 24,5 °C 68 % 74 % 1016,7 hPa 0,0 l/m² 4,2 km/h (1 Bft) N-NW 343 ° 2 min 364 W/m² 19,6 °C 24,5 °C 8,0 km/h (2 Bft)
11.07.2024 10:51 24,1 °C 24,5 °C 68 % 73 % 1016,8 hPa 0,0 l/m² 3,2 km/h (1 Bft) N-NW 345 ° 2 min 378 W/m² 19,3 °C 24,5 °C 9,7 km/h (2 Bft)
11.07.2024 10:53 24,2 °C 24,5 °C 68 % 74 % 1016,7 hPa 0,0 l/m² 1,1 km/h (1 Bft) N-NW 345 ° 2 min 410 W/m² 19,6 °C 24,5 °C 3,2 km/h (1 Bft)
11.07.2024 10:55 24,1 °C 24,6 °C 68 % 75 % 1016,7 hPa 0,0 l/m² 2,1 km/h (1 Bft) O-NO 67 ° 2 min 432 W/m² 19,9 °C 24,6 °C 8,0 km/h (2 Bft)
11.07.2024 10:57 24,1 °C 24,6 °C 68 % 75 % 1016,8 hPa 0,0 l/m² 3,8 km/h (1 Bft) W 269 ° 2 min 424 W/m² 19,9 °C 24,6 °C 9,7 km/h (2 Bft)
11.07.2024 10:59 24,2 °C 24,6 °C 68 % 74 % 1016,7 hPa 0,0 l/m² 2,2 km/h (1 Bft) W-NW 288 ° 2 min 403 W/m² 19,6 °C 24,6 °C 9,7 km/h (2 Bft)
11.07.2024 11:01 24,1 °C 24,6 °C 68 % 74 % 1016,7 hPa 0,0 l/m² 1,3 km/h (1 Bft) W-NW 288 ° 2 min 390 W/m² 19,6 °C 24,6 °C 3,2 km/h (1 Bft)
11.07.2024 11:03 24,1 °C 24,6 °C 68 % 75 % 1016,7 hPa 0,0 l/m² 0,3 km/h (0 Bft) W-NW 288 ° 2 min 403 W/m² 19,9 °C 24,6 °C 3,2 km/h (1 Bft)
11.07.2024 11:05 24,1 °C 24,7 °C 68 % 75 % 1016,6 hPa 0,0 l/m² 0,2 km/h (0 Bft) W-NW 288 ° 2 min 378 W/m² 20,0 °C 24,7 °C 1,6 km/h (1 Bft)
11.07.2024 11:07 24,2 °C 24,7 °C 68 % 75 % 1016,7 hPa 0,0 l/m² 3,7 km/h (1 Bft) W-SW 252 ° 2 min 348 W/m² 20,0 °C 24,7 °C 6,4 km/h (2 Bft)
11.07.2024 11:09 24,2 °C 24,7 °C 68 % 74 % 1016,6 hPa 0,0 l/m² 6,1 km/h (2 Bft) W 272 ° 2 min 334 W/m² 19,7 °C 24,7 °C 11,3 km/h (2 Bft)
11.07.2024 11:11 24,1 °C 24,7 °C 68 % 73 % 1016,6 hPa 0,0 l/m² 4,4 km/h (1 Bft) W-SW 254 ° 2 min 339 W/m² 19,5 °C 24,7 °C 6,4 km/h (2 Bft)
11.07.2024 11:13 24,2 °C 24,7 °C 68 % 73 % 1016,7 hPa 0,0 l/m² 3,0 km/h (1 Bft) W-SW 258 ° 2 min 374 W/m² 19,5 °C 24,7 °C 8,0 km/h (2 Bft)
11.07.2024 11:15 24,1 °C 24,7 °C 68 % 74 % 1016,6 hPa 0,0 l/m² 3,7 km/h (1 Bft) W 269 ° 2 min 401 W/m² 19,7 °C 24,7 °C 6,4 km/h (2 Bft)
11.07.2024 11:17 24,1 °C 24,8 °C 68 % 75 % 1016,6 hPa 0,0 l/m² 2,4 km/h (1 Bft) W 269 ° 2 min 418 W/m² 20,1 °C 24,8 °C 4,8 km/h (1 Bft)
11.07.2024 11:19 24,1 °C 24,8 °C 68 % 74 % 1016,6 hPa 0,0 l/m² 2,7 km/h (1 Bft) W 273 ° 2 min 487 W/m² 19,8 °C 24,8 °C 6,4 km/h (2 Bft)
11.07.2024 11:21 24,2 °C 24,8 °C 68 % 74 % 1016,5 hPa 0,0 l/m² 0,8 km/h (0 Bft) W 273 ° 2 min 657 W/m² 19,8 °C 24,8 °C 3,2 km/h (1 Bft)
11.07.2024 11:23 24,1 °C 24,9 °C 68 % 73 % 1016,5 hPa 0,0 l/m² 3,9 km/h (1 Bft) W 273 ° 2 min 657 W/m² 19,7 °C 24,9 °C 9,7 km/h (2 Bft)
11.07.2024 11:25 24,2 °C 24,9 °C 68 % 73 % 1016,5 hPa 0,0 l/m² 3,8 km/h (1 Bft) W 272 ° 2 min 657 W/m² 19,7 °C 24,9 °C 9,7 km/h (2 Bft)
11.07.2024 11:27 24,1 °C 25,0 °C 68 % 72 % 1016,4 hPa 0,0 l/m² 5,4 km/h (2 Bft) W-SW 256 ° 2 min 657 W/m² 19,6 °C 25,0 °C 8,0 km/h (2 Bft)
11.07.2024 11:29 24,1 °C 25,1 °C 68 % 72 % 1016,4 hPa 0,0 l/m² 7,7 km/h (2 Bft) W-NW 299 ° 2 min 297 W/m² 19,7 °C 24,8 °C 12,9 km/h (3 Bft)
11.07.2024 11:31 24,2 °C 25,1 °C 68 % 71 % 1016,6 hPa 0,0 l/m² 4,2 km/h (1 Bft) W-NW 282 ° 2 min 281 W/m² 19,5 °C 25,1 °C 6,4 km/h (2 Bft)
11.07.2024 11:33 24,1 °C 25,1 °C 68 % 70 % 1016,4 hPa 0,0 l/m² 2,2 km/h (1 Bft) W-NW 282 ° 2 min 297 W/m² 19,2 °C 25,1 °C 6,4 km/h (2 Bft)
11.07.2024 11:35 24,2 °C 25,1 °C 68 % 70 % 1016,5 hPa 0,0 l/m² 0,1 km/h (0 Bft) W-NW 282 ° 2 min 338 W/m² 19,2 °C 25,1 °C 1,6 km/h (1 Bft)
11.07.2024 11:37 24,2 °C 25,0 °C 68 % 71 % 1016,4 hPa 0,0 l/m² 5,4 km/h (2 Bft) W-NW 288 ° 2 min 360 W/m² 19,4 °C 25,0 °C 14,5 km/h (3 Bft)
11.07.2024 11:39 24,1 °C 25,1 °C 68 % 72 % 1016,4 hPa 0,0 l/m² 1,9 km/h (1 Bft) W-NW 288 ° 2 min 380 W/m² 19,7 °C 25,1 °C 4,8 km/h (1 Bft)
11.07.2024 11:41 24,1 °C 25,1 °C 68 % 71 % 1016,3 hPa 0,0 l/m² 3,6 km/h (1 Bft) NW 318 ° 2 min 348 W/m² 19,5 °C 25,1 °C 8,0 km/h (2 Bft)
11.07.2024 11:43 24,1 °C 25,1 °C 68 % 72 % 1016,3 hPa 0,0 l/m² 0,1 km/h (0 Bft) NW 318 ° 2 min 341 W/m² 19,7 °C 25,1 °C 1,6 km/h (1 Bft)
11.07.2024 11:44 24,1 °C 25,1 °C 68 % 72 % 1016,2 hPa 0,0 l/m² 3,2 km/h (1 Bft) NW 315 ° 1 min 429 W/m² 19,7 °C 25,1 °C 8,0 km/h (2 Bft)
11.07.2024 11:45 24,1 °C 25,1 °C 68 % 71 % 1016,2 hPa 0,0 l/m² 3,2 km/h (1 Bft) N-NW 337 ° 1 min 429 W/m² 19,5 °C 25,1 °C 6,4 km/h (2 Bft)
11.07.2024 11:46 24,2 °C 25,1 °C 68 % 71 % 1016,2 hPa 0,0 l/m² 4,8 km/h (1 Bft) N-NW 337 ° 1 min 896 W/m² 19,5 °C 25,1 °C 8,0 km/h (2 Bft)
11.07.2024 11:51 24,1 °C 25,1 °C 68 % 72 % 1016,2 hPa 0,0 l/m² 3,2 km/h (1 Bft) N-NW 347 ° 5 min 898 W/m² 19,7 °C 25,1 °C 3,2 km/h (1 Bft)
11.07.2024 11:53 24,1 °C 25,1 °C 68 % 72 % 1016,1 hPa 0,0 l/m² 4,6 km/h (1 Bft) N 355 ° 2 min 900 W/m² 19,7 °C 25,1 °C 8,0 km/h (2 Bft)
11.07.2024 11:54 24,1 °C 25,1 °C 68 % 72 % 1016,1 hPa 0,0 l/m² 3,0 km/h (1 Bft) N-NO 14 ° 1 min 904 W/m² 19,7 °C 25,1 °C 6,4 km/h (2 Bft)
11.07.2024 11:56 24,1 °C 25,2 °C 68 % 72 % 1016,2 hPa 0,0 l/m² 2,8 km/h (1 Bft) W-SW 250 ° 2 min 905 W/m² 19,8 °C 25,2 °C 9,7 km/h (2 Bft)
11.07.2024 11:58 24,1 °C 25,3 °C 68 % 71 % 1016,1 hPa 0,0 l/m² 4,5 km/h (1 Bft) W 265 ° 2 min 912 W/m² 19,7 °C 25,3 °C 11,3 km/h (2 Bft)
11.07.2024 12:00 24,1 °C 25,4 °C 68 % 72 % 1016,1 hPa 0,0 l/m² 2,6 km/h (1 Bft) W 265 ° 2 min 956 W/m² 20,0 °C 25,4 °C 6,4 km/h (2 Bft)
11.07.2024 12:01 24,2 °C 25,5 °C 68 % 71 % 1016,1 hPa 0,0 l/m² 1,8 km/h (1 Bft) W-NW 294 ° 1 min 956 W/m² 19,8 °C 25,5 °C 4,8 km/h (1 Bft)
11.07.2024 12:02 24,1 °C 25,6 °C 68 % 71 % 1016,1 hPa 0,0 l/m² 2,4 km/h (1 Bft) NW 310 ° 1 min 956 W/m² 19,9 °C 25,6 °C 6,4 km/h (2 Bft)
11.07.2024 12:03 24,1 °C 25,6 °C 68 % 70 % 1016,1 hPa 0,0 l/m² 3,9 km/h (1 Bft) NW 318 ° 1 min 928 W/m² 19,7 °C 25,6 °C 6,4 km/h (2 Bft)
11.07.2024 12:04 24,2 °C 25,7 °C 68 % 70 % 1016,2 hPa 0,0 l/m² 3,2 km/h (1 Bft) NW 325 ° 1 min 947 W/m² 19,8 °C 25,7 °C 6,4 km/h (2 Bft)
11.07.2024 12:06 24,1 °C 25,9 °C 68 % 70 % 1016,2 hPa 0,0 l/m² 4,0 km/h (1 Bft) W-NW 291 ° 2 min 951 W/m² 20,0 °C 25,9 °C 9,7 km/h (2 Bft)
11.07.2024 12:08 24,1 °C 25,9 °C 68 % 67 % 1016,2 hPa 0,0 l/m² 6,5 km/h (2 Bft) N-NW 346 ° 2 min 940 W/m² 19,3 °C 25,9 °C 14,5 km/h (3 Bft)
11.07.2024 12:10 24,2 °C 26,1 °C 68 % 67 % 1016,1 hPa 0,0 l/m² 2,2 km/h (1 Bft) W-NW 296 ° 2 min 932 W/m² 19,5 °C 26,1 °C 6,4 km/h (2 Bft)
11.07.2024 12:11 24,1 °C 26,2 °C 68 % 68 % 1016,1 hPa 0,0 l/m² 4,3 km/h (1 Bft) N 351 ° 1 min 923 W/m² 19,8 °C 26,2 °C 9,7 km/h (2 Bft)
11.07.2024 12:12 24,1 °C 26,3 °C 68 % 68 % 1016,1 hPa 0,0 l/m² 7,4 km/h (2 Bft) NW 323 ° 1 min 928 W/m² 19,9 °C 26,1 °C 9,7 km/h (2 Bft)
11.07.2024 12:14 24,1 °C 26,4 °C 68 % 67 % 1016,2 hPa 0,0 l/m² 3,9 km/h (1 Bft) N 5 ° 2 min 947 W/m² 19,8 °C 26,4 °C 8,0 km/h (2 Bft)
11.07.2024 12:16 24,2 °C 26,6 °C 68 % 67 % 1016,1 hPa 0,0 l/m² 5,1 km/h (1 Bft) N 355 ° 2 min 972 W/m² 20,0 °C 26,6 °C 14,5 km/h (3 Bft)
11.07.2024 12:18 24,1 °C 26,7 °C 68 % 65 % 1016,2 hPa 0,0 l/m² 5,9 km/h (2 Bft) N-NW 342 ° 2 min 988 W/m² 19,6 °C 26,7 °C 9,7 km/h (2 Bft)
11.07.2024 12:20 24,2 °C 26,7 °C 68 % 65 % 1016,2 hPa 0,0 l/m² 4,6 km/h (1 Bft) N-NW 340 ° 2 min 988 W/m² 19,6 °C 26,7 °C 8,0 km/h (2 Bft)
11.07.2024 12:21 24,2 °C 26,8 °C 68 % 65 % 1016,2 hPa 0,0 l/m² 4,3 km/h (1 Bft) N-NW 338 ° 1 min 988 W/m² 19,7 °C 26,8 °C 8,0 km/h (2 Bft)
11.07.2024 12:22 24,2 °C 26,8 °C 68 % 65 % 1016,2 hPa 0,0 l/m² 5,4 km/h (2 Bft) NW 321 ° 1 min 990 W/m² 19,7 °C 26,8 °C 8,0 km/h (2 Bft)
11.07.2024 12:24 24,2 °C 26,9 °C 68 % 66 % 1016,2 hPa 0,0 l/m² 4,7 km/h (1 Bft) N-NW 334 ° 2 min 990 W/m² 20,0 °C 26,9 °C 8,0 km/h (2 Bft)
11.07.2024 12:26 24,2 °C 26,9 °C 68 % 65 % 1016,2 hPa 0,0 l/m² 5,4 km/h (2 Bft) NW 324 ° 2 min 990 W/m² 19,7 °C 26,9 °C 8,0 km/h (2 Bft)
11.07.2024 12:28 24,2 °C 27,0 °C 68 % 64 % 1016,3 hPa 0,0 l/m² 0,6 km/h (0 Bft) NW 325 ° 2 min 983 W/m² 19,6 °C 27,0 °C 4,8 km/h (1 Bft)
11.07.2024 12:30 24,2 °C 27,1 °C 68 % 65 % 1016,2 hPa 0,0 l/m² 6,1 km/h (2 Bft) NW 325 ° 2 min 974 W/m² 19,9 °C 27,1 °C 14,5 km/h (3 Bft)
11.07.2024 12:31 24,2 °C 27,2 °C 68 % 65 % 1016,3 hPa 0,0 l/m² 7,1 km/h (2 Bft) W-NW 301 ° 1 min 983 W/m² 20,0 °C 27,1 °C 12,9 km/h (3 Bft)
11.07.2024 12:32 24,2 °C 27,2 °C 68 % 65 % 1016,3 hPa 0,0 l/m² 4,8 km/h (1 Bft) N-NW 336 ° 1 min 977 W/m² 20,0 °C 27,2 °C 8,0 km/h (2 Bft)
11.07.2024 12:34 24,2 °C 27,2 °C 68 % 64 % 1016,2 hPa 0,0 l/m² 3,9 km/h (1 Bft) W 275 ° 2 min 977 W/m² 19,8 °C 27,2 °C 12,9 km/h (3 Bft)
11.07.2024 12:36 24,2 °C 27,3 °C 68 % 65 % 1016,2 hPa 0,0 l/m² 2,2 km/h (1 Bft) NO 44 ° 2 min 991 W/m² 20,1 °C 27,3 °C 4,8 km/h (1 Bft)
11.07.2024 12:38 24,2 °C 27,4 °C 68 % 64 % 1016,1 hPa 0,0 l/m² 0,8 km/h (0 Bft) NO 34 ° 2 min 1004 W/m² 20,0 °C 27,4 °C 3,2 km/h (1 Bft)
11.07.2024 12:40 24,2 °C 27,4 °C 68 % 63 % 1016,2 hPa 0,0 l/m² 6,7 km/h (2 Bft) N-NO 17 ° 2 min 1030 W/m² 19,7 °C 27,4 °C 12,9 km/h (3 Bft)
11.07.2024 12:41 24,2 °C 27,5 °C 68 % 64 % 1016,2 hPa 0,0 l/m² 10,0 km/h (2 Bft) N-NO 29 ° 1 min 251 W/m² 20,1 °C 26,9 °C 14,5 km/h (3 Bft)
11.07.2024 12:42 24,2 °C 27,6 °C 68 % 62 % 1016,2 hPa 0,0 l/m² 5,0 km/h (1 Bft) N-NW 340 ° 1 min 251 W/m² 19,6 °C 27,6 °C 9,7 km/h (2 Bft)
11.07.2024 12:44 24,2 °C 27,6 °C 67 % 63 % 1016,2 hPa 0,0 l/m² 7,2 km/h (2 Bft) NW 322 ° 2 min 946 W/m² 19,9 °C 27,5 °C 12,9 km/h (3 Bft)
11.07.2024 12:46 24,2 °C 27,7 °C 67 % 62 % 1016,2 hPa 0,0 l/m² 5,6 km/h (2 Bft) N 9 ° 2 min 935 W/m² 19,7 °C 27,7 °C 9,7 km/h (2 Bft)
11.07.2024 12:47 24,2 °C 27,7 °C 67 % 63 % 1016,2 hPa 0,0 l/m² 5,1 km/h (1 Bft) N-NW 345 ° 1 min 930 W/m² 20,0 °C 27,7 °C 6,4 km/h (2 Bft)
11.07.2024 12:49 24,2 °C 27,7 °C 67 % 60 % 1016,2 hPa 0,0 l/m² 6,5 km/h (2 Bft) NO 49 ° 2 min 926 W/m² 19,2 °C 27,7 °C 12,9 km/h (3 Bft)
11.07.2024 12:50 24,2 °C 27,7 °C 67 % 60 % 1016,3 hPa 0,0 l/m² 3,5 km/h (1 Bft) N 355 ° 1 min 926 W/m² 19,2 °C 27,7 °C 8,0 km/h (2 Bft)
11.07.2024 12:52 24,2 °C 27,7 °C 67 % 60 % 1016,3 hPa 0,0 l/m² 4,4 km/h (1 Bft) N-NO 30 ° 2 min 926 W/m² 19,2 °C 27,7 °C 8,0 km/h (2 Bft)
11.07.2024 12:53 24,2 °C 27,8 °C 67 % 59 % 1016,2 hPa 0,0 l/m² 6,0 km/h (2 Bft) N-NW 327 ° 1 min 962 W/m² 19,0 °C 27,8 °C 8,0 km/h (2 Bft)
11.07.2024 12:55 24,2 °C 27,8 °C 67 % 58 % 1016,3 hPa 0,0 l/m² 5,9 km/h (2 Bft) N-NW 345 ° 2 min 408 W/m² 18,8 °C 27,8 °C 8,0 km/h (2 Bft)
11.07.2024 12:57 24,2 °C 27,8 °C 67 % 57 % 1016,3 hPa 0,0 l/m² 1,3 km/h (1 Bft) NW 326 ° 2 min 178 W/m² 18,5 °C 27,8 °C 4,8 km/h (1 Bft)
11.07.2024 12:59 24,2 °C 27,8 °C 67 % 57 % 1016,4 hPa 0,0 l/m² 3,1 km/h (1 Bft) N-NW 334 ° 2 min 1004 W/m² 18,5 °C 27,8 °C 6,4 km/h (2 Bft)
11.07.2024 13:00 24,2 °C 27,8 °C 67 % 58 % 1016,4 hPa 0,0 l/m² 1,7 km/h (1 Bft) NW 318 ° 1 min 1035 W/m² 18,8 °C 27,8 °C 3,2 km/h (1 Bft)
11.07.2024 13:02 24,2 °C 27,9 °C 67 % 57 % 1016,4 hPa 0,0 l/m² 2,0 km/h (1 Bft) N 360 ° 2 min 1063 W/m² 18,6 °C 27,9 °C 6,4 km/h (2 Bft)
11.07.2024 13:04 24,2 °C 27,9 °C 67 % 58 % 1016,5 hPa 0,0 l/m² 4,3 km/h (1 Bft) NO 35 ° 2 min 1063 W/m² 18,9 °C 27,9 °C 8,0 km/h (2 Bft)
11.07.2024 13:06 24,2 °C 27,9 °C 67 % 58 % 1016,3 hPa 0,0 l/m² 2,6 km/h (1 Bft) NO 56 ° 2 min 1063 W/m² 18,9 °C 27,9 °C 4,8 km/h (1 Bft)
11.07.2024 13:08 24,2 °C 28,0 °C 67 % 58 % 1016,4 hPa 0,0 l/m² 3,1 km/h (1 Bft) NO 55 ° 2 min 1111 W/m² 18,9 °C 28,0 °C 6,4 km/h (2 Bft)
11.07.2024 13:10 24,2 °C 28,1 °C 67 % 58 % 1016,4 hPa 0,0 l/m² 1,9 km/h (1 Bft) O 93 ° 2 min 1111 W/m² 19,0 °C 28,1 °C 4,8 km/h (1 Bft)
11.07.2024 13:11 24,2 °C 28,1 °C 67 % 57 % 1016,3 hPa 0,0 l/m² 4,1 km/h (1 Bft) O 94 ° 1 min 383 W/m² 18,8 °C 28,1 °C 4,8 km/h (1 Bft)
11.07.2024 13:12 24,2 °C 28,1 °C 67 % 56 % 1016,3 hPa 0,0 l/m² 4,4 km/h (1 Bft) O 96 ° 1 min 388 W/m² 18,5 °C 28,1 °C 6,4 km/h (2 Bft)
11.07.2024 13:13 24,2 °C 28,1 °C 67 % 57 % 1016,3 hPa 0,0 l/m² 4,1 km/h (1 Bft) S-SO 161 ° 1 min 388 W/m² 18,8 °C 28,1 °C 9,7 km/h (2 Bft)
11.07.2024 13:15 24,2 °C 28,2 °C 67 % 57 % 1016,3 hPa 0,0 l/m² 4,2 km/h (1 Bft) W 259 ° 2 min 388 W/m² 18,9 °C 28,2 °C 6,4 km/h (2 Bft)
11.07.2024 13:17 24,2 °C 28,2 °C 67 % 59 % 1016,2 hPa 0,0 l/m² 2,3 km/h (1 Bft) NW 308 ° 2 min 1099 W/m² 19,4 °C 28,2 °C 8,0 km/h (2 Bft)
11.07.2024 13:19 24,2 °C 28,3 °C 67 % 58 % 1016,2 hPa 0,0 l/m² 2,9 km/h (1 Bft) N-NW 332 ° 2 min 1067 W/m² 19,2 °C 28,3 °C 8,0 km/h (2 Bft)
11.07.2024 13:20 24,2 °C 28,3 °C 67 % 58 % 1016,3 hPa 0,0 l/m² 4,4 km/h (1 Bft) N-NW 332 ° 1 min 1067 W/m² 19,2 °C 28,3 °C 6,4 km/h (2 Bft)
11.07.2024 13:22 24,2 °C 28,4 °C 67 % 57 % 1016,2 hPa 0,0 l/m² 6,7 km/h (2 Bft) N-NW 331 ° 2 min 1035 W/m² 19,0 °C 28,4 °C 9,7 km/h (2 Bft)
11.07.2024 13:24 24,2 °C 28,4 °C 67 % 56 % 1016,2 hPa 0,0 l/m² 4,7 km/h (1 Bft) W-SW 254 ° 2 min 1035 W/m² 18,8 °C 28,4 °C 8,0 km/h (2 Bft)
11.07.2024 13:26 24,2 °C 28,5 °C 67 % 57 % 1016,2 hPa 0,0 l/m² 5,2 km/h (1 Bft) N-NW 348 ° 2 min 336 W/m² 19,1 °C 28,5 °C 16,1 km/h (3 Bft)
11.07.2024 13:28 24,2 °C 28,5 °C 67 % 55 % 1016,3 hPa 0,0 l/m² 2,5 km/h (1 Bft) N-NW 347 ° 2 min 374 W/m² 18,6 °C 28,5 °C 6,4 km/h (2 Bft)
11.07.2024 13:30 24,2 °C 28,4 °C 67 % 57 % 1016,2 hPa 0,0 l/m² 5,6 km/h (2 Bft) N-NO 20 ° 2 min 374 W/m² 19,0 °C 28,4 °C 11,3 km/h (2 Bft)
11.07.2024 13:31 24,2 °C 28,4 °C 67 % 57 % 1016,2 hPa 0,0 l/m² 5,8 km/h (2 Bft) N 11 ° 1 min 374 W/m² 19,0 °C 28,4 °C 8,0 km/h (2 Bft)
11.07.2024 13:32 24,2 °C 28,4 °C 67 % 57 % 1016,2 hPa 0,0 l/m² 7,1 km/h (2 Bft) N-NO 20 ° 1 min 684 W/m² 19,0 °C 28,3 °C 11,3 km/h (2 Bft)
11.07.2024 13:33 24,2 °C 28,4 °C 67 % 56 % 1016,2 hPa 0,0 l/m² 6,4 km/h (2 Bft) N 5 ° 1 min 684 W/m² 18,8 °C 28,4 °C 11,3 km/h (2 Bft)
11.07.2024 13:35 24,2 °C 28,4 °C 67 % 56 % 1016,2 hPa 0,0 l/m² 2,6 km/h (1 Bft) N-NW 341 ° 2 min 309 W/m² 18,8 °C 28,4 °C 6,4 km/h (2 Bft)
11.07.2024 13:37 24,2 °C 28,3 °C 67 % 57 % 1016,1 hPa 0,0 l/m² 2,4 km/h (1 Bft) NW 321 ° 2 min 294 W/m² 18,9 °C 28,3 °C 4,8 km/h (1 Bft)
11.07.2024 13:39 24,2 °C 28,3 °C 67 % 56 % 1016,1 hPa 0,0 l/m² 3,5 km/h (1 Bft) O-NO 74 ° 2 min 301 W/m² 18,7 °C 28,3 °C 8,0 km/h (2 Bft)
11.07.2024 13:40 24,2 °C 28,2 °C 67 % 57 % 1016,2 hPa 0,0 l/m² 3,9 km/h (1 Bft) O-NO 71 ° 1 min 301 W/m² 18,9 °C 28,2 °C 6,4 km/h (2 Bft)
11.07.2024 13:41 24,2 °C 28,2 °C 67 % 56 % 1016,2 hPa 0,0 l/m² 5,0 km/h (1 Bft) O-NO 72 ° 1 min 301 W/m² 18,6 °C 28,2 °C 6,4 km/h (2 Bft)
11.07.2024 13:42 24,2 °C 28,2 °C 67 % 57 % 1016,1 hPa 0,0 l/m² 4,1 km/h (1 Bft) O-NO 72 ° 1 min 301 W/m² 18,9 °C 28,2 °C 4,8 km/h (1 Bft)
11.07.2024 13:44 24,2 °C 28,2 °C 67 % 56 % 1016,1 hPa 0,0 l/m² 3,4 km/h (1 Bft) O-NO 72 ° 2 min 276 W/m² 18,6 °C 28,2 °C 6,4 km/h (2 Bft)
11.07.2024 13:46 24,2 °C 28,1 °C 67 % 57 % 1016,1 hPa 0,0 l/m² 3,5 km/h (1 Bft) O-SO 102 ° 2 min 276 W/m² 18,8 °C 28,1 °C 6,4 km/h (2 Bft)
11.07.2024 13:48 24,2 °C 28,0 °C 67 % 56 % 1016,2 hPa 0,0 l/m² 3,6 km/h (1 Bft) SO 126 ° 2 min 316 W/m² 18,4 °C 28,0 °C 4,8 km/h (1 Bft)
11.07.2024 13:50 24,2 °C 28,0 °C 67 % 56 % 1016,2 hPa 0,0 l/m² 4,0 km/h (1 Bft) S 182 ° 2 min 336 W/m² 18,4 °C 28,0 °C 9,7 km/h (2 Bft)
11.07.2024 13:51 24,2 °C 28,0 °C 67 % 57 % 1016,1 hPa 0,0 l/m² 0,7 km/h (0 Bft) S 182 ° 1 min 336 W/m² 18,7 °C 28,0 °C 1,6 km/h (1 Bft)
11.07.2024 13:52 24,2 °C 28,0 °C 67 % 57 % 1016,1 hPa 0,0 l/m² 0,4 km/h (0 Bft) S 182 ° 1 min 336 W/m² 18,7 °C 28,0 °C 1,6 km/h (1 Bft)
11.07.2024 13:53 24,2 °C 28,0 °C 67 % 58 % 1016,1 hPa 0,0 l/m² 0,1 km/h (0 Bft) S 182 ° 1 min 336 W/m² 18,9 °C 28,0 °C 1,6 km/h (1 Bft)
11.07.2024 13:55 24,2 °C 28,0 °C 67 % 58 % 1016,1 hPa 0,0 l/m² 0,6 km/h (0 Bft) S 182 ° 2 min 336 W/m² 18,9 °C 28,0 °C 3,2 km/h (1 Bft)
11.07.2024 13:57 24,2 °C 28,0 °C 67 % 57 % 1016,0 hPa 0,0 l/m² 2,7 km/h (1 Bft) W-SW 240 ° 2 min 1083 W/m² 18,7 °C 28,0 °C 8,0 km/h (2 Bft)
11.07.2024 13:58 24,2 °C 28,1 °C 67 % 58 % 1016,1 hPa 0,0 l/m² 4,8 km/h (1 Bft) W-SW 252 ° 1 min 1088 W/m² 19,0 °C 28,1 °C 8,0 km/h (2 Bft)
11.07.2024 13:59 24,2 °C 28,1 °C 67 % 58 % 1016,1 hPa 0,0 l/m² 5,1 km/h (1 Bft) W-SW 250 ° 1 min 1093 W/m² 19,0 °C 28,1 °C 11,3 km/h (2 Bft)
11.07.2024 14:02 24,2 °C 28,2 °C 67 % 57 % 1016,2 hPa 0,0 l/m² 3,5 km/h (1 Bft) W-SW 251 ° 3 min 1041 W/m² 18,9 °C 28,2 °C 8,0 km/h (2 Bft)
11.07.2024 14:03 24,2 °C 28,2 °C 67 % 57 % 1016,1 hPa 0,0 l/m² 1,4 km/h (1 Bft) W-SW 251 ° 1 min 239 W/m² 18,9 °C 28,2 °C 3,2 km/h (1 Bft)
11.07.2024 14:05 24,2 °C 28,3 °C 67 % 58 % 1016,1 hPa 0,0 l/m² 3,0 km/h (1 Bft) W 269 ° 2 min 230 W/m² 19,2 °C 28,3 °C 9,7 km/h (2 Bft)
11.07.2024 14:07 24,2 °C 28,3 °C 67 % 58 % 1016,1 hPa 0,0 l/m² 0,6 km/h (0 Bft) W 269 ° 2 min 241 W/m² 19,2 °C 28,3 °C 4,8 km/h (1 Bft)
11.07.2024 14:09 24,3 °C 28,3 °C 67 % 57 % 1016,0 hPa 0,0 l/m² 5,7 km/h (2 Bft) W-SW 240 ° 2 min 631 W/m² 18,9 °C 28,3 °C 9,7 km/h (2 Bft)
11.07.2024 14:10 24,2 °C 28,3 °C 67 % 55 % 1016,0 hPa 0,0 l/m² 3,5 km/h (1 Bft) W-SW 240 ° 1 min 631 W/m² 18,4 °C 28,3 °C 6,4 km/h (2 Bft)
11.07.2024 14:11 24,2 °C 28,3 °C 67 % 56 % 1016,0 hPa 0,0 l/m² 3,8 km/h (1 Bft) W-SW 240 ° 1 min 631 W/m² 18,7 °C 28,3 °C 6,4 km/h (2 Bft)
11.07.2024 14:12 24,2 °C 28,3 °C 67 % 55 % 1016,1 hPa 0,0 l/m² 2,2 km/h (1 Bft) S 172 ° 1 min 1104 W/m² 18,4 °C 28,3 °C 4,8 km/h (1 Bft)
11.07.2024 14:14 24,2 °C 28,3 °C 67 % 55 % 1016,1 hPa 0,0 l/m² 2,2 km/h (1 Bft) S-SO 161 ° 2 min 1130 W/m² 18,4 °C 28,3 °C 4,8 km/h (1 Bft)
11.07.2024 14:16 24,3 °C 28,4 °C 67 % 55 % 1016,1 hPa 0,0 l/m² 4,0 km/h (1 Bft) S 182 ° 2 min 1130 W/m² 18,5 °C 28,4 °C 9,7 km/h (2 Bft)
11.07.2024 14:18 24,2 °C 28,4 °C 67 % 54 % 1016,0 hPa 0,0 l/m² 3,3 km/h (1 Bft) S 182 ° 2 min 1130 W/m² 18,2 °C 28,4 °C 8,0 km/h (2 Bft)
11.07.2024 14:20 24,2 °C 28,4 °C 67 % 56 % 1016,1 hPa 0,0 l/m² 2,9 km/h (1 Bft) S 186 ° 2 min 1162 W/m² 18,8 °C 28,4 °C 8,0 km/h (2 Bft)
11.07.2024 14:21 24,2 °C 28,5 °C 67 % 55 % 1016,0 hPa 0,0 l/m² 1,9 km/h (1 Bft) S 186 ° 1 min 1162 W/m² 18,6 °C 28,5 °C 4,8 km/h (1 Bft)
11.07.2024 14:22 24,2 °C 28,6 °C 67 % 56 % 1016,0 hPa 0,0 l/m² 2,7 km/h (1 Bft) S-SW 206 ° 1 min 1162 W/m² 18,9 °C 28,6 °C 4,8 km/h (1 Bft)
11.07.2024 14:23 24,2 °C 28,6 °C 67 % 56 % 1016,1 hPa 0,0 l/m² 1,7 km/h (1 Bft) S-SW 206 ° 1 min 374 W/m² 18,9 °C 28,6 °C 4,8 km/h (1 Bft)
11.07.2024 14:24 24,3 °C 28,6 °C 67 % 56 % 1016,1 hPa 0,0 l/m² 2,6 km/h (1 Bft) SW 222 ° 1 min 374 W/m² 18,9 °C 28,6 °C 4,8 km/h (1 Bft)
11.07.2024 14:26 24,2 °C 28,7 °C 67 % 56 % 1016,1 hPa 0,0 l/m² 4,2 km/h (1 Bft) W-SW 257 ° 2 min 457 W/m² 19,0 °C 28,7 °C 11,3 km/h (2 Bft)
11.07.2024 14:28 24,3 °C 28,7 °C 67 % 58 % 1016,1 hPa 0,0 l/m² 3,8 km/h (1 Bft) W-NW 283 ° 2 min 763 W/m² 19,6 °C 28,7 °C 11,3 km/h (2 Bft)
11.07.2024 14:30 24,2 °C 28,8 °C 67 % 57 % 1016,0 hPa 0,0 l/m² 3,8 km/h (1 Bft) W 264 ° 2 min 394 W/m² 19,4 °C 28,8 °C 9,7 km/h (2 Bft)
11.07.2024 14:31 24,2 °C 28,7 °C 67 % 56 % 1016,0 hPa 0,0 l/m² 4,1 km/h (1 Bft) W-SW 249 ° 1 min 397 W/m² 19,0 °C 28,7 °C 11,3 km/h (2 Bft)
11.07.2024 14:32 24,2 °C 28,8 °C 67 % 56 % 1016,0 hPa 0,0 l/m² 3,2 km/h (1 Bft) W-SW 254 ° 1 min 418 W/m² 19,1 °C 28,8 °C 4,8 km/h (1 Bft)
11.07.2024 14:33 24,2 °C 28,7 °C 67 % 56 % 1015,9 hPa 0,0 l/m² 5,3 km/h (1 Bft) W 280 ° 1 min 418 W/m² 19,0 °C 28,7 °C 9,7 km/h (2 Bft)
11.07.2024 14:35 24,3 °C 28,7 °C 67 % 56 % 1015,9 hPa 0,0 l/m² 7,5 km/h (2 Bft) N-NW 331 ° 2 min 388 W/m² 19,0 °C 28,6 °C 12,9 km/h (3 Bft)
11.07.2024 14:36 24,2 °C 28,7 °C 67 % 56 % 1016,0 hPa 0,0 l/m² 9,4 km/h (2 Bft) N-NW 344 ° 1 min 394 W/m² 19,0 °C 28,3 °C 14,5 km/h (3 Bft)
11.07.2024 14:38 24,3 °C 28,7 °C 67 % 55 % 1016,0 hPa 0,0 l/m² 5,5 km/h (2 Bft) N 10 ° 2 min 388 W/m² 18,7 °C 28,7 °C 8,0 km/h (2 Bft)
11.07.2024 14:40 24,2 °C 28,6 °C 67 % 56 % 1015,8 hPa 0,0 l/m² 4,0 km/h (1 Bft) N-NO 20 ° 2 min 394 W/m² 18,9 °C 28,6 °C 6,4 km/h (2 Bft)
11.07.2024 14:41 24,2 °C 28,6 °C 67 % 57 % 1015,9 hPa 0,0 l/m² 2,2 km/h (1 Bft) N-NO 19 ° 1 min 496 W/m² 19,2 °C 28,6 °C 4,8 km/h (1 Bft)
11.07.2024 14:42 24,2 °C 28,6 °C 67 % 57 % 1015,9 hPa 0,0 l/m² 0,8 km/h (0 Bft) N-NO 19 ° 1 min 494 W/m² 19,2 °C 28,6 °C 3,2 km/h (1 Bft)
11.07.2024 14:43 24,2 °C 28,6 °C 67 % 57 % 1015,9 hPa 0,0 l/m² 0,8 km/h (0 Bft) N-NO 19 ° 1 min 494 W/m² 19,2 °C 28,6 °C 3,2 km/h (1 Bft)
11.07.2024 14:45 24,2 °C 28,5 °C 67 % 56 % 1015,8 hPa 0,0 l/m² 5,1 km/h (1 Bft) N-NW 341 ° 2 min 494 W/m² 18,8 °C 28,5 °C 8,0 km/h (2 Bft)
11.07.2024 14:46 24,3 °C 28,5 °C 67 % 57 % 1015,8 hPa 0,0 l/m² 2,9 km/h (1 Bft) N-NW 340 ° 1 min 494 W/m² 19,1 °C 28,5 °C 4,8 km/h (1 Bft)
11.07.2024 14:48 24,2 °C 28,5 °C 67 % 57 % 1015,8 hPa 0,0 l/m² 2,0 km/h (1 Bft) N-NW 344 ° 2 min 367 W/m² 19,1 °C 28,5 °C 4,8 km/h (1 Bft)
11.07.2024 14:50 24,3 °C 28,4 °C 67 % 58 % 1015,8 hPa 0,0 l/m² 3,3 km/h (1 Bft) N 350 ° 2 min 329 W/m² 19,3 °C 28,4 °C 6,4 km/h (2 Bft)
11.07.2024 14:51 24,3 °C 28,4 °C 67 % 57 % 1015,8 hPa 0,0 l/m² 4,0 km/h (1 Bft) N 351 ° 1 min 318 W/m² 19,0 °C 28,4 °C 6,4 km/h (2 Bft)
11.07.2024 14:52 24,3 °C 28,4 °C 67 % 57 % 1015,8 hPa 0,0 l/m² 4,7 km/h (1 Bft) N 350 ° 1 min 315 W/m² 19,0 °C 28,4 °C 8,0 km/h (2 Bft)
11.07.2024 14:53 24,2 °C 28,4 °C 67 % 57 % 1015,8 hPa 0,0 l/m² 4,7 km/h (1 Bft) N-NW 346 ° 1 min 318 W/m² 19,0 °C 28,4 °C 6,4 km/h (2 Bft)
11.07.2024 14:55 24,3 °C 28,4 °C 67 % 57 % 1015,7 hPa 0,0 l/m² 3,4 km/h (1 Bft) N-NW 334 ° 2 min 366 W/m² 19,0 °C 28,4 °C 4,8 km/h (1 Bft)
11.07.2024 14:57 24,3 °C 28,3 °C 67 % 57 % 1015,8 hPa 0,0 l/m² 3,5 km/h (1 Bft) NW 323 ° 2 min 399 W/m² 18,9 °C 28,3 °C 6,4 km/h (2 Bft)
11.07.2024 14:59 24,3 °C 28,3 °C 67 % 56 % 1015,7 hPa 0,0 l/m² 1,2 km/h (1 Bft) NW 323 ° 2 min 464 W/m² 18,7 °C 28,3 °C 4,8 km/h (1 Bft)
11.07.2024 15:00 24,2 °C 28,3 °C 67 % 57 % 1015,7 hPa 0,0 l/m² 2,7 km/h (1 Bft) NW 324 ° 1 min 510 W/m² 18,9 °C 28,3 °C 4,8 km/h (1 Bft)
11.07.2024 15:01 24,2 °C 28,3 °C 67 % 57 % 1015,7 hPa 0,0 l/m² 1,3 km/h (1 Bft) NW 324 ° 1 min 677 W/m² 18,9 °C 28,3 °C 3,2 km/h (1 Bft)
11.07.2024 15:02 24,3 °C 28,3 °C 67 % 58 % 1015,7 hPa 0,0 l/m² 0,0 km/h (0 Bft) NW 324 ° 1 min 677 W/m² 19,2 °C 28,3 °C 0,0 km/h (0 Bft)
11.07.2024 15:04 24,3 °C 28,3 °C 67 % 57 % 1015,8 hPa 0,0 l/m² 3,4 km/h (1 Bft) N-NW 328 ° 2 min 677 W/m² 18,9 °C 28,3 °C 6,4 km/h (2 Bft)
11.07.2024 15:06 24,3 °C 28,3 °C 67 % 58 % 1015,8 hPa 0,0 l/m² 1,8 km/h (1 Bft) N-NW 327 ° 2 min 663 W/m² 19,2 °C 28,3 °C 4,8 km/h (1 Bft)
11.07.2024 15:08 24,3 °C 28,3 °C 67 % 58 % 1015,8 hPa 0,0 l/m² 1,0 km/h (0 Bft) NW 308 ° 2 min 577 W/m² 19,2 °C 28,3 °C 4,8 km/h (1 Bft)
11.07.2024 15:10 24,3 °C 28,4 °C 67 % 55 % 1015,8 hPa 0,0 l/m² 0,8 km/h (0 Bft) NW 308 ° 2 min 577 W/m² 18,5 °C 28,4 °C 3,2 km/h (1 Bft)
11.07.2024 15:11 24,3 °C 28,4 °C 67 % 56 % 1015,9 hPa 0,0 l/m² 2,3 km/h (1 Bft) W-SW 251 ° 1 min 599 W/m² 18,8 °C 28,4 °C 12,9 km/h (3 Bft)
11.07.2024 15:12 24,3 °C 28,4 °C 67 % 57 % 1015,9 hPa 0,0 l/m² 6,2 km/h (2 Bft) W 259 ° 1 min 599 W/m² 19,0 °C 28,4 °C 12,9 km/h (3 Bft)
11.07.2024 15:13 24,3 °C 28,4 °C 67 % 56 % 1015,9 hPa 0,0 l/m² 9,4 km/h (2 Bft) W-SW 252 ° 1 min 599 W/m² 18,8 °C 28,0 °C 17,7 km/h (3 Bft)
11.07.2024 15:15 24,3 °C 28,5 °C 67 % 55 % 1015,9 hPa 0,0 l/m² 3,9 km/h (1 Bft) W-SW 255 ° 2 min 605 W/m² 18,6 °C 28,5 °C 6,4 km/h (2 Bft)
11.07.2024 15:17 24,3 °C 28,6 °C 67 % 56 % 1015,8 hPa 0,0 l/m² 3,8 km/h (1 Bft) W 281 ° 2 min 939 W/m² 18,9 °C 28,6 °C 9,7 km/h (2 Bft)
11.07.2024 15:19 24,3 °C 28,7 °C 67 % 56 % 1015,8 hPa 0,0 l/m² 2,3 km/h (1 Bft) W 281 ° 2 min 926 W/m² 19,0 °C 28,7 °C 4,8 km/h (1 Bft)
11.07.2024 15:20 24,3 °C 28,7 °C 67 % 55 % 1015,8 hPa 0,0 l/m² 6,3 km/h (2 Bft) S 185 ° 1 min 935 W/m² 18,7 °C 28,7 °C 9,7 km/h (2 Bft)
11.07.2024 15:21 24,3 °C 28,8 °C 67 % 54 % 1015,8 hPa 0,0 l/m² 6,0 km/h (2 Bft) S 186 ° 1 min 939 W/m² 18,5 °C 28,8 °C 9,7 km/h (2 Bft)
11.07.2024 15:22 24,3 °C 28,9 °C 67 % 53 % 1015,7 hPa 0,0 l/m² 6,4 km/h (2 Bft) S 186 ° 1 min 939 W/m² 18,3 °C 28,9 °C 9,7 km/h (2 Bft)
11.07.2024 15:24 24,3 °C 29,1 °C 67 % 53 % 1015,7 hPa 0,0 l/m² 8,2 km/h (2 Bft) S-SW 207 ° 2 min 925 W/m² 18,5 °C 28,9 °C 12,9 km/h (3 Bft)
11.07.2024 15:26 24,2 °C 29,2 °C 67 % 51 % 1015,7 hPa 0,0 l/m² 11,1 km/h (2 Bft) S-SW 213 ° 2 min 912 W/m² 18,0 °C 28,7 °C 19,3 km/h (3 Bft)
11.07.2024 15:28 24,3 °C 29,4 °C 67 % 51 % 1015,7 hPa 0,0 l/m² 9,8 km/h (2 Bft) SW 235 ° 2 min 896 W/m² 18,2 °C 29,0 °C 17,7 km/h (3 Bft)
11.07.2024 15:30 24,3 °C 29,6 °C 67 % 50 % 1015,8 hPa 0,0 l/m² 11,9 km/h (2 Bft) SW 218 ° 2 min 174 W/m² 18,1 °C 29,1 °C 19,3 km/h (3 Bft)
11.07.2024 15:31 24,3 °C 29,6 °C 67 % 49 % 1015,7 hPa 0,0 l/m² 10,3 km/h (2 Bft) S-SW 212 ° 1 min 176 W/m² 17,7 °C 29,2 °C 14,5 km/h (3 Bft)
11.07.2024 15:32 24,3 °C 29,6 °C 67 % 49 % 1015,7 hPa 0,0 l/m² 9,6 km/h (2 Bft) SW 221 ° 1 min 227 W/m² 17,7 °C 29,3 °C 12,9 km/h (3 Bft)
11.07.2024 15:33 24,3 °C 29,7 °C 67 % 50 % 1015,7 hPa 0,0 l/m² 12,7 km/h (3 Bft) SW 227 ° 1 min 227 W/m² 18,1 °C 29,2 °C 17,7 km/h (3 Bft)
11.07.2024 15:35 24,3 °C 29,7 °C 67 % 50 % 1015,8 hPa 0,0 l/m² 10,6 km/h (2 Bft) S 188 ° 2 min 921 W/m² 18,1 °C 29,3 °C 16,1 km/h (3 Bft)
11.07.2024 15:37 24,3 °C 29,7 °C 67 % 49 % 1015,7 hPa 0,0 l/m² 13,3 km/h (3 Bft) SW 223 ° 2 min 687 W/m² 17,8 °C 29,1 °C 17,7 km/h (3 Bft)
11.07.2024 15:39 24,3 °C 29,8 °C 67 % 49 % 1015,8 hPa 0,0 l/m² 10,0 km/h (2 Bft) W 259 ° 2 min 865 W/m² 17,9 °C 29,5 °C 14,5 km/h (3 Bft)
11.07.2024 15:41 24,3 °C 29,8 °C 67 % 49 % 1015,7 hPa 0,0 l/m² 12,2 km/h (2 Bft) W 269 ° 2 min 202 W/m² 17,9 °C 29,3 °C 17,7 km/h (3 Bft)
11.07.2024 15:42 24,3 °C 29,8 °C 67 % 49 % 1015,8 hPa 0,0 l/m² 4,5 km/h (1 Bft) W 263 ° 1 min 193 W/m² 17,9 °C 29,8 °C 9,7 km/h (2 Bft)
11.07.2024 15:43 24,3 °C 29,8 °C 67 % 48 % 1015,8 hPa 0,0 l/m² 8,1 km/h (2 Bft) W 276 ° 1 min 193 W/m² 17,6 °C 29,6 °C 16,1 km/h (3 Bft)
11.07.2024 15:44 24,3 °C 29,8 °C 67 % 48 % 1015,8 hPa 0,0 l/m² 13,1 km/h (3 Bft) W 259 ° 1 min 192 W/m² 17,6 °C 29,2 °C 19,3 km/h (3 Bft)
11.07.2024 15:47 24,3 °C 29,6 °C 67 % 48 % 1015,8 hPa 0,0 l/m² 12,5 km/h (2 Bft) W-SW 248 ° 3 min 234 W/m² 17,4 °C 29,0 °C 19,3 km/h (3 Bft)
11.07.2024 15:49 24,3 °C 29,5 °C 67 % 49 % 1015,8 hPa 0,0 l/m² 9,8 km/h (2 Bft) W-SW 239 ° 2 min 287 W/m² 17,6 °C 29,2 °C 22,5 km/h (4 Bft)
11.07.2024 15:50 24,3 °C 29,4 °C 67 % 51 % 1015,8 hPa 0,0 l/m² 10,8 km/h (2 Bft) W-NW 289 ° 1 min 322 W/m² 18,2 °C 29,0 °C 17,7 km/h (3 Bft)
11.07.2024 15:51 24,3 °C 29,4 °C 67 % 52 % 1015,8 hPa 0,0 l/m² 11,2 km/h (2 Bft) NW 308 ° 1 min 332 W/m² 18,5 °C 28,9 °C 16,1 km/h (3 Bft)
11.07.2024 15:52 24,3 °C 29,3 °C 67 % 53 % 1015,8 hPa 0,0 l/m² 11,9 km/h (2 Bft) NW 311 ° 1 min 295 W/m² 18,7 °C 28,7 °C 25,7 km/h (4 Bft)
11.07.2024 15:54 24,3 °C 29,3 °C 67 % 54 % 1015,8 hPa 0,0 l/m² 11,7 km/h (2 Bft) W-NW 285 ° 2 min 239 W/m² 19,0 °C 28,8 °C 19,3 km/h (3 Bft)
11.07.2024 15:56 24,3 °C 29,1 °C 67 % 53 % 1015,7 hPa 0,0 l/m² 10,0 km/h (2 Bft) NW 306 ° 2 min 218 W/m² 18,5 °C 28,7 °C 19,3 km/h (3 Bft)
11.07.2024 15:58 24,3 °C 28,9 °C 67 % 54 % 1015,8 hPa 0,0 l/m² 11,7 km/h (2 Bft) NW 304 ° 2 min 250 W/m² 18,6 °C 28,3 °C 24,1 km/h (4 Bft)
11.07.2024 16:00 24,3 °C 28,8 °C 67 % 55 % 1015,9 hPa 0,0 l/m² 17,9 km/h (3 Bft) NW 312 ° 2 min 325 W/m² 18,8 °C 27,7 °C 37,0 km/h (5 Bft)
11.07.2024 16:01 24,3 °C 28,7 °C 67 % 55 % 1015,8 hPa 0,0 l/m² 13,7 km/h (3 Bft) W-NW 291 ° 1 min 336 W/m² 18,7 °C 27,9 °C 24,1 km/h (4 Bft)
11.07.2024 16:02 24,3 °C 28,6 °C 67 % 56 % 1015,8 hPa 0,0 l/m² 15,0 km/h (3 Bft) N-NW 327 ° 1 min 336 W/m² 18,9 °C 27,7 °C 20,9 km/h (4 Bft)
11.07.2024 16:03 24,3 °C 28,5 °C 67 % 56 % 1015,9 hPa 0,0 l/m² 13,5 km/h (3 Bft) N-NW 327 ° 1 min 475 W/m² 18,8 °C 27,7 °C 25,7 km/h (4 Bft)
11.07.2024 16:05 24,3 °C 28,3 °C 67 % 58 % 1015,8 hPa 0,0 l/m² 16,5 km/h (3 Bft) N-NW 333 ° 2 min 475 W/m² 19,2 °C 27,2 °C 24,1 km/h (4 Bft)
11.07.2024 16:07 24,3 °C 28,2 °C 67 % 57 % 1015,9 hPa 0,0 l/m² 17,8 km/h (3 Bft) W-NW 294 ° 2 min 475 W/m² 18,9 °C 27,0 °C 27,4 km/h (5 Bft)
11.07.2024 16:09 24,3 °C 28,0 °C 67 % 58 % 1015,9 hPa 0,0 l/m² 13,7 km/h (3 Bft) N-NW 340 ° 2 min 580 W/m² 18,9 °C 27,1 °C 25,7 km/h (4 Bft)
11.07.2024 16:10 24,3 °C 27,9 °C 67 % 58 % 1015,9 hPa 0,0 l/m² 6,7 km/h (2 Bft) NW 315 ° 1 min 524 W/m² 18,9 °C 27,9 °C 19,3 km/h (3 Bft)
11.07.2024 16:11 24,3 °C 27,9 °C 67 % 59 % 1015,9 hPa 0,0 l/m² 11,7 km/h (2 Bft) NW 311 ° 1 min 524 W/m² 19,1 °C 27,2 °C 19,3 km/h (3 Bft)
11.07.2024 16:12 24,3 °C 27,8 °C 67 % 58 % 1015,9 hPa 0,0 l/m² 11,3 km/h (2 Bft) N-NW 339 ° 1 min 524 W/m² 18,8 °C 27,1 °C 20,9 km/h (4 Bft)
11.07.2024 16:14 24,3 °C 27,8 °C 67 % 60 % 1015,9 hPa 0,0 l/m² 13,4 km/h (3 Bft) N 360 ° 2 min 524 W/m² 19,3 °C 26,9 °C 24,1 km/h (4 Bft)
11.07.2024 16:16 24,3 °C 27,7 °C 67 % 59 % 1015,9 hPa 0,0 l/m² 18,3 km/h (3 Bft) N-NW 329 ° 2 min 770 W/m² 18,9 °C 26,3 °C 27,4 km/h (5 Bft)
11.07.2024 16:18 24,3 °C 27,6 °C 67 % 60 % 1015,9 hPa 0,0 l/m² 16,7 km/h (3 Bft) N-NW 346 ° 2 min 724 W/m² 19,1 °C 26,3 °C 27,4 km/h (5 Bft)
11.07.2024 16:20 24,3 °C 27,4 °C 67 % 59 % 1015,9 hPa 0,0 l/m² 15,1 km/h (3 Bft) NW 316 ° 2 min 698 W/m² 18,7 °C 26,2 °C 24,1 km/h (4 Bft)
11.07.2024 16:21 24,3 °C 27,4 °C 67 % 60 % 1015,8 hPa 0,0 l/m² 13,6 km/h (3 Bft) W-NW 302 ° 1 min 698 W/m² 18,9 °C 26,4 °C 20,9 km/h (4 Bft)
11.07.2024 16:22 24,3 °C 27,4 °C 67 % 60 % 1015,8 hPa 0,0 l/m² 17,8 km/h (3 Bft) W 277 ° 1 min 696 W/m² 18,9 °C 25,9 °C 27,4 km/h (5 Bft)
11.07.2024 16:23 24,3 °C 27,4 °C 67 % 60 % 1015,9 hPa 0,0 l/m² 13,9 km/h (3 Bft) N-NW 343 ° 1 min 694 W/m² 18,9 °C 26,3 °C 17,7 km/h (3 Bft)
11.07.2024 16:25 24,3 °C 27,3 °C 67 % 60 % 1015,9 hPa 0,0 l/m² 15,0 km/h (3 Bft) N-NW 344 ° 2 min 687 W/m² 18,8 °C 26,1 °C 24,1 km/h (4 Bft)
11.07.2024 16:27 24,3 °C 27,3 °C 67 % 60 % 1015,9 hPa 0,0 l/m² 15,6 km/h (3 Bft) NW 320 ° 2 min 687 W/m² 18,8 °C 26,0 °C 27,4 km/h (5 Bft)
11.07.2024 16:28 24,3 °C 27,2 °C 67 % 60 % 1015,9 hPa 0,0 l/m² 9,4 km/h (2 Bft) N-NW 342 ° 1 min 689 W/m² 18,7 °C 26,7 °C 16,1 km/h (3 Bft)
11.07.2024 16:29 24,3 °C 27,3 °C 67 % 61 % 1015,9 hPa 0,0 l/m² 15,3 km/h (3 Bft) N-NW 333 ° 1 min 707 W/m² 19,1 °C 26,1 °C 22,5 km/h (4 Bft)
11.07.2024 16:32 24,3 °C 27,2 °C 67 % 61 % 1015,8 hPa 0,0 l/m² 13,3 km/h (3 Bft) W-NW 293 ° 3 min 707 W/m² 19,0 °C 26,2 °C 24,1 km/h (4 Bft)
11.07.2024 16:33 24,3 °C 27,2 °C 67 % 61 % 1016,0 hPa 0,0 l/m² 10,8 km/h (2 Bft) W-NW 292 ° 1 min 742 W/m² 19,0 °C 26,5 °C 17,7 km/h (3 Bft)
11.07.2024 16:34 24,3 °C 27,2 °C 67 % 61 % 1016,0 hPa 0,0 l/m² 7,4 km/h (2 Bft) NW 325 ° 1 min 733 W/m² 19,0 °C 27,0 °C 14,5 km/h (3 Bft)
11.07.2024 16:35 24,3 °C 27,2 °C 67 % 62 % 1015,9 hPa 0,0 l/m² 10,0 km/h (2 Bft) N-NW 339 ° 1 min 722 W/m² 19,3 °C 26,6 °C 19,3 km/h (3 Bft)
11.07.2024 16:37 24,3 °C 27,3 °C 67 % 61 % 1015,8 hPa 0,0 l/m² 13,5 km/h (3 Bft) W-NW 301 ° 2 min 722 W/m² 19,1 °C 26,3 °C 25,7 km/h (4 Bft)
11.07.2024 16:39 24,3 °C 27,3 °C 67 % 61 % 1015,9 hPa 0,0 l/m² 13,9 km/h (3 Bft) NW 324 ° 2 min 656 W/m² 19,1 °C 26,2 °C 20,9 km/h (4 Bft)
11.07.2024 16:40 24,3 °C 27,3 °C 67 % 61 % 1015,9 hPa 0,0 l/m² 10,6 km/h (2 Bft) N 5 ° 1 min 650 W/m² 19,1 °C 26,6 °C 24,1 km/h (4 Bft)
11.07.2024 16:41 24,3 °C 27,3 °C 67 % 61 % 1015,9 hPa 0,0 l/m² 15,0 km/h (3 Bft) NW 305 ° 1 min 649 W/m² 19,1 °C 26,1 °C 17,7 km/h (3 Bft)
11.07.2024 16:42 24,3 °C 27,3 °C 67 % 61 % 1015,8 hPa 0,0 l/m² 12,9 km/h (3 Bft) NW 321 ° 1 min 645 W/m² 19,1 °C 26,3 °C 20,9 km/h (4 Bft)
11.07.2024 16:44 24,3 °C 27,3 °C 67 % 61 % 1015,9 hPa 0,0 l/m² 13,3 km/h (3 Bft) N 355 ° 2 min 642 W/m² 19,1 °C 26,3 °C 17,7 km/h (3 Bft)
11.07.2024 16:46 24,3 °C 27,4 °C 66 % 61 % 1015,8 hPa 0,0 l/m² 14,1 km/h (3 Bft) N-NW 342 ° 2 min 633 W/m² 19,2 °C 26,3 °C 22,5 km/h (4 Bft)
11.07.2024 16:48 24,3 °C 27,4 °C 66 % 61 % 1015,8 hPa 0,0 l/m² 13,0 km/h (3 Bft) N-NW 344 ° 2 min 628 W/m² 19,2 °C 26,4 °C 19,3 km/h (3 Bft)
11.07.2024 16:50 24,3 °C 27,3 °C 66 % 60 % 1015,8 hPa 0,0 l/m² 15,0 km/h (3 Bft) N-NW 344 ° 2 min 626 W/m² 18,8 °C 26,1 °C 20,9 km/h (4 Bft)
11.07.2024 16:51 24,3 °C 27,3 °C 66 % 60 % 1015,7 hPa 0,0 l/m² 12,6 km/h (3 Bft) N-NW 348 ° 1 min 615 W/m² 18,8 °C 26,4 °C 17,7 km/h (3 Bft)
11.07.2024 16:52 24,3 °C 27,3 °C 66 % 60 % 1015,7 hPa 0,0 l/m² 13,6 km/h (3 Bft) N 360 ° 1 min 617 W/m² 18,8 °C 26,2 °C 19,3 km/h (3 Bft)
11.07.2024 16:53 24,3 °C 27,3 °C 66 % 60 % 1015,7 hPa 0,0 l/m² 13,3 km/h (3 Bft) NW 326 ° 1 min 612 W/m² 18,8 °C 26,3 °C 17,7 km/h (3 Bft)
11.07.2024 16:55 24,3 °C 27,3 °C 66 % 60 % 1015,7 hPa 0,0 l/m² 12,8 km/h (3 Bft) N-NW 340 ° 2 min 548 W/m² 18,8 °C 26,3 °C 20,9 km/h (4 Bft)
11.07.2024 16:57 24,3 °C 27,3 °C 66 % 59 % 1015,7 hPa 0,0 l/m² 15,5 km/h (3 Bft) W-NW 296 ° 2 min 568 W/m² 18,6 °C 26,0 °C 20,9 km/h (4 Bft)
11.07.2024 16:59 24,3 °C 27,2 °C 66 % 60 % 1015,7 hPa 0,0 l/m² 13,8 km/h (3 Bft) NW 309 ° 2 min 621 W/m² 18,7 °C 26,1 °C 17,7 km/h (3 Bft)
11.07.2024 17:00 24,3 °C 27,2 °C 66 % 60 % 1015,7 hPa 0,0 l/m² 13,1 km/h (3 Bft) N 349 ° 1 min 116 W/m² 18,7 °C 26,2 °C 17,7 km/h (3 Bft)
11.07.2024 17:01 24,3 °C 27,2 °C 66 % 59 % 1015,7 hPa 0,0 l/m² 14,2 km/h (3 Bft) N-NW 336 ° 1 min 142 W/m² 18,5 °C 26,1 °C 17,7 km/h (3 Bft)
11.07.2024 17:02 24,3 °C 27,1 °C 66 % 60 % 1015,8 hPa 0,0 l/m² 12,1 km/h (2 Bft) NW 325 ° 1 min 139 W/m² 18,6 °C 26,2 °C 17,7 km/h (3 Bft)
11.07.2024 17:04 24,3 °C 27,1 °C 66 % 60 % 1015,8 hPa 0,0 l/m² 12,3 km/h (2 Bft) W-NW 302 ° 2 min 480 W/m² 18,6 °C 26,2 °C 20,9 km/h (4 Bft)
11.07.2024 17:06 24,3 °C 26,9 °C 66 % 60 % 1015,8 hPa 0,0 l/m² 12,1 km/h (2 Bft) N 5 ° 2 min 223 W/m² 18,5 °C 26,0 °C 19,3 km/h (3 Bft)
11.07.2024 17:08 24,3 °C 26,8 °C 66 % 60 % 1015,8 hPa 0,0 l/m² 13,0 km/h (3 Bft) N 355 ° 2 min 218 W/m² 18,4 °C 25,7 °C 17,7 km/h (3 Bft)
11.07.2024 17:10 24,3 °C 26,8 °C 66 % 61 % 1015,8 hPa 0,0 l/m² 8,6 km/h (2 Bft) NW 321 ° 2 min 218 W/m² 18,6 °C 26,4 °C 19,3 km/h (3 Bft)
11.07.2024 17:11 24,3 °C 26,8 °C 66 % 62 % 1015,8 hPa 0,0 l/m² 6,7 km/h (2 Bft) NW 319 ° 1 min 218 W/m² 18,9 °C 26,7 °C 12,9 km/h (3 Bft)
11.07.2024 17:12 24,3 °C 26,8 °C 66 % 62 % 1015,8 hPa 0,0 l/m² 10,4 km/h (2 Bft) NW 305 ° 1 min 552 W/m² 18,9 °C 26,1 °C 17,7 km/h (3 Bft)
11.07.2024 17:13 24,3 °C 26,7 °C 67 % 62 % 1015,8 hPa 0,0 l/m² 13,3 km/h (3 Bft) N-NW 327 ° 1 min 650 W/m² 18,8 °C 25,6 °C 19,3 km/h (3 Bft)
11.07.2024 17:15 24,3 °C 26,7 °C 67 % 62 % 1015,8 hPa 0,0 l/m² 12,5 km/h (2 Bft) N-NW 338 ° 2 min 636 W/m² 18,8 °C 25,7 °C 16,1 km/h (3 Bft)
11.07.2024 17:16 24,3 °C 26,7 °C 67 % 62 % 1015,7 hPa 0,0 l/m² 9,3 km/h (2 Bft) N-NW 333 ° 1 min 624 W/m² 18,8 °C 26,2 °C 16,1 km/h (3 Bft)
11.07.2024 17:17 24,3 °C 26,7 °C 67 % 62 % 1015,7 hPa 0,0 l/m² 12,1 km/h (2 Bft) W-NW 296 ° 1 min 578 W/m² 18,8 °C 25,7 °C 16,1 km/h (3 Bft)
11.07.2024 17:18 24,3 °C 26,7 °C 67 % 63 % 1015,7 hPa 0,0 l/m² 11,1 km/h (2 Bft) NW 321 ° 1 min 575 W/m² 19,1 °C 25,9 °C 25,7 km/h (4 Bft)
11.07.2024 17:20 24,3 °C 26,7 °C 67 % 62 % 1015,7 hPa 0,0 l/m² 13,1 km/h (3 Bft) W 263 ° 2 min 570 W/m² 18,8 °C 25,6 °C 22,5 km/h (4 Bft)
11.07.2024 17:21 24,3 °C 26,7 °C 67 % 62 % 1015,8 hPa 0,0 l/m² 9,7 km/h (2 Bft) NW 313 ° 1 min 543 W/m² 18,8 °C 26,1 °C 16,1 km/h (3 Bft)
11.07.2024 17:22 24,3 °C 26,7 °C 67 % 62 % 1015,7 hPa 0,0 l/m² 10,9 km/h (2 Bft) NW 321 ° 1 min 557 W/m² 18,8 °C 25,9 °C 19,3 km/h (3 Bft)
11.07.2024 17:23 24,3 °C 26,7 °C 67 % 63 % 1015,7 hPa 0,0 l/m² 16,2 km/h (3 Bft) N-NW 327 ° 1 min 550 W/m² 19,1 °C 25,2 °C 20,9 km/h (4 Bft)
11.07.2024 17:24 24,3 °C 26,8 °C 67 % 62 % 1015,8 hPa 0,0 l/m² 13,1 km/h (3 Bft) NW 316 ° 1 min 548 W/m² 18,9 °C 25,7 °C 20,9 km/h (4 Bft)
11.07.2024 17:26 24,3 °C 26,8 °C 67 % 62 % 1015,8 hPa 0,0 l/m² 11,9 km/h (2 Bft) N 5 ° 2 min 454 W/m² 18,9 °C 25,9 °C 20,9 km/h (4 Bft)
11.07.2024 17:28 24,3 °C 26,8 °C 67 % 62 % 1015,8 hPa 0,0 l/m² 8,8 km/h (2 Bft) W-NW 298 ° 2 min 371 W/m² 18,9 °C 26,3 °C 17,7 km/h (3 Bft)
11.07.2024 17:30 24,3 °C 26,8 °C 67 % 62 % 1015,8 hPa 0,0 l/m² 9,7 km/h (2 Bft) NW 323 ° 2 min 174 W/m² 18,9 °C 26,2 °C 16,1 km/h (3 Bft)
11.07.2024 17:31 24,3 °C 26,8 °C 67 % 62 % 1015,8 hPa 0,0 l/m² 6,5 km/h (2 Bft) NW 325 ° 1 min 156 W/m² 18,9 °C 26,8 °C 12,9 km/h (3 Bft)
11.07.2024 17:32 24,3 °C 26,8 °C 67 % 62 % 1015,8 hPa 0,0 l/m² 6,8 km/h (2 Bft) W 270 ° 1 min 144 W/m² 18,9 °C 26,7 °C 9,7 km/h (2 Bft)
11.07.2024 17:33 24,4 °C 26,8 °C 67 % 62 % 1015,8 hPa 0,0 l/m² 4,6 km/h (1 Bft) NW 315 ° 1 min 132 W/m² 18,9 °C 26,8 °C 8,0 km/h (2 Bft)
11.07.2024 17:35 24,4 °C 26,7 °C 67 % 62 % 1015,8 hPa 0,0 l/m² 8,8 km/h (2 Bft) NW 304 ° 2 min 123 W/m² 18,8 °C 26,2 °C 16,1 km/h (3 Bft)
11.07.2024 17:36 24,4 °C 26,7 °C 67 % 62 % 1015,8 hPa 0,0 l/m² 7,6 km/h (2 Bft) N-NW 337 ° 1 min 121 W/m² 18,8 °C 26,5 °C 14,5 km/h (3 Bft)
11.07.2024 17:37 24,3 °C 26,7 °C 67 % 62 % 1015,7 hPa 0,0 l/m² 9,0 km/h (2 Bft) N-NW 333 ° 1 min 120 W/m² 18,8 °C 26,2 °C 14,5 km/h (3 Bft)
11.07.2024 17:38 24,3 °C 26,7 °C 67 % 62 % 1015,7 hPa 0,0 l/m² 9,7 km/h (2 Bft) W 281 ° 1 min 121 W/m² 18,8 °C 26,1 °C 14,5 km/h (3 Bft)
11.07.2024 17:40 24,3 °C 26,6 °C 67 % 61 % 1015,8 hPa 0,0 l/m² 8,7 km/h (2 Bft) N 355 ° 2 min 127 W/m² 18,4 °C 26,2 °C 14,5 km/h (3 Bft)
11.07.2024 17:41 24,3 °C 26,6 °C 67 % 61 % 1015,8 hPa 0,0 l/m² 10,8 km/h (2 Bft) NW 308 ° 1 min 128 W/m² 18,4 °C 25,8 °C 17,7 km/h (3 Bft)
11.07.2024 17:42 24,3 °C 26,5 °C 67 % 61 % 1015,8 hPa 0,0 l/m² 7,9 km/h (2 Bft) W-NW 298 ° 1 min 132 W/m² 18,4 °C 26,2 °C 14,5 km/h (3 Bft)
11.07.2024 17:43 24,3 °C 26,5 °C 67 % 61 % 1015,8 hPa 0,0 l/m² 8,2 km/h (2 Bft) NW 312 ° 1 min 139 W/m² 18,4 °C 26,1 °C 12,9 km/h (3 Bft)
11.07.2024 17:45 24,3 °C 26,4 °C 67 % 61 % 1015,8 hPa 0,0 l/m² 9,3 km/h (2 Bft) N-NW 339 ° 2 min 144 W/m² 18,3 °C 25,8 °C 16,1 km/h (3 Bft)
11.07.2024 17:46 24,3 °C 26,4 °C 67 % 62 % 1015,7 hPa 0,0 l/m² 7,5 km/h (2 Bft) NW 317 ° 1 min 146 W/m² 18,5 °C 26,2 °C 12,9 km/h (3 Bft)
11.07.2024 17:47 24,3 °C 26,3 °C 67 % 62 % 1015,7 hPa 0,0 l/m² 5,5 km/h (2 Bft) W-NW 301 ° 1 min 146 W/m² 18,4 °C 26,3 °C 8,0 km/h (2 Bft)
11.07.2024 17:49 24,3 °C 26,3 °C 67 % 62 % 1015,8 hPa 0,0 l/m² 5,4 km/h (2 Bft) W 278 ° 2 min 144 W/m² 18,4 °C 26,3 °C 11,3 km/h (2 Bft)
11.07.2024 17:50 24,3 °C 26,2 °C 67 % 62 % 1015,9 hPa 0,0 l/m² 7,5 km/h (2 Bft) NW 311 ° 1 min 141 W/m² 18,3 °C 26,0 °C 11,3 km/h (2 Bft)
11.07.2024 17:51 24,3 °C 26,2 °C 67 % 62 % 1015,9 hPa 0,0 l/m² 5,5 km/h (2 Bft) W-NW 282 ° 1 min 139 W/m² 18,3 °C 26,2 °C 9,7 km/h (2 Bft)
11.07.2024 17:52 24,3 °C 26,2 °C 67 % 63 % 1015,8 hPa 0,0 l/m² 1,7 km/h (1 Bft) NW 310 ° 1 min 135 W/m² 18,6 °C 26,2 °C 4,8 km/h (1 Bft)
11.07.2024 17:54 24,3 °C 26,1 °C 67 % 63 % 1015,8 hPa 0,0 l/m² 5,1 km/h (1 Bft) NW 311 ° 2 min 132 W/m² 18,5 °C 26,1 °C 14,5 km/h (3 Bft)
11.07.2024 17:56 24,3 °C 26,1 °C 67 % 63 % 1015,9 hPa 0,0 l/m² 5,4 km/h (2 Bft) NW 310 ° 2 min 127 W/m² 18,5 °C 26,1 °C 8,0 km/h (2 Bft)
11.07.2024 17:58 24,3 °C 25,9 °C 67 % 63 % 1016,0 hPa 0,0 l/m² 3,4 km/h (1 Bft) W 278 ° 2 min 130 W/m² 18,3 °C 25,9 °C 8,0 km/h (2 Bft)
11.07.2024 18:00 24,3 °C 25,9 °C 67 % 64 % 1016,0 hPa 0,0 l/m² 4,3 km/h (1 Bft) W-NW 293 ° 2 min 142 W/m² 18,6 °C 25,9 °C 8,0 km/h (2 Bft)
11.07.2024 18:01 24,3 °C 25,9 °C 67 % 64 % 1015,9 hPa 0,0 l/m² 6,2 km/h (2 Bft) NW 323 ° 1 min 165 W/m² 18,6 °C 25,9 °C 9,7 km/h (2 Bft)
11.07.2024 18:02 24,3 °C 25,8 °C 67 % 64 % 1015,9 hPa 0,0 l/m² 3,4 km/h (1 Bft) NW 311 ° 1 min 176 W/m² 18,5 °C 25,8 °C 4,8 km/h (1 Bft)
11.07.2024 18:03 24,3 °C 25,8 °C 67 % 64 % 1016,0 hPa 0,0 l/m² 3,8 km/h (1 Bft) N-NW 331 ° 1 min 181 W/m² 18,5 °C 25,8 °C 8,0 km/h (2 Bft)
11.07.2024 18:05 24,3 °C 25,8 °C 67 % 64 % 1015,9 hPa 0,0 l/m² 4,2 km/h (1 Bft) W-NW 300 ° 2 min 176 W/m² 18,5 °C 25,8 °C 12,9 km/h (3 Bft)
11.07.2024 18:07 24,3 °C 25,7 °C 67 % 64 % 1015,9 hPa 0,0 l/m² 8,4 km/h (2 Bft) N-NW 341 ° 2 min 183 W/m² 18,4 °C 25,3 °C 12,9 km/h (3 Bft)
11.07.2024 18:09 24,3 °C 25,7 °C 67 % 64 % 1016,0 hPa 0,0 l/m² 6,8 km/h (2 Bft) W 279 ° 2 min 287 W/m² 18,4 °C 25,6 °C 16,1 km/h (3 Bft)
11.07.2024 18:10 24,3 °C 25,7 °C 67 % 64 % 1015,9 hPa 0,0 l/m² 4,6 km/h (1 Bft) NW 319 ° 1 min 287 W/m² 18,4 °C 25,7 °C 8,0 km/h (2 Bft)
11.07.2024 18:11 24,3 °C 25,7 °C 67 % 64 % 1015,9 hPa 0,0 l/m² 6,1 km/h (2 Bft) NW 321 ° 1 min 230 W/m² 18,4 °C 25,7 °C 8,0 km/h (2 Bft)
11.07.2024 18:12 24,3 °C 25,7 °C 67 % 64 % 1015,9 hPa 0,0 l/m² 4,6 km/h (1 Bft) N-NW 328 ° 1 min 223 W/m² 18,4 °C 25,7 °C 8,0 km/h (2 Bft)
11.07.2024 18:14 24,3 °C 25,6 °C 67 % 64 % 1015,8 hPa 0,0 l/m² 6,0 km/h (2 Bft) N-NW 338 ° 2 min 183 W/m² 18,3 °C 25,6 °C 9,7 km/h (2 Bft)
11.07.2024 18:16 24,2 °C 25,6 °C 67 % 65 % 1015,9 hPa 0,0 l/m² 4,7 km/h (1 Bft) W-NW 293 ° 2 min 163 W/m² 18,5 °C 25,6 °C 9,7 km/h (2 Bft)
11.07.2024 18:18 24,3 °C 25,6 °C 67 % 65 % 1015,9 hPa 0,0 l/m² 4,9 km/h (1 Bft) N-NW 336 ° 2 min 139 W/m² 18,5 °C 25,6 °C 8,0 km/h (2 Bft)
11.07.2024 18:20 24,2 °C 25,6 °C 67 % 65 % 1015,8 hPa 0,0 l/m² 5,3 km/h (1 Bft) W 270 ° 2 min 130 W/m² 18,5 °C 25,6 °C 14,5 km/h (3 Bft)
11.07.2024 18:21 24,2 °C 25,5 °C 67 % 65 % 1015,8 hPa 0,0 l/m² 4,1 km/h (1 Bft) W 267 ° 1 min 120 W/m² 18,4 °C 25,5 °C 9,7 km/h (2 Bft)
11.07.2024 18:22 24,2 °C 25,5 °C 67 % 65 % 1015,8 hPa 0,0 l/m² 2,9 km/h (1 Bft) NW 326 ° 1 min 107 W/m² 18,4 °C 25,5 °C 6,4 km/h (2 Bft)
11.07.2024 18:23 24,3 °C 25,5 °C 67 % 65 % 1015,8 hPa 0,0 l/m² 4,1 km/h (1 Bft) NW 306 ° 1 min 95 W/m² 18,4 °C 25,5 °C 6,4 km/h (2 Bft)
11.07.2024 18:25 24,2 °C 25,4 °C 67 % 65 % 1015,9 hPa 0,0 l/m² 4,4 km/h (1 Bft) N-NW 336 ° 2 min 79 W/m² 18,3 °C 25,4 °C 9,7 km/h (2 Bft)
11.07.2024 18:27 24,2 °C 25,4 °C 67 % 65 % 1015,9 hPa 0,0 l/m² 5,5 km/h (2 Bft) NW 322 ° 2 min 81 W/m² 18,3 °C 25,4 °C 8,0 km/h (2 Bft)
11.07.2024 18:29 24,3 °C 25,4 °C 67 % 65 % 1015,8 hPa 0,0 l/m² 5,1 km/h (1 Bft) N 355 ° 2 min 77 W/m² 18,3 °C 25,4 °C 8,0 km/h (2 Bft)
11.07.2024 18:30 24,3 °C 25,4 °C 67 % 65 % 1015,9 hPa 0,0 l/m² 4,9 km/h (1 Bft) NW 306 ° 1 min 69 W/m² 18,3 °C 25,4 °C 6,4 km/h (2 Bft)
11.07.2024 18:31 24,3 °C 25,4 °C 67 % 65 % 1015,9 hPa 0,0 l/m² 6,1 km/h (2 Bft) N-NW 348 ° 1 min 67 W/m² 18,3 °C 25,4 °C 8,0 km/h (2 Bft)
11.07.2024 18:32 24,3 °C 25,4 °C 67 % 65 % 1015,8 hPa 0,0 l/m² 6,4 km/h (2 Bft) N-NW 332 ° 1 min 69 W/m² 18,3 °C 25,4 °C 9,7 km/h (2 Bft)
11.07.2024 18:34 24,3 °C 25,3 °C 67 % 65 % 1015,9 hPa 0,0 l/m² 7,1 km/h (2 Bft) N 349 ° 2 min 77 W/m² 18,2 °C 25,1 °C 12,9 km/h (3 Bft)
11.07.2024 18:36 24,3 °C 25,3 °C 67 % 65 % 1015,9 hPa 0,0 l/m² 5,3 km/h (1 Bft) N-NW 340 ° 2 min 91 W/m² 18,2 °C 25,3 °C 8,0 km/h (2 Bft)
11.07.2024 18:38 24,3 °C 25,3 °C 67 % 65 % 1015,9 hPa 0,0 l/m² 4,0 km/h (1 Bft) N-NW 336 ° 2 min 88 W/m² 18,2 °C 25,3 °C 6,4 km/h (2 Bft)
11.07.2024 18:40 24,3 °C 25,2 °C 67 % 65 % 1015,9 hPa 0,0 l/m² 3,6 km/h (1 Bft) N 355 ° 2 min 86 W/m² 18,1 °C 25,2 °C 6,4 km/h (2 Bft)
11.07.2024 18:41 24,3 °C 25,2 °C 67 % 65 % 1015,9 hPa 0,0 l/m² 4,4 km/h (1 Bft) N-NW 338 ° 1 min 95 W/m² 18,1 °C 25,2 °C 8,0 km/h (2 Bft)
11.07.2024 18:42 24,3 °C 25,2 °C 67 % 65 % 1015,9 hPa 0,0 l/m² 2,4 km/h (1 Bft) N-NW 345 ° 1 min 105 W/m² 18,1 °C 25,2 °C 4,8 km/h (1 Bft)
11.07.2024 18:43 24,3 °C 25,2 °C 68 % 65 % 1015,9 hPa 0,0 l/m² 2,5 km/h (1 Bft) NW 317 ° 1 min 105 W/m² 18,1 °C 25,2 °C 4,8 km/h (1 Bft)
11.07.2024 18:45 24,3 °C 25,2 °C 68 % 65 % 1015,8 hPa 0,0 l/m² 4,3 km/h (1 Bft) N-NW 336 ° 2 min 105 W/m² 18,1 °C 25,2 °C 8,0 km/h (2 Bft)
11.07.2024 18:46 24,4 °C 25,1 °C 68 % 65 % 1015,9 hPa 0,0 l/m² 4,8 km/h (1 Bft) NW 315 ° 1 min 105 W/m² 18,0 °C 25,1 °C 8,0 km/h (2 Bft)
11.07.2024 18:47 24,4 °C 25,1 °C 68 % 65 % 1015,9 hPa 0,0 l/m² 4,9 km/h (1 Bft) N-NW 333 ° 1 min 121 W/m² 18,0 °C 25,1 °C 8,0 km/h (2 Bft)
11.07.2024 18:48 24,4 °C 25,1 °C 68 % 65 % 1015,9 hPa 0,0 l/m² 6,4 km/h (2 Bft) N-NW 344 ° 1 min 362 W/m² 18,0 °C 25,1 °C 11,3 km/h (2 Bft)
11.07.2024 18:50 24,4 °C 25,1 °C 68 % 65 % 1015,9 hPa 0,0 l/m² 4,1 km/h (1 Bft) N-NW 340 ° 2 min 348 W/m² 18,0 °C 25,1 °C 6,4 km/h (2 Bft)
11.07.2024 18:51 24,4 °C 25,1 °C 68 % 66 % 1015,9 hPa 0,0 l/m² 4,0 km/h (1 Bft) W-NW 286 ° 1 min 338 W/m² 18,3 °C 25,1 °C 8,0 km/h (2 Bft)
11.07.2024 18:52 24,4 °C 25,1 °C 68 % 66 % 1015,9 hPa 0,0 l/m² 5,0 km/h (1 Bft) N-NW 331 ° 1 min 364 W/m² 18,3 °C 25,1 °C 8,0 km/h (2 Bft)
11.07.2024 18:53 24,4 °C 25,1 °C 68 % 65 % 1015,9 hPa 0,0 l/m² 4,0 km/h (1 Bft) W-NW 290 ° 1 min 329 W/m² 18,0 °C 25,1 °C 8,0 km/h (2 Bft)
11.07.2024 18:55 24,4 °C 25,1 °C 68 % 66 % 1015,9 hPa 0,0 l/m² 3,5 km/h (1 Bft) N-NW 344 ° 2 min 153 W/m² 18,3 °C 25,1 °C 6,4 km/h (2 Bft)
11.07.2024 18:57 24,5 °C 25,1 °C 68 % 66 % 1015,9 hPa 0,0 l/m² 2,1 km/h (1 Bft) N-NO 19 ° 2 min 123 W/m² 18,3 °C 25,1 °C 6,4 km/h (2 Bft)
11.07.2024 18:59 24,5 °C 25,1 °C 68 % 65 % 1015,9 hPa 0,0 l/m² 4,2 km/h (1 Bft) NO 40 ° 2 min 120 W/m² 18,0 °C 25,1 °C 6,4 km/h (2 Bft)
11.07.2024 19:00 24,5 °C 25,1 °C 68 % 65 % 1015,9 hPa 0,0 l/m² 5,9 km/h (2 Bft) NO 46 ° 1 min 125 W/m² 18,0 °C 25,1 °C 12,9 km/h (3 Bft)
11.07.2024 19:01 24,5 °C 25,1 °C 68 % 65 % 1015,9 hPa 0,0 l/m² 6,2 km/h (2 Bft) N 5 ° 1 min 127 W/m² 18,0 °C 25,1 °C 8,0 km/h (2 Bft)
11.07.2024 19:02 24,5 °C 25,1 °C 68 % 65 % 1016,0 hPa 0,0 l/m² 4,4 km/h (1 Bft) N 360 ° 1 min 130 W/m² 18,0 °C 25,1 °C 8,0 km/h (2 Bft)
11.07.2024 19:04 24,6 °C 25,1 °C 68 % 64 % 1016,1 hPa 0,0 l/m² 6,8 km/h (2 Bft) N 11 ° 2 min 139 W/m² 17,8 °C 25,0 °C 11,3 km/h (2 Bft)
11.07.2024 19:06 24,6 °C 25,1 °C 68 % 65 % 1016,0 hPa 0,0 l/m² 6,3 km/h (2 Bft) N-NW 336 ° 2 min 149 W/m² 18,0 °C 25,1 °C 12,9 km/h (3 Bft)
11.07.2024 19:08 24,6 °C 25,2 °C 68 % 65 % 1016,1 hPa 0,0 l/m² 8,5 km/h (2 Bft) N 10 ° 2 min 155 W/m² 18,1 °C 24,7 °C 14,5 km/h (3 Bft)
11.07.2024 19:10 24,6 °C 25,2 °C 68 % 64 % 1016,0 hPa 0,0 l/m² 9,3 km/h (2 Bft) N-NW 346 ° 2 min 151 W/m² 17,9 °C 24,5 °C 16,1 km/h (3 Bft)
11.07.2024 19:11 24,6 °C 25,2 °C 68 % 64 % 1016,1 hPa 0,0 l/m² 8,9 km/h (2 Bft) N-NO 27 ° 1 min 130 W/m² 17,9 °C 24,6 °C 14,5 km/h (3 Bft)
11.07.2024 19:12 24,6 °C 25,2 °C 68 % 64 % 1016,1 hPa 0,0 l/m² 5,4 km/h (2 Bft) N-NW 336 ° 1 min 116 W/m² 17,9 °C 25,2 °C 8,0 km/h (2 Bft)
11.07.2024 19:13 24,6 °C 25,2 °C 68 % 64 % 1016,0 hPa 0,0 l/m² 5,6 km/h (2 Bft) N 360 ° 1 min 107 W/m² 17,9 °C 25,2 °C 9,7 km/h (2 Bft)
11.07.2024 19:15 24,6 °C 25,2 °C 68 % 65 % 1016,0 hPa 0,0 l/m² 2,9 km/h (1 Bft) N-NO 24 ° 2 min 104 W/m² 18,1 °C 25,2 °C 6,4 km/h (2 Bft)
11.07.2024 19:16 24,6 °C 25,2 °C 68 % 64 % 1016,1 hPa 0,0 l/m² 1,0 km/h (0 Bft) N-NO 20 ° 1 min 102 W/m² 17,9 °C 25,2 °C 3,2 km/h (1 Bft)
11.07.2024 19:17 24,6 °C 25,2 °C 68 % 64 % 1016,1 hPa 0,0 l/m² 1,3 km/h (1 Bft) NW 325 ° 1 min 102 W/m² 17,9 °C 25,2 °C 6,4 km/h (2 Bft)
11.07.2024 19:19 24,6 °C 25,3 °C 68 % 64 % 1016,0 hPa 0,0 l/m² 3,8 km/h (1 Bft) NW 321 ° 2 min 100 W/m² 18,0 °C 25,3 °C 8,0 km/h (2 Bft)
11.07.2024 19:22 24,6 °C 25,3 °C 68 % 65 % 1016,0 hPa 0,0 l/m² 5,3 km/h (1 Bft) N-NW 342 ° 3 min 86 W/m² 18,2 °C 25,3 °C 9,7 km/h (2 Bft)
11.07.2024 19:23 24,6 °C 25,3 °C 68 % 65 % 1015,9 hPa 0,0 l/m² 2,7 km/h (1 Bft) NO 36 ° 1 min 69 W/m² 18,2 °C 25,3 °C 4,8 km/h (1 Bft)
11.07.2024 19:24 24,6 °C 25,3 °C 68 % 65 % 1015,9 hPa 0,0 l/m² 6,2 km/h (2 Bft) N-NO 13 ° 1 min 63 W/m² 18,2 °C 25,3 °C 8,0 km/h (2 Bft)
11.07.2024 19:25 24,6 °C 25,3 °C 68 % 65 % 1016,0 hPa 0,0 l/m² 3,6 km/h (1 Bft) N-NW 329 ° 1 min 60 W/m² 18,2 °C 25,3 °C 6,4 km/h (2 Bft)
11.07.2024 19:27 24,6 °C 25,3 °C 68 % 65 % 1015,9 hPa 0,0 l/m² 3,9 km/h (1 Bft) N-NW 331 ° 2 min 56 W/m² 18,2 °C 25,3 °C 6,4 km/h (2 Bft)
11.07.2024 19:29 24,6 °C 25,3 °C 68 % 65 % 1016,0 hPa 0,0 l/m² 3,8 km/h (1 Bft) N-NW 337 ° 0 min 49 W/m² 18,2 °C 25,3 °C 8,0 km/h (2 Bft)
11.07.2024 19:32 24,5 °C 25,3 °C 68 % 64 % 1016,0 hPa 0,0 l/m² 6,1 km/h (2 Bft) N-NW 336 ° 0 min 46 W/m² 18,0 °C 25,3 °C 9,7 km/h (2 Bft)
11.07.2024 19:33 24,5 °C 25,3 °C 68 % 64 % 1016,0 hPa 0,0 l/m² 4,6 km/h (1 Bft) N 355 ° 0 min 44 W/m² 18,0 °C 25,3 °C 6,4 km/h (2 Bft)
11.07.2024 19:34 24,5 °C 25,3 °C 68 % 64 % 1016,0 hPa 0,0 l/m² 2,5 km/h (1 Bft) N 355 ° 0 min 44 W/m² 18,0 °C 25,3 °C 4,8 km/h (1 Bft)
11.07.2024 19:35 24,6 °C 25,3 °C 68 % 64 % 1016,0 hPa 0,0 l/m² 4,0 km/h (1 Bft) NW 324 ° 0 min 46 W/m² 18,0 °C 25,3 °C 6,4 km/h (2 Bft)
11.07.2024 19:37 24,6 °C 25,3 °C 68 % 65 % 1016,0 hPa 0,0 l/m² 4,4 km/h (1 Bft) N-NO 16 ° 0 min 44 W/m² 18,2 °C 25,3 °C 6,4 km/h (2 Bft)
11.07.2024 19:39 24,6 °C 25,3 °C 68 % 64 % 1016,0 hPa 0,0 l/m² 5,4 km/h (2 Bft) NO 38 ° 0 min 44 W/m² 18,0 °C 25,3 °C 8,0 km/h (2 Bft)
11.07.2024 19:40 24,5 °C 25,3 °C 68 % 64 % 1016,1 hPa 0,0 l/m² 3,1 km/h (1 Bft) N-NO 20 ° 0 min 46 W/m² 18,0 °C 25,3 °C 4,8 km/h (1 Bft)
11.07.2024 19:41 24,5 °C 25,3 °C 68 % 65 % 1016,1 hPa 0,0 l/m² 3,1 km/h (1 Bft) N-NO 16 ° 0 min 46 W/m² 18,2 °C 25,3 °C 6,4 km/h (2 Bft)
11.07.2024 19:42 24,5 °C 25,3 °C 68 % 65 % 1016,0 hPa 0,0 l/m² 4,0 km/h (1 Bft) N 9 ° 0 min 46 W/m² 18,2 °C 25,3 °C 6,4 km/h (2 Bft)
11.07.2024 19:44 24,5 °C 25,3 °C 68 % 65 % 1015,9 hPa 0,0 l/m² 3,3 km/h (1 Bft) N-NW 332 ° 0 min 42 W/m² 18,2 °C 25,3 °C 8,0 km/h (2 Bft)
11.07.2024 19:46 24,5 °C 25,3 °C 68 % 65 % 1016,0 hPa 0,0 l/m² 2,4 km/h (1 Bft) N-NW 333 ° 0 min 42 W/m² 18,2 °C 25,3 °C 6,4 km/h (2 Bft)
11.07.2024 19:48 24,5 °C 25,2 °C 68 % 65 % 1016,0 hPa 0,0 l/m² 3,0 km/h (1 Bft) N-NW 331 ° 0 min 49 W/m² 18,1 °C 25,2 °C 6,4 km/h (2 Bft)
11.07.2024 19:50 24,5 °C 25,2 °C 68 % 65 % 1016,1 hPa 0,0 l/m² 2,6 km/h (1 Bft) NW 311 ° 0 min 49 W/m² 18,1 °C 25,2 °C 4,8 km/h (1 Bft)
11.07.2024 19:51 24,5 °C 25,2 °C 68 % 65 % 1016,1 hPa 0,0 l/m² 5,0 km/h (1 Bft) N-NW 334 ° 0 min 47 W/m² 18,1 °C 25,2 °C 8,0 km/h (2 Bft)
11.07.2024 19:52 24,5 °C 25,2 °C 68 % 65 % 1016,1 hPa 0,0 l/m² 6,8 km/h (2 Bft) N-NW 339 ° 0 min 39 W/m² 18,1 °C 25,1 °C 8,0 km/h (2 Bft)
11.07.2024 19:53 24,4 °C 25,2 °C 68 % 65 % 1016,0 hPa 0,0 l/m² 5,8 km/h (2 Bft) N-NW 338 ° 0 min 39 W/m² 18,1 °C 25,2 °C 8,0 km/h (2 Bft)
11.07.2024 19:55 24,5 °C 25,2 °C 68 % 64 % 1015,9 hPa 0,0 l/m² 6,6 km/h (2 Bft) N-NW 346 ° 0 min 39 W/m² 17,9 °C 25,2 °C 9,7 km/h (2 Bft)
11.07.2024 19:56 24,5 °C 25,2 °C 68 % 64 % 1016,0 hPa 0,0 l/m² 4,0 km/h (1 Bft) N-NW 344 ° 0 min 39 W/m² 17,9 °C 25,2 °C 4,8 km/h (1 Bft)
11.07.2024 19:57 24,5 °C 25,1 °C 68 % 64 % 1016,1 hPa 0,0 l/m² 1,3 km/h (1 Bft) W-NW 303 ° 0 min 42 W/m² 17,8 °C 25,1 °C 3,2 km/h (1 Bft)
11.07.2024 19:58 24,5 °C 25,1 °C 68 % 65 % 1016,1 hPa 0,0 l/m² 2,3 km/h (1 Bft) W 275 ° 0 min 47 W/m² 18,0 °C 25,1 °C 4,8 km/h (1 Bft)
11.07.2024 20:00 24,4 °C 25,1 °C 68 % 65 % 1016,1 hPa 0,0 l/m² 2,1 km/h (1 Bft) W-NW 295 ° 0 min 49 W/m² 18,0 °C 25,1 °C 4,8 km/h (1 Bft)
11.07.2024 20:01 24,4 °C 25,1 °C 68 % 64 % 1016,1 hPa 0,0 l/m² 6,1 km/h (2 Bft) N-NW 331 ° 1 min 54 W/m² 17,8 °C 25,1 °C 8,0 km/h (2 Bft)
11.07.2024 20:02 24,4 °C 25,1 °C 68 % 64 % 1016,1 hPa 0,0 l/m² 4,8 km/h (1 Bft) NW 324 ° 1 min 56 W/m² 17,8 °C 25,1 °C 8,0 km/h (2 Bft)
11.07.2024 20:03 24,4 °C 25,1 °C 68 % 64 % 1016,1 hPa 0,0 l/m² 4,3 km/h (1 Bft) NW 315 ° 1 min 58 W/m² 17,8 °C 25,1 °C 4,8 km/h (1 Bft)
11.07.2024 20:05 24,4 °C 25,1 °C 68 % 63 % 1016,1 hPa 0,0 l/m² 4,0 km/h (1 Bft) N 350 ° 2 min 60 W/m² 17,5 °C 25,1 °C 6,4 km/h (2 Bft)
11.07.2024 20:07 24,4 °C 25,1 °C 68 % 64 % 1016,1 hPa 0,0 l/m² 4,8 km/h (1 Bft) N-NW 331 ° 2 min 58 W/m² 17,8 °C 25,1 °C 8,0 km/h (2 Bft)
11.07.2024 20:09 24,4 °C 25,1 °C 68 % 64 % 1016,0 hPa 0,0 l/m² 3,7 km/h (1 Bft) N-NW 327 ° 2 min 56 W/m² 17,8 °C 25,1 °C 4,8 km/h (1 Bft)
11.07.2024 20:10 24,4 °C 25,1 °C 68 % 64 % 1016,1 hPa 0,0 l/m² 3,3 km/h (1 Bft) N-NW 337 ° 1 min 54 W/m² 17,8 °C 25,1 °C 4,8 km/h (1 Bft)
11.07.2024 20:11 24,4 °C 25,1 °C 68 % 64 % 1016,1 hPa 0,0 l/m² 3,0 km/h (1 Bft) N-NW 331 ° 1 min 53 W/m² 17,8 °C 25,1 °C 6,4 km/h (2 Bft)
11.07.2024 20:12 24,4 °C 25,1 °C 68 % 64 % 1016,0 hPa 0,0 l/m² 3,6 km/h (1 Bft) N-NW 329 ° 1 min 53 W/m² 17,8 °C 25,1 °C 6,4 km/h (2 Bft)
11.07.2024 20:14 24,4 °C 25,1 °C 68 % 64 % 1016,0 hPa 0,0 l/m² 4,1 km/h (1 Bft) N-NW 337 ° 0 min 51 W/m² 17,8 °C 25,1 °C 6,4 km/h (2 Bft)
11.07.2024 20:16 24,4 °C 25,0 °C 68 % 64 % 1016,0 hPa 0,0 l/m² 3,8 km/h (1 Bft) NO 38 ° 0 min 46 W/m² 17,7 °C 25,0 °C 4,8 km/h (1 Bft)
11.07.2024 20:18 24,4 °C 25,0 °C 68 % 64 % 1016,1 hPa 0,0 l/m² 4,1 km/h (1 Bft) N 355 ° 0 min 44 W/m² 17,7 °C 25,0 °C 6,4 km/h (2 Bft)
11.07.2024 20:20 24,4 °C 25,0 °C 68 % 64 % 1016,1 hPa 0,0 l/m² 2,1 km/h (1 Bft) N-NW 338 ° 0 min 39 W/m² 17,7 °C 25,0 °C 4,8 km/h (1 Bft)
11.07.2024 20:21 24,4 °C 25,0 °C 68 % 64 % 1016,1 hPa 0,0 l/m² 2,7 km/h (1 Bft) N-NW 338 ° 0 min 37 W/m² 17,7 °C 25,0 °C 4,8 km/h (1 Bft)
11.07.2024 20:22 24,4 °C 25,0 °C 68 % 64 % 1016,1 hPa 0,0 l/m² 4,1 km/h (1 Bft) N-NW 340 ° 0 min 35 W/m² 17,7 °C 25,0 °C 4,8 km/h (1 Bft)
11.07.2024 20:23 24,4 °C 24,9 °C 68 % 64 % 1016,1 hPa 0,0 l/m² 3,8 km/h (1 Bft) N-NW 333 ° 0 min 33 W/m² 17,6 °C 24,9 °C 4,8 km/h (1 Bft)
11.07.2024 20:25 24,4 °C 24,9 °C 68 % 64 % 1016,1 hPa 0,0 l/m² 4,3 km/h (1 Bft) N-NW 337 ° 0 min 30 W/m² 17,6 °C 24,9 °C 6,4 km/h (2 Bft)
11.07.2024 20:27 24,4 °C 24,9 °C 68 % 64 % 1016,1 hPa 0,0 l/m² 4,1 km/h (1 Bft) N-NW 342 ° 0 min 28 W/m² 17,6 °C 24,9 °C 6,4 km/h (2 Bft)
11.07.2024 20:29 24,4 °C 24,9 °C 68 % 64 % 1016,2 hPa 0,0 l/m² 4,4 km/h (1 Bft) N 355 ° 0 min 26 W/m² 17,6 °C 24,9 °C 6,4 km/h (2 Bft)
11.07.2024 20:30 24,4 °C 24,9 °C 68 % 64 % 1016,1 hPa 0,0 l/m² 4,6 km/h (1 Bft) N-NW 336 ° 0 min 28 W/m² 17,6 °C 24,9 °C 6,4 km/h (2 Bft)
11.07.2024 20:31 24,4 °C 24,8 °C 68 % 64 % 1016,1 hPa 0,0 l/m² 3,8 km/h (1 Bft) N 355 ° 0 min 26 W/m² 17,5 °C 24,8 °C 6,4 km/h (2 Bft)
11.07.2024 20:32 24,4 °C 24,8 °C 68 % 64 % 1016,1 hPa 0,0 l/m² 4,2 km/h (1 Bft) N-NW 333 ° 0 min 26 W/m² 17,5 °C 24,8 °C 6,4 km/h (2 Bft)
11.07.2024 20:34 24,4 °C 24,8 °C 68 % 64 % 1016,1 hPa 0,0 l/m² 5,3 km/h (1 Bft) N-NW 332 ° 0 min 23 W/m² 17,5 °C 24,8 °C 8,0 km/h (2 Bft)
11.07.2024 20:36 24,4 °C 24,8 °C 68 % 65 % 1016,2 hPa 0,0 l/m² 5,2 km/h (1 Bft) N 349 ° 0 min 23 W/m² 17,8 °C 24,8 °C 6,4 km/h (2 Bft)
11.07.2024 20:37 24,4 °C 24,8 °C 68 % 65 % 1016,0 hPa 0,0 l/m² 4,1 km/h (1 Bft) N 355 ° 0 min 25 W/m² 17,8 °C 24,8 °C 6,4 km/h (2 Bft)
11.07.2024 20:38 24,4 °C 24,7 °C 68 % 65 % 1016,0 hPa 0,0 l/m² 3,4 km/h (1 Bft) N-NW 331 ° 0 min 26 W/m² 17,7 °C 24,7 °C 4,8 km/h (1 Bft)
11.07.2024 20:40 24,4 °C 24,7 °C 68 % 65 % 1016,1 hPa 0,0 l/m² 3,0 km/h (1 Bft) N-NO 28 ° 0 min 23 W/m² 17,7 °C 24,7 °C 4,8 km/h (1 Bft)
11.07.2024 20:43 24,5 °C 24,7 °C 68 % 66 % 1016,0 hPa 0,0 l/m² 3,4 km/h (1 Bft) N-NW 341 ° 0 min 19 W/m² 17,9 °C 24,7 °C 4,8 km/h (1 Bft)
11.07.2024 20:45 24,5 °C 24,6 °C 68 % 66 % 1016,1 hPa 0,0 l/m² 0,9 km/h (0 Bft) N-NW 341 ° 0 min 21 W/m² 17,8 °C 24,6 °C 3,2 km/h (1 Bft)
11.07.2024 20:47 24,5 °C 24,6 °C 68 % 66 % 1016,1 hPa 0,0 l/m² 2,7 km/h (1 Bft) N-NW 333 ° 0 min 21 W/m² 17,8 °C 24,6 °C 3,2 km/h (1 Bft)
11.07.2024 20:49 24,5 °C 24,5 °C 68 % 67 % 1015,9 hPa 0,0 l/m² 3,1 km/h (1 Bft) N 355 ° 0 min 19 W/m² 18,0 °C 24,5 °C 4,8 km/h (1 Bft)
11.07.2024 20:50 24,5 °C 24,5 °C 68 % 67 % 1016,0 hPa 0,0 l/m² 2,4 km/h (1 Bft) N-NW 343 ° 0 min 19 W/m² 18,0 °C 24,5 °C 3,2 km/h (1 Bft)
11.07.2024 20:51 24,5 °C 24,4 °C 68 % 67 % 1015,9 hPa 0,0 l/m² 2,7 km/h (1 Bft) N-NW 343 ° 0 min 18 W/m² 17,9 °C 24,4 °C 3,2 km/h (1 Bft)
11.07.2024 20:52 24,5 °C 24,4 °C 68 % 67 % 1015,9 hPa 0,0 l/m² 2,8 km/h (1 Bft) N-NW 343 ° 0 min 18 W/m² 17,9 °C 24,4 °C 3,2 km/h (1 Bft)
11.07.2024 20:53 24,5 °C 24,4 °C 68 % 67 % 1015,9 hPa 0,0 l/m² 2,8 km/h (1 Bft) N-NW 343 ° 0 min 18 W/m² 17,9 °C 24,4 °C 4,8 km/h (1 Bft)
11.07.2024 20:55 24,6 °C 24,4 °C 68 % 67 % 1016,0 hPa 0,0 l/m² 3,4 km/h (1 Bft) N 355 ° 0 min 18 W/m² 17,9 °C 24,4 °C 4,8 km/h (1 Bft)
11.07.2024 20:57 24,6 °C 24,4 °C 68 % 67 % 1016,0 hPa 0,0 l/m² 2,0 km/h (1 Bft) NO 37 ° 0 min 18 W/m² 17,9 °C 24,4 °C 4,8 km/h (1 Bft)
11.07.2024 20:59 24,6 °C 24,3 °C 68 % 67 % 1016,0 hPa 0,0 l/m² 3,8 km/h (1 Bft) N 11 ° 0 min 18 W/m² 17,8 °C 24,3 °C 4,8 km/h (1 Bft)
11.07.2024 21:00 24,6 °C 24,2 °C 68 % 67 % 1016,0 hPa 0,0 l/m² 5,1 km/h (1 Bft) N-NW 342 ° 0 min 16 W/m² 17,7 °C 24,2 °C 6,4 km/h (2 Bft)
11.07.2024 21:01 24,5 °C 24,2 °C 68 % 67 % 1016,0 hPa 0,0 l/m² 5,0 km/h (1 Bft) N-NW 340 ° 0 min 14 W/m² 17,7 °C 24,2 °C 6,4 km/h (2 Bft)
11.07.2024 21:02 24,5 °C 24,2 °C 68 % 67 % 1016,0 hPa 0,0 l/m² 3,9 km/h (1 Bft) N-NW 338 ° 0 min 12 W/m² 17,7 °C 24,2 °C 6,4 km/h (2 Bft)
11.07.2024 21:04 24,6 °C 24,1 °C 68 % 67 % 1016,0 hPa 0,0 l/m² 4,4 km/h (1 Bft) N-NW 333 ° 0 min 12 W/m² 17,6 °C 24,1 °C 6,4 km/h (2 Bft)
11.07.2024 21:06 24,6 °C 24,1 °C 68 % 67 % 1016,0 hPa 0,0 l/m² 4,3 km/h (1 Bft) N-NW 347 ° 0 min 11 W/m² 17,6 °C 24,1 °C 6,4 km/h (2 Bft)
11.07.2024 21:08 24,6 °C 24,1 °C 68 % 67 % 1016,0 hPa 0,0 l/m² 4,5 km/h (1 Bft) N-NW 334 ° 0 min 9 W/m² 17,6 °C 24,1 °C 6,4 km/h (2 Bft)
11.07.2024 21:09 24,6 °C 24,0 °C 68 % 67 % 1016,0 hPa 0,0 l/m² 4,3 km/h (1 Bft) NW 321 ° 0 min 7 W/m² 17,5 °C 24,0 °C 6,4 km/h (2 Bft)
11.07.2024 21:10 24,6 °C 24,0 °C 68 % 67 % 1015,9 hPa 0,0 l/m² 4,2 km/h (1 Bft) N-NW 338 ° 0 min 7 W/m² 17,5 °C 24,0 °C 6,4 km/h (2 Bft)
11.07.2024 21:12 24,6 °C 23,9 °C 68 % 68 % 1016,0 hPa 0,0 l/m² 3,5 km/h (1 Bft) N-NW 333 ° 0 min 7 W/m² 17,6 °C 23,9 °C 4,8 km/h (1 Bft)
11.07.2024 21:14 24,6 °C 23,8 °C 68 % 68 % 1016,1 hPa 0,0 l/m² 3,4 km/h (1 Bft) N-NW 346 ° 0 min 7 W/m² 17,5 °C 23,8 °C 4,8 km/h (1 Bft)
11.07.2024 21:16 24,6 °C 23,8 °C 68 % 68 % 1016,0 hPa 0,0 l/m² 3,7 km/h (1 Bft) N 351 ° 0 min 5 W/m² 17,5 °C 23,8 °C 4,8 km/h (1 Bft)
11.07.2024 21:18 24,6 °C 23,7 °C 68 % 68 % 1016,1 hPa 0,0 l/m² 1,9 km/h (1 Bft) N-NW 333 ° 0 min 5 W/m² 17,4 °C 23,7 °C 4,8 km/h (1 Bft)
11.07.2024 21:20 24,6 °C 23,7 °C 68 % 68 % 1016,1 hPa 0,0 l/m² 0,0 km/h (0 Bft) N-NW 333 ° 0 min 5 W/m² 17,4 °C 23,7 °C 1,6 km/h (1 Bft)
11.07.2024 21:21 24,6 °C 23,7 °C 68 % 68 % 1016,2 hPa 0,0 l/m² 0,0 km/h (0 Bft) N-NW 333 ° 0 min 5 W/m² 17,4 °C 23,7 °C 0,0 km/h (0 Bft)
11.07.2024 21:22 24,6 °C 23,6 °C 68 % 68 % 1016,2 hPa 0,0 l/m² 0,0 km/h (0 Bft) N-NW 333 ° 0 min 0 W/m² 17,3 °C 23,6 °C 0,0 km/h (0 Bft)
11.07.2024 21:24 24,6 °C 23,6 °C 68 % 69 % 1016,2 hPa 0,0 l/m² 0,0 km/h (0 Bft) N-NW 331 ° 0 min 0 W/m² 17,6 °C 23,6 °C 1,6 km/h (1 Bft)
11.07.2024 21:26 24,6 °C 23,5 °C 68 % 69 % 1016,2 hPa 0,0 l/m² 0,4 km/h (0 Bft) N-NW 331 ° 0 min 0 W/m² 17,5 °C 23,5 °C 1,6 km/h (1 Bft)
11.07.2024 21:28 24,6 °C 23,4 °C 68 % 69 % 1016,2 hPa 0,0 l/m² 0,9 km/h (0 Bft) N-NW 333 ° 0 min 0 W/m² 17,4 °C 23,4 °C 4,8 km/h (1 Bft)
11.07.2024 21:30 24,6 °C 23,4 °C 68 % 70 % 1016,2 hPa 0,0 l/m² 3,8 km/h (1 Bft) N-NW 336 ° 0 min 0 W/m² 17,6 °C 23,4 °C 6,4 km/h (2 Bft)
11.07.2024 21:31 24,6 °C 23,4 °C 68 % 70 % 1016,1 hPa 0,0 l/m² 5,0 km/h (1 Bft) N-NW 342 ° 0 min 0 W/m² 17,6 °C 23,4 °C 6,4 km/h (2 Bft)
11.07.2024 21:32 24,6 °C 23,3 °C 68 % 70 % 1016,1 hPa 0,0 l/m² 4,8 km/h (1 Bft) N-NW 333 ° 0 min 0 W/m² 17,5 °C 23,3 °C 6,4 km/h (2 Bft)
11.07.2024 21:34 24,6 °C 23,2 °C 68 % 70 % 1016,2 hPa 0,0 l/m² 3,2 km/h (1 Bft) N 355 ° 0 min 0 W/m² 17,4 °C 23,2 °C 4,8 km/h (1 Bft)
11.07.2024 21:36 24,6 °C 23,2 °C 68 % 70 % 1016,2 hPa 0,0 l/m² 3,1 km/h (1 Bft) N 355 ° 0 min 0 W/m² 17,4 °C 23,2 °C 4,8 km/h (1 Bft)
11.07.2024 21:38 24,6 °C 23,1 °C 68 % 70 % 1016,2 hPa 0,0 l/m² 3,0 km/h (1 Bft) N 355 ° 0 min 0 W/m² 17,3 °C 23,1 °C 4,8 km/h (1 Bft)
11.07.2024 21:40 24,6 °C 23,1 °C 68 % 70 % 1016,2 hPa 0,0 l/m² 1,6 km/h (1 Bft) N 355 ° 0 min 0 W/m² 17,3 °C 23,1 °C 3,2 km/h (1 Bft)
11.07.2024 21:41 24,6 °C 23,0 °C 68 % 70 % 1016,2 hPa 0,0 l/m² 0,2 km/h (0 Bft) N 355 ° 0 min 0 W/m² 17,2 °C 23,0 °C 1,6 km/h (1 Bft)
11.07.2024 21:42 24,6 °C 23,0 °C 68 % 70 % 1016,2 hPa 0,0 l/m² 2,1 km/h (1 Bft) N 355 ° 0 min 0 W/m² 17,2 °C 23,0 °C 3,2 km/h (1 Bft)
11.07.2024 21:44 24,6 °C 22,9 °C 68 % 70 % 1016,2 hPa 0,0 l/m² 1,6 km/h (1 Bft) N 355 ° 0 min 0 W/m² 17,1 °C 22,9 °C 3,2 km/h (1 Bft)
11.07.2024 21:45 24,7 °C 22,8 °C 68 % 70 % 1016,1 hPa 0,0 l/m² 1,6 km/h (1 Bft) N 355 ° 0 min 0 W/m² 17,0 °C 22,8 °C 3,2 km/h (1 Bft)
11.07.2024 21:46 24,7 °C 22,8 °C 68 % 70 % 1016,2 hPa 0,0 l/m² 1,3 km/h (1 Bft) N 355 ° 0 min 0 W/m² 17,0 °C 22,8 °C 3,2 km/h (1 Bft)
11.07.2024 21:47 24,7 °C 22,8 °C 68 % 70 % 1016,2 hPa 0,0 l/m² 2,6 km/h (1 Bft) N 355 ° 0 min 0 W/m² 17,0 °C 22,8 °C 3,2 km/h (1 Bft)
11.07.2024 21:49 24,7 °C 22,7 °C 68 % 71 % 1016,2 hPa 0,0 l/m² 2,7 km/h (1 Bft) N 355 ° 0 min 0 W/m² 17,2 °C 22,7 °C 3,2 km/h (1 Bft)
11.07.2024 21:51 24,7 °C 22,7 °C 68 % 71 % 1016,2 hPa 0,0 l/m² 2,2 km/h (1 Bft) N 5 ° 0 min 0 W/m² 17,2 °C 22,7 °C 3,2 km/h (1 Bft)
11.07.2024 21:53 24,7 °C 22,6 °C 68 % 71 % 1016,2 hPa 0,0 l/m² 1,5 km/h (1 Bft) N 5 ° 0 min 0 W/m² 17,1 °C 22,6 °C 3,2 km/h (1 Bft)
11.07.2024 21:55 24,7 °C 22,4 °C 68 % 71 % 1016,3 hPa 0,0 l/m² 2,1 km/h (1 Bft) N 355 ° 0 min 0 W/m² 16,9 °C 22,4 °C 4,8 km/h (1 Bft)
11.07.2024 21:57 24,7 °C 22,4 °C 68 % 71 % 1016,3 hPa 0,0 l/m² 0,1 km/h (0 Bft) N 355 ° 0 min 0 W/m² 16,9 °C 22,4 °C 1,6 km/h (1 Bft)
11.07.2024 21:59 24,7 °C 22,3 °C 68 % 72 % 1016,2 hPa 0,0 l/m² 0,0 km/h (0 Bft) N 355 ° 0 min 0 W/m² 17,0 °C 22,3 °C 0,0 km/h (0 Bft)
11.07.2024 22:00 24,7 °C 22,3 °C 68 % 71 % 1016,3 hPa 0,0 l/m² 1,4 km/h (1 Bft) N-NO 18 ° 0 min 0 W/m² 16,8 °C 22,3 °C 3,2 km/h (1 Bft)
11.07.2024 22:01 24,7 °C 22,3 °C 68 % 71 % 1016,3 hPa 0,0 l/m² 2,1 km/h (1 Bft) N-NO 13 ° 0 min 0 W/m² 16,8 °C 22,3 °C 4,8 km/h (1 Bft)
11.07.2024 22:03 24,7 °C 22,2 °C 68 % 72 % 1016,3 hPa 0,0 l/m² 1,4 km/h (1 Bft) N 5 ° 0 min 0 W/m² 16,9 °C 22,2 °C 3,2 km/h (1 Bft)
11.07.2024 22:05 24,7 °C 22,2 °C 68 % 73 % 1016,3 hPa 0,0 l/m² 0,1 km/h (0 Bft) N 9 ° 0 min 0 W/m² 17,1 °C 22,2 °C 1,6 km/h (1 Bft)
11.07.2024 22:07 24,7 °C 22,1 °C 68 % 73 % 1016,4 hPa 0,0 l/m² 0,0 km/h (0 Bft) N 9 ° 0 min 0 W/m² 17,0 °C 22,1 °C 0,0 km/h (0 Bft)
11.07.2024 22:09 24,7 °C 22,0 °C 68 % 73 % 1016,3 hPa 0,0 l/m² 0,0 km/h (0 Bft) N 9 ° 0 min 0 W/m² 16,9 °C 22,0 °C 0,0 km/h (0 Bft)
11.07.2024 22:10 24,8 °C 21,9 °C 68 % 73 % 1016,3 hPa 0,0 l/m² 0,0 km/h (0 Bft) N 9 ° 0 min 0 W/m² 16,8 °C 21,9 °C 0,0 km/h (0 Bft)
11.07.2024 22:11 24,8 °C 21,9 °C 68 % 73 % 1016,3 hPa 0,0 l/m² 0,0 km/h (0 Bft) N 9 ° 0 min 0 W/m² 16,8 °C 21,9 °C 0,0 km/h (0 Bft)
11.07.2024 22:12 24,8 °C 21,9 °C 68 % 73 % 1016,4 hPa 0,0 l/m² 0,0 km/h (0 Bft) N 9 ° 0 min 0 W/m² 16,8 °C 21,9 °C 0,0 km/h (0 Bft)
11.07.2024 22:13 24,7 °C 21,8 °C 68 % 73 % 1016,4 hPa 0,0 l/m² 0,0 km/h (0 Bft) N 9 ° 0 min 0 W/m² 16,7 °C 21,8 °C 0,0 km/h (0 Bft)
11.07.2024 22:14 24,7 °C 21,8 °C 68 % 74 % 1016,4 hPa 0,0 l/m² 0,0 km/h (0 Bft) N 9 ° 0 min 0 W/m² 17,0 °C 21,8 °C 0,0 km/h (0 Bft)
11.07.2024 22:15 24,7 °C 21,8 °C 68 % 74 % 1016,3 hPa 0,0 l/m² 0,0 km/h (0 Bft) N 9 ° 0 min 0 W/m² 17,0 °C 21,8 °C 0,0 km/h (0 Bft)
11.07.2024 22:16 24,8 °C 21,7 °C 68 % 74 % 1016,4 hPa 0,0 l/m² 0,0 km/h (0 Bft) N 9 ° 0 min 0 W/m² 16,9 °C 21,7 °C 0,0 km/h (0 Bft)
11.07.2024 22:17 24,7 °C 21,7 °C 68 % 74 % 1016,4 hPa 0,0 l/m² 0,0 km/h (0 Bft) N 9 ° 0 min 0 W/m² 16,9 °C 21,7 °C 0,0 km/h (0 Bft)
11.07.2024 22:18 24,8 °C 21,7 °C 68 % 74 % 1016,4 hPa 0,0 l/m² 0,0 km/h (0 Bft) N 9 ° 0 min 0 W/m² 16,9 °C 21,7 °C 0,0 km/h (0 Bft)
11.07.2024 22:19 24,7 °C 21,6 °C 68 % 74 % 1016,4 hPa 0,0 l/m² 0,0 km/h (0 Bft) N 9 ° 0 min 0 W/m² 16,8 °C 21,6 °C 0,0 km/h (0 Bft)
11.07.2024 22:20 24,7 °C 21,6 °C 68 % 74 % 1016,4 hPa 0,0 l/m² 0,0 km/h (0 Bft) N 9 ° 0 min 0 W/m² 16,8 °C 21,6 °C 0,0 km/h (0 Bft)
11.07.2024 22:21 24,7 °C 21,6 °C 68 % 74 % 1016,5 hPa 0,0 l/m² 0,0 km/h (0 Bft) N 9 ° 0 min 0 W/m² 16,8 °C 21,6 °C 0,0 km/h (0 Bft)
11.07.2024 22:22 24,8 °C 21,6 °C 68 % 74 % 1016,5 hPa 0,0 l/m² 0,0 km/h (0 Bft) N 9 ° 0 min 0 W/m² 16,8 °C 21,6 °C 0,0 km/h (0 Bft)
11.07.2024 22:23 24,8 °C 21,4 °C 68 % 74 % 1016,4 hPa 0,0 l/m² 0,0 km/h (0 Bft) N 9 ° 0 min 0 W/m² 16,6 °C 21,4 °C 0,0 km/h (0 Bft)
11.07.2024 22:24 24,8 °C 21,4 °C 68 % 74 % 1016,4 hPa 0,0 l/m² 0,0 km/h (0 Bft) N 9 ° 0 min 0 W/m² 16,6 °C 21,4 °C 0,0 km/h (0 Bft)
11.07.2024 22:25 24,8 °C 21,4 °C 68 % 75 % 1016,4 hPa 0,0 l/m² 0,0 km/h (0 Bft) N 9 ° 0 min 0 W/m² 16,8 °C 21,4 °C 0,0 km/h (0 Bft)
11.07.2024 22:26 24,8 °C 21,4 °C 68 % 75 % 1016,5 hPa 0,0 l/m² 0,0 km/h (0 Bft) N 9 ° 0 min 0 W/m² 16,8 °C 21,4 °C 0,0 km/h (0 Bft)
11.07.2024 22:27 24,8 °C 21,3 °C 68 % 75 % 1016,5 hPa 0,0 l/m² 0,0 km/h (0 Bft) N 9 ° 0 min 0 W/m² 16,7 °C 21,3 °C 0,0 km/h (0 Bft)
11.07.2024 22:28 24,8 °C 21,3 °C 68 % 75 % 1016,5 hPa 0,0 l/m² 0,0 km/h (0 Bft) N 9 ° 0 min 0 W/m² 16,7 °C 21,3 °C 0,0 km/h (0 Bft)
11.07.2024 22:29 24,8 °C 21,3 °C 68 % 75 % 1016,5 hPa 0,0 l/m² 0,0 km/h (0 Bft) N 9 ° 0 min 0 W/m² 16,7 °C 21,3 °C 0,0 km/h (0 Bft)
11.07.2024 22:30 24,8 °C 21,2 °C 68 % 75 % 1016,5 hPa 0,0 l/m² 0,0 km/h (0 Bft) N 9 ° 0 min 0 W/m² 16,6 °C 21,2 °C 0,0 km/h (0 Bft)
11.07.2024 22:31 24,8 °C 21,2 °C 68 % 75 % 1016,5 hPa 0,0 l/m² 0,2 km/h (0 Bft) N-NW 342 ° 0 min 0 W/m² 16,6 °C 21,2 °C 1,6 km/h (1 Bft)
11.07.2024 22:32 24,8 °C 21,2 °C 68 % 75 % 1016,4 hPa 0,0 l/m² 0,2 km/h (0 Bft) N-NW 338 ° 0 min 0 W/m² 16,6 °C 21,2 °C 1,6 km/h (1 Bft)
11.07.2024 22:33 24,8 °C 21,1 °C 68 % 75 % 1016,4 hPa 0,0 l/m² 1,9 km/h (1 Bft) NW 326 ° 0 min 0 W/m² 16,5 °C 21,1 °C 3,2 km/h (1 Bft)
11.07.2024 22:34 24,8 °C 21,1 °C 68 % 76 % 1016,5 hPa 0,0 l/m² 1,4 km/h (1 Bft) NW 323 ° 0 min 0 W/m² 16,7 °C 21,1 °C 3,2 km/h (1 Bft)
11.07.2024 22:35 24,8 °C 21,1 °C 68 % 76 % 1016,4 hPa 0,0 l/m² 0,2 km/h (0 Bft) NW 323 ° 0 min 0 W/m² 16,7 °C 21,1 °C 1,6 km/h (1 Bft)
11.07.2024 22:36 24,8 °C 20,9 °C 68 % 76 % 1016,5 hPa 0,0 l/m² 0,0 km/h (0 Bft) NW 323 ° 0 min 0 W/m² 16,5 °C 20,9 °C 0,0 km/h (0 Bft)
11.07.2024 22:37 24,8 °C 20,9 °C 68 % 76 % 1016,5 hPa 0,0 l/m² 0,0 km/h (0 Bft) NW 323 ° 0 min 0 W/m² 16,5 °C 20,9 °C 0,0 km/h (0 Bft)
11.07.2024 22:38 24,8 °C 20,9 °C 68 % 76 % 1016,4 hPa 0,0 l/m² 0,0 km/h (0 Bft) NW 323 ° 0 min 0 W/m² 16,5 °C 20,9 °C 0,0 km/h (0 Bft)
11.07.2024 22:39 24,8 °C 20,9 °C 68 % 76 % 1016,4 hPa 0,0 l/m² 0,1 km/h (0 Bft) NW 323 ° 0 min 0 W/m² 16,5 °C 20,9 °C 1,6 km/h (1 Bft)
11.07.2024 22:40 24,8 °C 20,8 °C 68 % 76 % 1016,5 hPa 0,0 l/m² 0,0 km/h (0 Bft) NW 323 ° 0 min 0 W/m² 16,4 °C 20,8 °C 0,0 km/h (0 Bft)
11.07.2024 22:41 24,8 °C 20,8 °C 68 % 76 % 1016,4 hPa 0,0 l/m² 2,0 km/h (1 Bft) N-NW 346 ° 0 min 0 W/m² 16,4 °C 20,8 °C 4,8 km/h (1 Bft)
11.07.2024 22:42 24,8 °C 20,8 °C 68 % 76 % 1016,4 hPa 0,0 l/m² 0,5 km/h (0 Bft) N-NW 346 ° 0 min 0 W/m² 16,4 °C 20,8 °C 1,6 km/h (1 Bft)
11.07.2024 22:43 24,8 °C 20,8 °C 68 % 76 % 1016,4 hPa 0,0 l/m² 0,3 km/h (0 Bft) N-NW 340 ° 0 min 0 W/m² 16,4 °C 20,8 °C 1,6 km/h (1 Bft)
11.07.2024 22:44 24,8 °C 20,7 °C 68 % 76 % 1016,4 hPa 0,0 l/m² 2,0 km/h (1 Bft) N 350 ° 0 min 0 W/m² 16,3 °C 20,7 °C 4,8 km/h (1 Bft)
11.07.2024 22:45 24,8 °C 20,7 °C 68 % 77 % 1016,4 hPa 0,0 l/m² 3,4 km/h (1 Bft) N 351 ° 0 min 0 W/m² 16,5 °C 20,7 °C 6,4 km/h (2 Bft)
11.07.2024 22:46 24,8 °C 20,7 °C 68 % 77 % 1016,4 hPa 0,0 l/m² 3,4 km/h (1 Bft) N-NW 333 ° 0 min 0 W/m² 16,5 °C 20,7 °C 6,4 km/h (2 Bft)
11.07.2024 22:47 24,8 °C 20,7 °C 68 % 77 % 1016,4 hPa 0,0 l/m² 4,1 km/h (1 Bft) N-NW 342 ° 0 min 0 W/m² 16,5 °C 20,7 °C 4,8 km/h (1 Bft)
11.07.2024 22:48 24,8 °C 20,6 °C 68 % 77 % 1016,4 hPa 0,0 l/m² 4,4 km/h (1 Bft) N 5 ° 0 min 0 W/m² 16,4 °C 20,6 °C 6,4 km/h (2 Bft)
11.07.2024 22:49 24,8 °C 20,6 °C 68 % 77 % 1016,4 hPa 0,0 l/m² 2,1 km/h (1 Bft) N 349 ° 0 min 0 W/m² 16,4 °C 20,6 °C 3,2 km/h (1 Bft)
11.07.2024 22:50 24,8 °C 20,6 °C 68 % 77 % 1016,3 hPa 0,0 l/m² 0,4 km/h (0 Bft) N-NW 347 ° 0 min 0 W/m² 16,4 °C 20,6 °C 3,2 km/h (1 Bft)
11.07.2024 22:51 24,8 °C 20,5 °C 68 % 78 % 1016,3 hPa 0,0 l/m² 0,0 km/h (0 Bft) N-NW 347 ° 0 min 0 W/m² 16,5 °C 20,5 °C 0,0 km/h (0 Bft)
11.07.2024 22:52 24,8 °C 20,5 °C 68 % 79 % 1016,4 hPa 0,0 l/m² 0,0 km/h (0 Bft) N-NW 347 ° 0 min 0 W/m² 16,7 °C 20,5 °C 0,0 km/h (0 Bft)
11.07.2024 22:53 24,8 °C 20,5 °C 68 % 79 % 1016,2 hPa 0,0 l/m² 0,0 km/h (0 Bft) N-NW 347 ° 0 min 0 W/m² 16,7 °C 20,5 °C 0,0 km/h (0 Bft)
11.07.2024 22:54 24,8 °C 20,5 °C 68 % 79 % 1016,3 hPa 0,0 l/m² 0,0 km/h (0 Bft) N-NW 347 ° 0 min 0 W/m² 16,7 °C 20,5 °C 0,0 km/h (0 Bft)
11.07.2024 22:55 24,7 °C 20,4 °C 68 % 80 % 1016,2 hPa 0,0 l/m² 0,0 km/h (0 Bft) N-NW 347 ° 0 min 0 W/m² 16,8 °C 20,4 °C 0,0 km/h (0 Bft)
11.07.2024 22:56 24,8 °C 20,4 °C 68 % 80 % 1016,2 hPa 0,0 l/m² 0,0 km/h (0 Bft) N-NW 347 ° 0 min 0 W/m² 16,8 °C 20,4 °C 0,0 km/h (0 Bft)
11.07.2024 22:57 24,7 °C 20,4 °C 68 % 80 % 1016,2 hPa 0,0 l/m² 0,0 km/h (0 Bft) N-NW 347 ° 0 min 0 W/m² 16,8 °C 20,4 °C 0,0 km/h (0 Bft)
11.07.2024 22:58 24,7 °C 20,4 °C 68 % 80 % 1016,3 hPa 0,0 l/m² 0,0 km/h (0 Bft) N-NW 347 ° 0 min 0 W/m² 16,8 °C 20,4 °C 0,0 km/h (0 Bft)
11.07.2024 22:59 24,7 °C 20,3 °C 68 % 80 % 1016,2 hPa 0,0 l/m² 0,0 km/h (0 Bft) N-NW 347 ° 0 min 0 W/m² 16,7 °C 20,3 °C 0,0 km/h (0 Bft)
11.07.2024 23:00 24,7 °C 20,3 °C 68 % 80 % 1016,2 hPa 0,0 l/m² 0,0 km/h (0 Bft) N-NW 347 ° 0 min 0 W/m² 16,7 °C 20,3 °C 0,0 km/h (0 Bft)
11.07.2024 23:01 24,7 °C 20,3 °C 68 % 80 % 1016,2 hPa 0,0 l/m² 0,0 km/h (0 Bft) N-NW 347 ° 0 min 0 W/m² 16,7 °C 20,3 °C 0,0 km/h (0 Bft)
11.07.2024 23:02 24,7 °C 20,3 °C 68 % 80 % 1016,2 hPa 0,0 l/m² 0,0 km/h (0 Bft) N-NW 347 ° 0 min 0 W/m² 16,7 °C 20,3 °C 0,0 km/h (0 Bft)
11.07.2024 23:03 24,7 °C 20,2 °C 68 % 80 % 1016,2 hPa 0,0 l/m² 0,0 km/h (0 Bft) N-NW 347 ° 0 min 0 W/m² 16,6 °C 20,2 °C 0,0 km/h (0 Bft)
11.07.2024 23:04 24,7 °C 20,2 °C 68 % 80 % 1016,2 hPa 0,0 l/m² 0,0 km/h (0 Bft) N-NW 347 ° 0 min 0 W/m² 16,6 °C 20,2 °C 0,0 km/h (0 Bft)
11.07.2024 23:05 24,7 °C 20,2 °C 68 % 80 % 1016,2 hPa 0,0 l/m² 0,0 km/h (0 Bft) N-NW 347 ° 0 min 0 W/m² 16,6 °C 20,2 °C 0,0 km/h (0 Bft)
11.07.2024 23:06 24,7 °C 20,2 °C 68 % 80 % 1016,2 hPa 0,0 l/m² 0,6 km/h (0 Bft) N-NW 347 ° 0 min 0 W/m² 16,6 °C 20,2 °C 1,6 km/h (1 Bft)
11.07.2024 23:07 24,7 °C 20,2 °C 68 % 80 % 1016,2 hPa 0,0 l/m² 0,2 km/h (0 Bft) N-NW 347 ° 0 min 0 W/m² 16,6 °C 20,2 °C 1,6 km/h (1 Bft)
11.07.2024 23:08 24,7 °C 20,1 °C 68 % 80 % 1016,2 hPa 0,0 l/m² 0,0 km/h (0 Bft) N-NW 347 ° 0 min 0 W/m² 16,5 °C 20,1 °C 0,0 km/h (0 Bft)
11.07.2024 23:09 24,7 °C 20,1 °C 68 % 80 % 1016,2 hPa 0,0 l/m² 0,0 km/h (0 Bft) N-NW 347 ° 0 min 0 W/m² 16,5 °C 20,1 °C 0,0 km/h (0 Bft)
11.07.2024 23:10 24,7 °C 20,1 °C 68 % 80 % 1016,2 hPa 0,0 l/m² 0,0 km/h (0 Bft) N-NW 347 ° 0 min 0 W/m² 16,5 °C 20,1 °C 0,0 km/h (0 Bft)
11.07.2024 23:11 24,7 °C 20,1 °C 68 % 80 % 1016,2 hPa 0,0 l/m² 0,0 km/h (0 Bft) N-NW 347 ° 0 min 0 W/m² 16,5 °C 20,1 °C 0,0 km/h (0 Bft)
11.07.2024 23:12 24,7 °C 20,0 °C 68 % 80 % 1016,2 hPa 0,0 l/m² 0,0 km/h (0 Bft) N-NW 347 ° 0 min 0 W/m² 16,4 °C 20,0 °C 0,0 km/h (0 Bft)
11.07.2024 23:13 24,7 °C 19,9 °C 68 % 80 % 1016,2 hPa 0,0 l/m² 0,0 km/h (0 Bft) N-NW 347 ° 0 min 0 W/m² 16,3 °C 19,9 °C 0,0 km/h (0 Bft)
11.07.2024 23:14 24,7 °C 19,9 °C 68 % 80 % 1016,2 hPa 0,0 l/m² 0,0 km/h (0 Bft) N-NW 347 ° 0 min 0 W/m² 16,3 °C 19,9 °C 0,0 km/h (0 Bft)
11.07.2024 23:15 24,6 °C 19,9 °C 68 % 80 % 1016,2 hPa 0,0 l/m² 0,0 km/h (0 Bft) N-NW 347 ° 0 min 0 W/m² 16,3 °C 19,9 °C 0,0 km/h (0 Bft)
11.07.2024 23:16 24,7 °C 19,9 °C 68 % 80 % 1016,1 hPa 0,0 l/m² 0,0 km/h (0 Bft) N 0 ° 0 min 0 W/m² 16,3 °C 19,9 °C 0,0 km/h (0 Bft)
11.07.2024 23:17 24,6 °C 19,9 °C 68 % 80 % 1016,2 hPa 0,0 l/m² 0,0 km/h (0 Bft) N 0 ° 0 min 0 W/m² 16,3 °C 19,9 °C 0,0 km/h (0 Bft)
11.07.2024 23:18 24,6 °C 19,8 °C 68 % 80 % 1016,1 hPa 0,0 l/m² 0,0 km/h (0 Bft) N 0 ° 0 min 0 W/m² 16,2 °C 19,8 °C 0,0 km/h (0 Bft)
11.07.2024 23:19 24,7 °C 19,8 °C 68 % 80 % 1016,1 hPa 0,0 l/m² 0,0 km/h (0 Bft) N 0 ° 0 min 0 W/m² 16,2 °C 19,8 °C 0,0 km/h (0 Bft)
11.07.2024 23:20 24,6 °C 19,8 °C 68 % 80 % 1016,1 hPa 0,0 l/m² 0,0 km/h (0 Bft) N 0 ° 0 min 0 W/m² 16,2 °C 19,8 °C 0,0 km/h (0 Bft)
11.07.2024 23:21 24,6 °C 19,8 °C 68 % 80 % 1016,1 hPa 0,0 l/m² 0,0 km/h (0 Bft) N 0 ° 0 min 0 W/m² 16,2 °C 19,8 °C 0,0 km/h (0 Bft)
11.07.2024 23:27 24,6 °C 19,7 °C 68 % 81 % 1016,1 hPa 0,0 l/m² 0,0 km/h (0 Bft) N-NW 347 ° 0 min 0 W/m² 16,3 °C 19,7 °C 0,0 km/h (0 Bft)
11.07.2024 23:29 24,6 °C 19,7 °C 68 % 82 % 1016,1 hPa 0,0 l/m² 0,0 km/h (0 Bft) N-NW 347 ° 0 min 0 W/m² 16,5 °C 19,7 °C 0,0 km/h (0 Bft)
11.07.2024 23:30 24,6 °C 19,7 °C 68 % 82 % 1016,1 hPa 0,0 l/m² 0,0 km/h (0 Bft) N-NW 347 ° 0 min 0 W/m² 16,5 °C 19,7 °C 0,0 km/h (0 Bft)
11.07.2024 23:32 24,6 °C 19,7 °C 68 % 82 % 1016,1 hPa 0,0 l/m² 0,0 km/h (0 Bft) N-NW 347 ° 0 min 0 W/m² 16,5 °C 19,7 °C 0,0 km/h (0 Bft)
11.07.2024 23:33 24,6 °C 19,6 °C 68 % 82 % 1016,1 hPa 0,0 l/m² 0,0 km/h (0 Bft) N-NW 347 ° 0 min 0 W/m² 16,4 °C 19,6 °C 0,0 km/h (0 Bft)
11.07.2024 23:35 24,5 °C 19,6 °C 68 % 82 % 1015,9 hPa 0,0 l/m² 0,0 km/h (0 Bft) N-NW 347 ° 0 min 0 W/m² 16,4 °C 19,6 °C 0,0 km/h (0 Bft)
11.07.2024 23:37 24,5 °C 19,6 °C 68 % 82 % 1016,1 hPa 0,0 l/m² 0,0 km/h (0 Bft) NW 318 ° 0 min 0 W/m² 16,4 °C 19,6 °C 1,6 km/h (1 Bft)
11.07.2024 23:39 24,6 °C 19,6 °C 68 % 82 % 1016,0 hPa 0,0 l/m² 0,3 km/h (0 Bft) W-NW 297 ° 0 min 0 W/m² 16,4 °C 19,6 °C 1,6 km/h (1 Bft)
11.07.2024 23:40 24,5 °C 19,6 °C 68 % 82 % 1016,1 hPa 0,0 l/m² 1,2 km/h (1 Bft) W 280 ° 0 min 0 W/m² 16,4 °C 19,6 °C 3,2 km/h (1 Bft)
11.07.2024 23:41 24,5 °C 19,6 °C 68 % 82 % 1016,1 hPa 0,0 l/m² 0,0 km/h (0 Bft) W 280 ° 0 min 0 W/m² 16,4 °C 19,6 °C 0,0 km/h (0 Bft)
11.07.2024 23:42 24,5 °C 19,5 °C 68 % 82 % 1016,1 hPa 0,0 l/m² 0,0 km/h (0 Bft) W 280 ° 0 min 0 W/m² 16,3 °C 19,5 °C 0,0 km/h (0 Bft)
11.07.2024 23:43 24,6 °C 19,5 °C 68 % 82 % 1016,1 hPa 0,0 l/m² 0,5 km/h (0 Bft) W 279 ° 0 min 0 W/m² 16,3 °C 19,5 °C 1,6 km/h (1 Bft)
11.07.2024 23:44 24,6 °C 19,5 °C 68 % 82 % 1016,1 hPa 0,0 l/m² 0,5 km/h (0 Bft) W 270 ° 0 min 0 W/m² 16,3 °C 19,5 °C 3,2 km/h (1 Bft)
11.07.2024 23:46 24,5 °C 19,5 °C 68 % 82 % 1016,1 hPa 0,0 l/m² 0,0 km/h (0 Bft) W 270 ° 0 min 0 W/m² 16,3 °C 19,5 °C 0,0 km/h (0 Bft)
11.07.2024 23:48 24,5 °C 19,4 °C 68 % 82 % 1016,1 hPa 0,0 l/m² 0,4 km/h (0 Bft) W 270 ° 0 min 0 W/m² 16,2 °C 19,4 °C 3,2 km/h (1 Bft)
11.07.2024 23:50 24,5 °C 19,4 °C 68 % 83 % 1016,1 hPa 0,0 l/m² 0,0 km/h (0 Bft) W 270 ° 0 min 0 W/m² 16,4 °C 19,4 °C 0,0 km/h (0 Bft)
11.07.2024 23:51 24,5 °C 19,4 °C 68 % 83 % 1016,1 hPa 0,0 l/m² 0,0 km/h (0 Bft) W 270 ° 0 min 0 W/m² 16,4 °C 19,4 °C 0,0 km/h (0 Bft)
11.07.2024 23:52 24,5 °C 19,4 °C 68 % 83 % 1016,1 hPa 0,0 l/m² 0,0 km/h (0 Bft) W 270 ° 0 min 0 W/m² 16,4 °C 19,4 °C 0,0 km/h (0 Bft)
11.07.2024 23:54 24,5 °C 19,4 °C 68 % 83 % 1016,1 hPa 0,0 l/m² 0,0 km/h (0 Bft) W 259 ° 0 min 0 W/m² 16,4 °C 19,4 °C 0,0 km/h (0 Bft)
11.07.2024 23:56 24,5 °C 19,4 °C 68 % 83 % 1016,0 hPa 0,0 l/m² 2,6 km/h (1 Bft) W-SW 255 ° 0 min 0 W/m² 16,4 °C 19,4 °C 3,2 km/h (1 Bft)
11.07.2024 23:58 24,4 °C 19,3 °C 68 % 83 % 1016,0 hPa 0,0 l/m² 0,7 km/h (0 Bft) W-SW 255 ° 0 min 0 W/m² 16,3 °C 19,3 °C 3,2 km/h (1 Bft)
_ Min-Zeit 08:01 05:41 17:12 15:47 03:53 - 23:54 - - - - 23:48 05:41 23:54
Minimum _ 24,0 °C 18,8 °C 66 % 48 % 1015,0 hPa - 0,0 km/h (0 Bft) - - - - 16,2 °C 18,8 °C 0,0 km/h (0 Bft)
_ Max-Zeit 22:56 15:44 00:27 08:45 10:07 03:16 16:16 - - 11:51 14:22 08:55 15:42 16:00
Maximum _ 24,8 °C 29,8 °C 69 % 95 % 1016,9 hPa 0,2 l/m² 18,3 km/h
N-NW (3 Bft)
- - 5 min 1162 W/m² 20,7 °C 29,8 °C 37,0 km/h
NW (5 Bft)
Durchschnitt _ 24,2 °C 23,1 °C 68 % 77 % 1016,0 hPa #0,4 l/m² 3,0 km/h (1 Bft) N-NW - #13:20 h 235 W/m² 18,5 °C 23,0 °C 5,7 km/h (2 Bft)
© 2009 Mathias Hoßbach